[[{"header":{"parameterUnit":"m.s-1","parameterCategory":1,"la1":30.6,"la2":29.2853,"lo1":-89.7004,"lo2":-87.6739,"dy":0.0162,"dx":0.0183,"nx":112,"ny":82,"refTime":"2023-03-25T00:00:00:Z","depth":0,"parameterNumber":2,"parameterNumberName":"U-component_of_WINDS"},"data":[0.0,0.0,0.0,0.0,0.0,0.0,0.0,0.0,0.0,0.0,0.0,0.0,0.0,0.0,0.0,0.0,0.0,0.0,0.0,0.0,0.0,0.0,0.0,0.0,0.0,0.0,0.0,0.0,0.0,0.0,0.0,0.0,0.0,0.0,0.0,0.0,0.0,0.0,0.0,0.0,0.0,0.0,0.0,0.0,0.0,0.0,0.0,0.0,0.0,0.0,0.0,0.0,0.0,0.0,0.0,0.0,0.0,0.0,0.0,0.0,0.0,0.0,0.0,0.0,0.0,0.0,0.0,0.0,0.0,0.0,0.0,0.0,0.0,0.0,0.0,0.0,0.0,0.0,0.0,0.0,0.0,0.0,0.0,0.0,0.0,0.0,0.0,0.0,0.0,0.0,0.0,-0.5692,-0.5475,-0.5389,-0.5503,-0.5728,-0.579,-0.5679,0.0,0.0,0.0,0.0,0.0,0.0,0.0,0.0,0.0,0.0,0.0,0.0,0.0,0.0,0.0,0.0,0.0,0.0,0.0,0.0,0.0,0.0,0.0,0.0,0.0,0.0,0.0,0.0,0.0,0.0,0.0,0.0,0.0,0.0,0.0,0.0,0.0,0.0,0.0,0.0,0.0,0.0,0.0,0.0,0.0,0.0,0.0,0.0,0.0,0.0,0.0,0.0,0.0,0.0,0.0,0.0,0.0,0.0,0.0,0.0,0.0,0.0,0.0,0.0,0.0,0.0,0.0,0.0,0.0,0.0,0.0,0.0,0.0,0.0,0.0,0.0,0.0,0.0,0.0,0.0,0.0,0.0,0.0,0.0,0.0,0.0,0.0,0.0,0.0,0.0,0.0,0.0,0.0,0.0,0.0,0.0,0.0,0.0,0.0,0.0,0.0,0.0,0.0,0.0,-0.5614,-0.5614,-0.5589,-0.5571,-0.5588,-0.5613,-0.572,-0.5939,0.0,0.0,0.0,0.0,0.0,0.0,0.0,0.0,0.0,0.0,0.0,0.0,0.0,0.0,0.0,0.0,0.0,0.0,0.0,0.0,0.0,0.0,0.0,0.0,0.0,0.0,0.0,0.0,0.0,0.0,0.0,0.0,0.0,0.0,0.0,0.0,0.0,0.0,0.0,0.0,0.0,0.0,0.0,0.0,0.0,0.0,0.0,0.0,0.0,0.0,0.0,0.0,0.0,0.0,0.0,0.0,0.0,0.0,0.0,0.0,0.0,0.0,0.0,0.0,0.0,0.0,0.0,0.0,0.0,0.0,0.0,0.0,0.0,0.0,0.0,0.0,0.0,0.0,0.0,0.0,0.0,0.0,0.0,0.0,0.0,0.0,0.0,0.0,0.0,0.0,0.0,0.0,0.0,0.0,0.0,0.0,0.0,0.0,0.0,0.0,0.0,0.0,0.0,-0.5463,-0.5336,-0.5186,-0.5158,-0.5158,-0.5158,-0.5311,-0.5363,-0.5363,-0.5864,0.0,0.0,0.0,0.0,0.0,0.0,0.0,0.0,0.0,0.0,0.0,0.0,0.0,0.0,0.0,0.0,0.0,0.0,0.0,0.0,0.0,0.0,0.0,0.0,0.0,0.0,0.0,0.0,0.0,0.0,0.0,0.0,0.0,0.0,0.0,0.0,0.0,0.0,0.0,0.0,0.0,0.0,0.0,0.0,0.0,0.0,0.0,0.0,0.0,0.0,0.0,0.0,0.0,0.0,0.0,0.0,0.0,0.0,0.0,0.0,0.0,0.0,0.0,0.0,0.0,0.0,0.0,0.0,0.0,0.0,0.0,0.0,0.0,0.0,0.0,0.0,0.0,0.0,0.0,0.0,0.0,0.0,0.0,0.0,0.0,0.0,0.0,0.0,0.0,0.0,0.0,0.0,0.0,0.0,0.0,0.0,0.0,0.0,0.0,0.0,0.0,0.0,-0.5115,-0.5037,-0.4809,-0.4809,-0.4809,-0.4809,-0.4987,-0.5037,-0.4912,-0.5463,0.0,0.0,0.0,0.0,0.0,0.0,0.0,0.0,0.0,0.0,0.0,0.0,0.0,0.0,0.0,0.0,0.0,0.0,0.0,0.0,0.0,0.0,0.0,0.0,0.0,0.0,0.0,0.0,0.0,0.0,0.0,0.0,0.0,0.0,0.0,0.0,0.0,0.0,0.0,0.0,0.0,0.0,0.0,0.0,0.0,0.0,0.0,0.0,0.0,0.0,0.0,0.0,0.0,0.0,0.0,0.0,0.0,0.0,0.0,0.0,0.0,0.0,0.0,0.0,0.0,0.0,0.0,0.0,0.0,0.0,0.0,0.0,0.0,0.0,0.0,0.0,0.0,0.0,0.0,0.0,0.0,0.0,0.0,0.0,0.0,0.0,0.0,0.0,0.0,0.0,0.0,0.0,0.0,0.0,0.0,0.0,0.0,0.0,0.0,0.0,0.0,0.0,-0.4834,-0.4809,-0.4809,-0.4809,-0.4809,-0.4809,-0.4809,-0.4937,-0.5165,-0.5215,0.0,0.0,0.0,0.0,0.0,0.0,0.0,0.0,0.0,0.0,0.0,0.0,0.0,0.0,0.0,0.0,0.0,0.0,0.0,0.0,0.0,0.0,0.0,0.0,0.0,0.0,0.0,0.0,0.0,0.0,0.0,0.0,0.0,0.0,0.0,0.0,0.0,0.0,0.0,0.0,0.0,0.0,0.0,0.0,0.0,0.0,0.0,0.0,0.0,0.0,0.0,0.0,0.0,0.0,0.0,0.0,0.0,0.0,0.0,0.0,0.0,0.0,0.0,0.0,0.0,0.0,0.0,0.0,0.0,0.0,0.0,0.0,0.0,0.0,0.0,0.0,0.0,0.0,0.0,0.0,0.0,0.0,0.0,0.0,0.0,0.0,0.0,0.0,0.0,0.0,0.0,0.0,0.0,0.0,0.0,0.0,0.0,0.0,0.0,0.0,0.0,0.0,-0.4809,-0.4809,0.0,-0.4809,-0.4809,-0.4809,-0.4809,-0.4834,-0.4937,0.0,0.0,0.0,0.0,0.0,0.0,0.0,0.0,0.0,0.0,0.0,0.0,0.0,0.0,0.0,0.0,0.0,0.0,0.0,0.0,0.0,0.0,0.0,0.0,0.0,0.0,0.0,0.0,0.0,0.0,0.0,0.0,0.0,0.0,0.0,0.0,0.0,0.0,0.0,0.0,0.0,0.0,0.0,0.0,0.0,0.0,0.0,0.0,0.0,0.0,0.0,0.0,0.0,0.0,0.0,0.0,0.0,0.0,0.0,0.0,0.0,0.0,0.0,0.0,0.0,0.0,0.0,0.0,0.0,0.0,0.0,0.0,0.0,0.0,0.0,0.0,0.0,0.0,0.0,0.0,0.0,0.0,0.0,0.0,0.0,0.0,0.0,0.0,0.0,0.0,0.0,0.0,0.0,0.0,0.0,0.0,0.0,0.0,0.0,0.0,0.0,0.0,-0.4885,-0.5035,-0.5087,0.0,-0.4809,-0.4809,-0.4809,-0.4809,-0.4809,-0.4809,0.0,0.0,0.0,0.0,0.0,0.0,0.0,0.0,0.0,0.0,0.0,0.0,0.0,0.0,0.0,0.0,0.0,0.0,0.0,0.0,0.0,0.0,0.0,0.0,0.0,0.0,0.0,0.0,0.0,0.0,0.0,0.0,0.0,0.0,0.0,0.0,0.0,0.0,0.0,0.0,0.0,0.0,0.0,0.0,0.0,0.0,0.0,0.0,0.0,0.0,0.0,0.0,0.0,0.0,0.0,0.0,0.0,0.0,0.0,0.0,0.0,0.0,0.0,0.0,0.0,0.0,0.0,0.0,0.0,0.0,0.0,0.0,0.0,0.0,0.0,0.0,0.0,0.0,0.0,0.0,0.0,0.0,0.0,0.0,0.0,0.0,0.0,0.0,0.0,0.0,0.0,0.0,0.0,0.0,0.0,0.0,0.0,0.0,0.0,0.0,0.0,0.0,-0.5085,-0.5514,-0.5691,-0.491,-0.4809,-0.4809,-0.4809,-0.4809,-0.4809,0.0,0.0,0.0,0.0,0.0,0.0,0.0,0.0,0.0,0.0,0.0,0.0,0.0,0.0,0.0,0.0,0.0,0.0,0.0,0.0,0.0,0.0,0.0,0.0,0.0,0.0,0.0,0.0,0.0,0.0,0.0,0.0,0.0,0.0,0.0,0.0,0.0,0.0,0.0,0.0,0.0,0.0,0.0,0.0,0.0,0.0,0.0,0.0,0.0,0.0,0.0,0.0,0.0,0.0,0.0,0.0,0.0,0.0,0.0,0.0,0.0,0.0,0.0,0.0,0.0,0.0,0.0,0.0,0.0,0.0,0.0,0.0,0.0,0.0,0.0,0.0,0.0,0.0,0.0,0.0,0.0,0.0,0.0,0.0,0.0,0.0,0.0,0.0,0.0,0.0,0.0,0.0,0.0,0.0,0.0,0.0,0.0,0.0,0.0,0.0,0.0,0.0,0.0,-0.5789,-0.5842,-0.5917,-0.5664,-0.5135,-0.4809,-0.4809,-0.4809,-0.4809,-0.4809,0.0,0.0,0.0,0.0,0.0,0.0,0.0,0.0,0.0,0.0,0.0,0.0,0.0,0.0,0.0,0.0,0.0,0.0,0.0,0.0,0.0,0.0,0.0,0.0,0.0,0.0,0.0,0.0,0.0,0.0,0.0,0.0,0.0,0.0,0.0,0.0,0.0,0.0,0.0,0.0,0.0,0.0,0.0,0.0,0.0,0.0,0.0,0.0,0.0,0.0,0.0,0.0,0.0,0.0,0.0,0.0,0.0,0.0,0.0,0.0,0.0,0.0,0.0,0.0,0.0,0.0,0.0,0.0,0.0,0.0,0.0,0.0,0.0,0.0,0.0,0.0,0.0,0.0,0.0,0.0,0.0,0.0,0.0,0.0,0.0,0.0,0.0,0.0,0.0,0.0,0.0,0.0,0.0,0.0,0.0,0.0,0.0,0.0,0.0,0.0,0.0,0.0,-0.6589,-0.6764,-0.6839,-0.6514,-0.5764,-0.5288,-0.5288,-0.4985,-0.4809,-0.4809,0.0,0.0,0.0,0.0,0.0,0.0,0.0,0.0,0.0,0.0,0.0,0.0,0.0,0.0,0.0,0.0,0.0,0.0,0.0,0.0,0.0,0.0,0.0,0.0,0.0,0.0,0.0,0.0,0.0,0.0,0.0,0.0,0.0,0.0,0.0,0.0,0.0,0.0,0.0,0.0,0.0,0.0,0.0,0.0,0.0,0.0,0.0,0.0,0.0,0.0,0.0,0.0,0.0,0.0,0.0,0.0,0.0,0.0,0.0,0.0,0.0,0.0,0.0,0.0,0.0,0.0,0.0,0.0,0.0,0.0,0.0,0.0,0.0,0.0,0.0,0.0,0.0,0.0,0.0,0.0,0.0,0.0,0.0,0.0,0.0,0.0,0.0,0.0,0.0,0.0,0.0,0.0,0.0,0.0,0.0,0.0,0.0,0.0,0.0,0.0,0.0,0.0,-0.7409,-0.797,-0.8155,-0.7403,-0.6642,-0.6123,-0.6047,-0.5365,-0.4909,-0.4834,0.0,0.0,0.0,0.0,0.0,0.0,0.0,0.0,0.0,0.0,0.0,0.0,0.0,0.0,0.0,0.0,0.0,0.0,0.0,0.0,0.0,0.0,0.0,0.0,0.0,0.0,0.0,0.0,0.0,0.0,0.0,0.0,0.0,0.0,0.0,0.0,0.0,0.0,0.0,0.0,0.0,0.0,0.0,0.0,0.0,0.0,0.0,0.0,0.0,0.0,0.0,0.0,0.0,0.0,0.0,0.0,0.0,0.0,0.0,0.0,-0.9441,0.0,0.0,0.0,0.0,0.0,0.0,0.0,0.0,0.0,0.0,0.0,0.0,0.0,0.0,0.0,0.0,0.0,0.0,0.0,0.0,0.0,0.0,0.0,0.0,0.0,0.0,0.0,0.0,0.0,0.0,0.0,0.0,0.0,0.0,0.0,0.0,0.0,0.0,0.0,0.0,0.0,-0.8258,-0.8435,-0.8581,-0.8404,-0.7795,-0.711,-0.638,-0.6145,-0.5779,-0.5075,0.0,0.0,0.0,0.0,0.0,0.0,0.0,0.0,0.0,0.0,0.0,0.0,0.0,0.0,0.0,0.0,0.0,0.0,0.0,0.0,0.0,0.0,0.0,0.0,0.0,0.0,0.0,0.0,0.0,0.0,0.0,0.0,0.0,0.0,0.0,0.0,0.0,0.0,0.0,0.0,0.0,0.0,0.0,0.0,0.0,0.0,0.0,0.0,0.0,0.0,0.0,0.0,0.0,0.0,0.0,0.0,0.0,0.0,0.0,0.0,0.0,-0.9603,0.0,0.0,0.0,0.0,0.0,0.0,0.0,0.0,0.0,0.0,0.0,0.0,0.0,0.0,0.0,0.0,0.0,0.0,0.0,0.0,0.0,0.0,0.0,0.0,0.0,0.0,0.0,0.0,0.0,0.0,0.0,0.0,0.0,0.0,0.0,0.0,0.0,0.0,0.0,0.0,-0.931,-0.9343,-0.9238,-0.8796,-0.8115,-0.7346,-0.6424,-0.6373,-0.6215,-0.5741,-0.5713,0.0,0.0,0.0,0.0,0.0,0.0,0.0,0.0,0.0,0.0,0.0,0.0,0.0,0.0,0.0,0.0,0.0,0.0,0.0,0.0,0.0,0.0,0.0,0.0,0.0,0.0,0.0,0.0,0.0,0.0,0.0,0.0,0.0,0.0,0.0,0.0,0.0,0.0,0.0,0.0,0.0,0.0,0.0,0.0,0.0,0.0,0.0,0.0,0.0,0.0,0.0,0.0,0.0,-0.9867,-0.9772,-0.9603,-0.9603,-0.9603,-0.9603,-0.9603,-0.9603,-0.9603,0.0,0.0,0.0,0.0,0.0,0.0,0.0,0.0,0.0,0.0,0.0,0.0,0.0,0.0,0.0,0.0,0.0,0.0,0.0,0.0,0.0,0.0,0.0,0.0,0.0,-0.9603,-0.9611,0.0,0.0,0.0,0.0,0.0,0.0,0.0,0.0,0.0,0.0,0.0,0.0,-1.017,-1.0215,-0.9943,-0.9174,-0.851,-0.7782,-0.6906,-0.6749,-0.6616,-0.6459,-0.6459,-0.6459,0.0,0.0,0.0,0.0,0.0,0.0,0.0,0.0,0.0,0.0,0.0,0.0,0.0,0.0,0.0,0.0,0.0,0.0,0.0,0.0,0.0,0.0,0.0,0.0,0.0,0.0,0.0,0.0,0.0,0.0,0.0,0.0,-1.4082,-1.401,0.0,0.0,0.0,0.0,0.0,0.0,0.0,0.0,0.0,0.0,0.0,0.0,0.0,-1.2296,-1.2296,-1.2296,-1.1858,-1.0979,-1.0979,-1.0498,-0.9603,-0.9603,-0.9603,-0.9603,-0.9603,0.0,-0.9603,-0.9603,0.0,0.0,0.0,0.0,0.0,0.0,0.0,0.0,0.0,0.0,0.0,0.0,0.0,0.0,0.0,0.0,0.0,0.0,0.0,0.0,0.0,0.0,-0.9603,-0.9603,-0.9603,-0.9644,0.0,-0.9634,-0.948,-0.9579,-0.9501,0.0,0.0,0.0,0.0,0.0,0.0,0.0,-1.0212,-1.0302,-1.032,-1.0209,-1.0259,-0.9933,-0.905,-0.8252,-0.7458,-0.6697,-0.6669,-0.6669,-0.6669,-0.7225,0.0,0.0,0.0,0.0,0.0,0.0,0.0,0.0,0.0,0.0,0.0,0.0,0.0,0.0,0.0,0.0,0.0,0.0,0.0,0.0,0.0,0.0,0.0,0.0,0.0,0.0,0.0,0.0,0.0,-1.4196,-1.4076,-1.4076,-1.3932,-1.3637,0.0,0.0,0.0,0.0,0.0,0.0,0.0,0.0,0.0,-1.2678,-1.2702,-1.2702,-1.2702,-1.2702,-1.2484,-1.2047,-1.2047,-1.1899,-1.1627,-1.1627,-1.1715,-1.1801,-1.118,-1.0877,-1.0838,-0.9954,-0.9603,-0.9603,0.0,0.0,0.0,0.0,-0.9603,-0.9603,-0.9603,-0.9603,0.0,0.0,0.0,0.0,0.0,0.0,0.0,0.0,0.0,0.0,0.0,0.0,0.0,-0.9904,-0.9929,-0.9974,-1.0048,-1.0007,-0.9929,0.0,-0.9929,-0.9953,-1.0052,0.0,0.0,0.0,0.0,0.0,-1.0475,-1.053,-1.0388,-0.9895,-0.9928,-0.9609,-0.8696,-0.8723,-0.8616,-0.8229,-0.8205,-0.8205,-0.8205,-0.8063,-0.7783,0.0,0.0,0.0,0.0,0.0,0.0,0.0,0.0,0.0,0.0,0.0,0.0,0.0,0.0,0.0,0.0,0.0,0.0,0.0,0.0,0.0,0.0,0.0,0.0,0.0,0.0,0.0,0.0,-1.4819,-1.4484,-1.4484,-1.4238,-1.392,0.0,0.0,0.0,0.0,0.0,0.0,-1.3095,-1.3119,-1.324,-1.3481,-1.3481,-1.3481,-1.3481,-1.3592,-1.3481,-1.3213,-1.3299,-1.3328,-1.3299,-1.3299,-1.3422,-1.356,-1.2694,-1.2335,-1.2212,-1.047,-0.9766,-0.9766,-0.9766,-0.9766,-0.9766,-0.9766,-0.9766,-0.9766,-0.9766,-0.9766,-0.9766,-0.9766,0.0,-0.9766,-0.9766,0.0,0.0,0.0,0.0,-0.9795,-0.995,-0.9983,-1.0015,-1.0158,-1.0186,-1.0202,-1.0247,-1.0259,-1.0243,0.0,-1.0186,-1.0202,-1.0251,0.0,0.0,0.0,0.0,-1.0519,-1.0676,-1.0692,-1.0441,-0.9805,-0.9722,-0.9444,-0.8751,-0.914,-0.9388,-0.9388,-0.9388,-0.9388,-0.9388,-0.8944,-0.8582,-0.8361,0.0,0.0,0.0,0.0,0.0,0.0,0.0,0.0,0.0,0.0,0.0,0.0,0.0,0.0,0.0,0.0,0.0,0.0,0.0,0.0,0.0,0.0,0.0,0.0,0.0,0.0,0.0,0.0,0.0,-1.6082,-1.5855,0.0,0.0,0.0,0.0,-1.4226,-1.327,-1.3143,-1.4172,-1.4226,-1.4651,-1.5611,-1.5635,-1.5635,-1.5635,-1.5961,-1.5605,-1.4598,-1.4926,-1.456,-1.3569,-1.3569,-1.36,-1.3611,-1.3534,-1.3509,-1.333,-1.1087,-1.0162,-1.0162,-1.0162,-1.0162,-1.0162,-1.0162,-1.0162,-1.0162,-1.0162,-1.0162,-1.0162,-1.0162,-1.0162,-1.0162,-1.0162,-1.0162,0.0,0.0,-1.0162,-1.0162,-1.017,-1.0174,-1.0178,-1.0212,-1.0186,-1.0235,-1.0357,-1.0393,-1.0345,0.0,-1.0186,-1.0243,-1.0365,0.0,-1.0454,-1.0655,-1.068,-1.068,-1.0688,-1.0692,-1.0692,-1.0637,-1.0637,-1.061,-1.0582,-0.986,-0.9388,-0.9388,-0.9388,-0.9388,-0.9388,-1.0162,-1.0162,-0.9333,-0.9326,0.0,0.0,0.0,0.0,0.0,0.0,0.0,0.0,0.0,0.0,0.0,0.0,0.0,0.0,0.0,0.0,0.0,0.0,0.0,0.0,0.0,0.0,0.0,0.0,0.0,0.0,0.0,0.0,-1.6447,-1.6069,0.0,-1.5808,-1.5469,-1.5278,-1.5278,-1.4908,-1.486,-1.5231,-1.5477,-1.575,-1.6119,-1.6293,-1.6393,-1.6393,-1.65,-1.6373,-1.6,-1.6103,-1.6087,-1.5921,-1.5921,-1.6021,-1.6132,-1.5394,-1.5074,-1.4969,-1.336,-1.2587,-1.2391,-1.2391,-1.2391,-1.2309,-1.1571,-1.1291,-1.1187,-1.0447,-1.0186,-1.0186,-1.0186,-1.0186,-1.0186,-1.0186,-1.0186,-1.0186,-1.0186,-1.0186,-1.0215,-1.0306,-1.0339,-1.0367,-1.0477,-1.0528,-1.0521,-1.0586,-1.0599,-1.0582,-1.0544,-1.0528,-1.0553,-1.059,-1.0599,-1.0623,-1.0684,-1.0692,-1.0692,-1.0692,-1.0692,-1.0692,-1.0692,-1.0692,-1.0692,-1.0692,-1.0414,-1.0249,-1.0249,-1.0249,-1.0249,-1.0249,-1.0527,-1.0551,-1.0249,-1.0249,-0.9805,0.0,0.0,0.0,0.0,0.0,0.0,0.0,0.0,0.0,0.0,0.0,0.0,0.0,0.0,0.0,0.0,0.0,0.0,0.0,0.0,0.0,0.0,0.0,0.0,0.0,0.0,-1.6272,-1.6447,-1.6069,-1.5808,-1.5808,-1.5895,-1.5979,-1.5979,-1.6048,-1.6102,-1.6102,-1.6313,-1.6444,-1.6444,-1.6607,-1.6707,-1.6707,-1.6807,-1.6879,-1.6879,-1.6954,-1.7133,-1.7321,-1.7321,-1.7428,-1.7556,-1.6797,-1.6479,-1.6399,-1.5615,-1.5144,-1.4866,-1.409,-1.3773,-1.3669,-1.2918,-1.2631,-1.2526,-1.1774,-1.1516,-1.1516,-1.1516,-1.1516,-1.1437,-1.1072,-1.0939,-1.0864,-1.0471,-1.0365,-1.0398,-1.0489,-1.0494,-1.0523,-1.0664,-1.0692,-1.0692,-1.0692,-1.0692,-1.0692,-1.0692,-1.0692,-1.0692,-1.0692,-1.0692,-1.0692,-1.0692,-1.0692,-1.0692,-1.0692,-1.0692,-1.0692,-1.0692,-1.0692,-1.0692,-1.0692,-1.0692,-1.0692,-1.0692,-1.0692,-1.0692,-1.0692,-1.0692,-1.0692,-1.0692,-1.0692,-1.0414,-0.9833,0.0,0.0,0.0,0.0,0.0,0.0,0.0,0.0,0.0,0.0,0.0,0.0,0.0,0.0,0.0,0.0,0.0,0.0,0.0,0.0,0.0,0.0,0.0,-1.6659,-1.6383,-1.6224,-1.6214,-1.5987,-1.5821,-1.5828,-1.6119,-1.631,-1.631,-1.6547,-1.6707,-1.6707,-1.6714,-1.672,-1.672,-1.6727,-1.6734,-1.6734,-1.7046,-1.7213,-1.7219,-1.7474,-1.7608,-1.7608,-1.7608,-1.7608,-1.7608,-1.7608,-1.7608,-1.7608,-1.7608,-1.7608,-1.7364,-1.5102,-1.4212,-1.4186,-1.4159,-1.4132,-1.4105,-1.4105,-1.4105,-1.4105,-1.4105,-1.4105,-1.389,-1.2792,-1.244,-1.2227,-1.1126,-1.0802,-1.0802,-1.0802,-1.0802,-1.0802,-1.0806,-1.081,-1.081,-1.0841,-1.0791,-1.0763,-1.0763,-1.0736,-1.0704,-1.0692,-1.0692,-1.0692,-1.0692,-1.0692,0.0,-1.0692,-1.0696,-1.07,-1.07,-1.0704,-1.0708,-1.07,-1.07,-1.07,-1.0692,-1.0692,-1.0692,-1.0692,-1.0692,-1.0692,-1.0692,-1.0692,-1.0692,-1.0692,0.0,0.0,0.0,0.0,0.0,0.0,0.0,0.0,0.0,0.0,0.0,0.0,0.0,0.0,0.0,0.0,0.0,0.0,0.0,0.0,0.0,0.0,-1.7019,-1.7099,-1.6746,-1.6554,-1.6752,-1.6594,-1.6458,-1.6446,-1.654,-1.6587,-1.6587,-1.666,-1.6707,-1.6707,-1.6933,-1.7053,-1.7053,-1.726,-1.7341,-1.7341,-1.7448,-1.7488,-1.7488,-1.7568,-1.7608,-1.7608,-1.7608,-1.7608,-1.7608,-1.7608,-1.7608,-1.7608,-1.7608,-1.7608,-1.7529,-1.6876,-1.6638,-1.6525,-1.5695,-1.4862,-1.4105,-1.4105,-1.4105,-1.4105,-1.4105,-1.4105,-1.403,-1.3733,-1.3625,-1.3572,-1.3248,-1.3166,-1.3166,-1.3166,-1.3166,-1.3234,-1.3482,-1.3517,-1.3585,-1.3775,-1.3091,-1.2453,-1.2453,-1.1694,-1.0997,-1.0737,-1.0692,-1.0692,-1.0692,-1.0692,0.0,-1.0692,-1.0837,-1.0919,-1.0919,-1.1001,-1.1029,-1.0931,-1.0919,-1.0862,-1.07,-1.0692,-1.0692,-1.0692,-1.0692,-1.0692,-1.0692,-1.0692,-1.0692,0.0,0.0,0.0,0.0,0.0,0.0,0.0,0.0,0.0,0.0,0.0,0.0,0.0,0.0,0.0,0.0,0.0,0.0,0.0,0.0,0.0,0.0,-1.7339,-1.7423,-1.7673,-1.7196,-1.6872,-1.7033,-1.6934,-1.683,-1.6718,-1.6846,-1.6919,-1.6919,-1.7001,-1.7074,-1.7074,-1.7361,-1.7528,-1.7528,-1.7809,-1.799,-1.799,-1.799,-1.799,-1.799,-1.799,-1.799,-1.799,-1.799,-1.799,0.0,-1.799,-1.799,-1.799,-1.799,-1.799,0.0,0.0,0.0,0.0,0.0,-1.618,-1.5574,-1.5692,-1.5734,-1.5752,-1.5891,-1.5954,-1.5839,-1.5348,-1.5179,-1.5096,-1.462,-1.4483,-1.4483,-1.4483,-1.4483,-1.4521,-1.4711,-1.4772,-1.481,-1.4979,-1.4418,-1.3885,-1.3885,-1.3293,0.0,-1.252,-1.1629,-1.0915,-1.0915,-1.0915,-1.0915,-1.0915,-1.1009,-1.1074,-1.1074,-1.1163,-1.1183,-1.1082,-1.1074,0.0,0.0,0.0,-1.0915,-1.0915,-1.0915,0.0,0.0,0.0,-1.0915,-1.0915,0.0,0.0,0.0,-1.0716,-1.068,0.0,0.0,0.0,0.0,0.0,0.0,0.0,0.0,0.0,0.0,0.0,0.0,0.0,0.0,0.0,0.0,-1.8149,-1.834,-1.8669,-1.8094,-1.754,-1.7241,-1.7193,-1.7107,-1.6826,-1.7099,-1.7362,-1.7551,-1.7639,-1.7774,-1.794,0.0,0.0,0.0,0.0,-1.849,-1.849,-1.849,-1.849,-1.849,-1.849,-1.849,-1.849,-1.849,-1.849,-1.849,-1.849,-1.849,-1.849,-1.849,-1.849,-1.8437,-1.7923,-1.7709,-1.7709,-1.7709,-1.7709,-1.7749,-1.7976,0.0,0.0,-1.8404,-1.849,-1.829,-1.7235,-1.6894,-1.6698,-1.5693,-1.5378,-1.5378,-1.5378,-1.5378,-1.5412,-1.544,-1.5445,-1.5456,-1.5484,-1.5377,-1.5292,-1.5292,-1.5173,-1.506,-1.506,-1.315,-1.1618,-1.1618,-1.1618,-1.1618,-1.1618,-1.1635,-1.1648,-1.1648,0.0,0.0,-1.1652,-1.1537,-1.1446,-1.1421,-1.1277,-1.1195,-1.1195,-1.1195,-1.1195,-1.1195,-1.1195,-1.1249,-1.131,-1.131,-1.1339,-1.1388,-1.0955,-1.0842,0.0,0.0,0.0,0.0,0.0,0.0,0.0,0.0,0.0,0.0,0.0,0.0,0.0,0.0,0.0,-1.9475,-2.0223,-2.09,-2.1244,-2.1137,-2.0236,-1.8072,-1.7833,-1.7719,-1.744,-1.7684,-1.8358,-1.9604,-1.8858,-1.8845,-2.0028,-1.9029,-1.8404,-1.8404,-1.8464,-1.849,-1.849,-1.849,-1.849,-1.849,0.0,0.0,-1.849,-1.849,-1.849,-1.849,-1.849,-1.849,-1.849,-1.849,-1.849,-1.8477,-1.8357,-1.8317,-1.8317,-1.8317,-1.8317,-1.8323,-1.8384,-1.8404,-1.841,-1.847,-1.849,-1.8463,-1.8206,-1.8151,0.0,-1.7888,-1.7832,-1.7832,-1.7832,-1.7832,-1.789,-1.8088,-1.8139,-1.8232,-1.8493,-1.7739,-1.703,-1.703,-1.6191,-1.5488,-1.5488,-1.4813,-1.4272,-1.4272,-1.4272,-1.4272,-1.4272,-1.4414,-1.4499,-1.4499,-1.3732,-1.3564,-1.4427,-1.3558,-1.2911,-1.2741,-1.1762,-1.1195,-1.1195,-1.1195,-1.1195,-1.1195,-1.1195,-1.1483,-1.2,-1.2,-1.2259,-1.2717,-1.1608,-1.111,0.0,0.0,0.0,0.0,0.0,0.0,0.0,0.0,0.0,0.0,0.0,-1.9638,0.0,0.0,-2.0773,-2.0931,-2.1394,-2.1862,-2.2199,-2.2414,-2.1929,-2.0251,-2.023,-2.0238,-1.999,-2.0136,-2.0567,-2.1332,-2.0849,-2.0818,-2.1564,-2.1181,-2.0951,-2.0951,-2.108,-2.1087,-2.0948,-2.0348,-1.9991,-1.9836,-1.9236,-1.896,-1.896,-1.896,-1.896,-1.896,-1.896,-1.896,-1.896,-1.896,-1.896,-1.896,-1.896,-1.8779,-1.849,-1.849,-1.849,-1.851,-1.8657,-1.8704,-1.8731,-1.8913,-1.896,-1.896,-1.896,-1.896,-1.896,-1.896,-1.896,-1.896,-1.896,-1.896,-1.8993,-1.9112,-1.9145,-1.9185,-1.9361,-1.8887,-1.8438,-1.8438,-1.7935,-1.7496,-1.7496,-1.733,-1.677,-1.5498,-1.529,-1.529,-1.529,-1.5398,-1.545,-1.545,-1.4963,-1.487,-1.5397,-1.4864,-1.4466,-1.4354,-1.3761,-1.3411,-1.3411,-1.3411,-1.3411,-1.3411,-1.3519,-1.3698,-1.3888,-1.4193,-1.4426,-1.4547,-1.4067,-1.3543,0.0,0.0,0.0,0.0,0.0,0.0,0.0,0.0,-1.985,-2.0,-2.0851,-2.1393,-2.0726,-2.138,-2.2081,-2.2371,-2.2665,-2.2947,-2.3214,-2.361,-2.3656,-2.313,-2.292,-2.2736,-2.245,-2.2584,-2.2773,-2.3088,-2.2883,-2.2881,-2.3188,-2.3371,-2.3475,-2.3475,-2.3701,-2.371,-2.3495,-2.2512,-2.1934,-2.1701,-2.0716,-2.0263,-2.0263,-2.0263,-2.0126,-1.9902,-1.9678,-1.954,-1.9482,-1.9482,-1.9453,-1.9395,-1.9395,-1.9107,-1.8664,-1.8664,-1.8664,-1.8726,-1.8931,-1.9011,-1.9052,-1.9321,-1.9395,-1.9395,-1.9395,-1.9395,-1.9395,-1.9395,-1.9395,-1.9395,-1.9395,-1.9395,-1.9395,-1.9395,-1.9395,-1.9395,-1.9395,-1.9395,-1.9395,-1.9395,-1.9395,-1.9395,-1.9395,-1.9395,-1.8713,-1.6638,-1.6343,-1.6343,-1.6343,-1.6343,-1.6343,-1.6343,-1.6131,-1.5983,-1.5983,-1.5983,-1.5983,-1.5983,-1.5752,-1.5604,-1.5604,-1.5658,-1.5688,-1.5688,-1.5937,-1.6055,-1.5954,-1.6438,-1.6609,-1.6468,-1.6932,-1.6407,-1.7302,-1.7302,-1.7715,-1.9436,-1.9521,-1.9429,0.0,0.0,-2.1531,-2.2391,-2.2243,-2.2176,-2.2937,-2.3493,-2.3821,-2.3867,-2.501,-2.5917,-2.5965,-2.6307,-2.6532,-2.6448,-2.4601,-2.3194,-2.2868,-2.313,-2.384,-2.5138,-2.4255,-2.4239,-2.562,-2.4459,-2.3764,-2.3764,-2.3769,-2.3794,-2.3766,-2.3627,-2.3543,-2.3523,-2.3383,-2.3319,-2.3319,-2.3319,-2.2753,-2.1737,-2.0666,-2.0046,-1.9758,-1.9758,-1.962,-1.9395,-1.9395,-1.9354,-1.9301,-1.9301,-1.9301,-1.9301,-1.9334,-1.9348,-1.9354,-1.9388,-1.9395,-1.9395,-1.9395,-1.9395,-1.9395,-1.9395,-1.9395,-1.9395,-1.9395,-1.9395,-1.9395,-1.9395,-1.9395,-1.9395,-1.9395,-1.9395,-1.9395,-1.9395,-1.9395,-1.9395,-1.9395,-1.9395,-1.9307,-1.901,-1.8981,-1.8981,-1.8981,-1.8981,-1.8981,-1.8981,-1.7964,-1.7279,-1.7279,-1.7279,-1.7279,-1.7279,-1.622,-1.5604,-1.5604,-1.5825,-1.5967,-1.5967,-1.628,-1.6692,-1.7208,-1.7267,-1.7589,-1.815,-1.9042,-1.8306,-1.8849,-1.9185,0.0,0.0,-2.0606,-2.0886,-2.1884,-2.2437,-2.282,-2.322,-2.3743,-2.4079,-2.3898,-2.4718,-2.5431,0.0,-2.618,-2.6758,-2.6758,-2.7129,-2.7418,-2.7418,-2.6704,-2.6098,-2.5736,-2.5893,-2.6265,-2.6896,-2.6476,-2.6469,-2.7105,-2.6689,-2.6418,-2.6418,-2.6418,-2.6336,-2.6191,-2.5489,-2.5049,-2.4837,-2.4136,-2.3794,-2.3794,-2.3794,-2.3551,-2.3063,-2.2556,-2.2274,-2.2125,-2.2125,-2.2076,-2.1962,-2.1962,-2.1962,-2.1743,-2.004,-1.9395,-1.9395,-1.9395,-1.9395,-1.9395,-1.9395,-1.9395,-1.9395,-1.9395,-1.9395,-1.9395,-1.9395,-1.9395,-1.9395,-1.9395,-1.9395,-1.9395,-1.9395,-1.9395,-1.9395,-1.9395,-1.9395,-1.9395,-1.9395,-1.9395,-1.9395,-1.9395,-1.954,-1.9591,-1.9424,-1.9395,-1.9395,-1.9395,-1.9395,-1.9395,-1.9395,-1.8917,-1.8619,-1.8619,-1.8619,-1.8619,-1.8619,-1.8117,-1.7824,-1.7824,-1.8075,-1.8215,-1.8215,-1.869,-1.8987,-1.9094,-1.9441,-1.9644,-1.9759,-2.0328,-2.0119,-2.0675,0.0,0.0,-2.173,-2.1967,-2.2345,-2.3344,-2.3884,-2.4184,-2.4121,-2.4966,-2.5493,-2.4857,-2.5647,-2.6426,-2.6543,-2.6914,-2.7197,-2.7197,-2.7568,-2.7868,-2.7868,-2.8132,-2.82,-2.7897,-2.7946,-2.8014,-2.8014,-2.8014,-2.8014,-2.8014,-2.8184,-2.8291,-2.8291,-2.8291,-2.8211,-2.8014,-2.7141,-2.6581,-2.6318,-2.5471,-2.5049,-2.5022,-2.4691,-2.4552,-2.4525,-2.4192,-2.4025,-2.3933,-2.3933,-2.3886,-2.3794,-2.3794,-2.3794,-2.3543,-2.1401,-2.0407,-2.0104,-1.9764,-1.9649,-1.9649,-1.9649,-1.9649,-1.9649,-1.9649,-1.9649,-1.9649,-1.9649,-1.9649,-1.9649,-1.9649,-1.9649,-1.9649,-1.9649,-1.9649,-1.9649,-1.9649,-1.9649,-1.9649,-1.9649,-1.9649,-1.9649,-1.9649,-1.9815,-1.9873,-1.9678,-1.9649,-1.962,-1.9511,-1.9504,-1.9504,-1.9504,-1.9453,-1.9482,-1.9626,-1.9562,-1.954,-1.9649,-1.9649,-1.9649,-1.9649,-1.9902,-2.004,-2.004,-2.0587,-2.073,-2.0536,-2.1003,-2.1089,-2.0838,-2.1089,-2.1211,0.0,0.0,-2.1931,-2.382,-2.3914,-2.3801,-2.4826,-2.5343,-2.565,-2.5616,-2.5674,-2.5845,-2.6264,-2.6377,-2.6523,-2.6934,-2.7363,-2.7673,-2.7673,-2.8034,-2.8271,-2.8271,-2.8281,-2.8291,0.0,-2.8281,-2.8291,-2.8291,-2.8291,-2.8291,-2.8291,-2.8291,-2.8291,-2.8291,-2.8291,-2.8291,-2.8291,-2.8264,-2.8237,-2.8211,-2.8184,-2.8147,-2.8121,-2.6934,-2.6418,-2.6354,-2.5177,-2.4533,-2.4283,-2.4283,-2.4081,-2.3794,-2.3794,-2.3794,-2.3794,-2.371,-2.2978,-2.1851,-2.0666,-2.027,-2.027,-2.027,-2.027,-2.027,-2.027,-2.027,-2.027,-2.027,-2.027,-2.027,-2.027,-2.027,-2.027,-2.027,-2.027,-2.027,-2.027,-2.027,-2.027,-2.027,-2.027,-2.027,-2.027,-2.027,-2.027,-2.027,-2.027,-2.0162,-1.9844,-1.9786,-1.9786,-1.9786,-1.9562,-1.9649,-2.0213,-1.9953,-1.9931,-2.0241,-2.027,-2.027,-2.027,-2.0522,-2.0658,-2.0658,-2.0996,-2.1182,-2.1182,-2.1182,-2.1182,-2.1182,-2.1211,-2.1211,0.0,0.0,-2.4046,-2.4703,-2.4938,-2.5078,-2.5411,-2.561,-2.5796,-2.6113,-2.6172,-2.6299,-2.6728,-2.7041,-2.7311,-2.7448,-2.7829,-2.8112,-2.8112,-2.8203,-2.8291,-2.8291,-2.8291,0.0,0.0,0.0,0.0,-2.8291,-2.8291,-2.8291,-2.8291,-2.8291,-2.8291,-2.8291,-2.8291,-2.8291,-2.8291,-2.8291,-2.8291,-2.8291,-2.8291,-2.8291,-2.8291,-2.7879,-2.7682,-2.7682,-2.7259,-2.7033,-2.6952,-2.6952,-2.6898,-2.678,-2.678,-2.678,-2.6699,-2.5899,-2.5351,-2.4799,-2.3195,-2.2633,-2.2633,-2.2633,-2.2633,-2.2633,-2.2633,-2.2083,-2.1488,-2.1488,-2.0924,-2.0299,-2.0299,-2.0299,-2.0299,-2.0299,-2.0299,-2.0299,-2.0299,-2.0299,-2.0299,-2.0299,-2.0299,-2.0299,-2.0299,-2.0443,-2.0579,-2.0579,-2.0213,-1.9931,-1.9809,-1.9649,-1.9533,-1.9533,-1.9453,-1.954,-1.9931,-1.9866,-1.9924,-2.027,-2.0299,-2.0299,-2.0299,-2.0551,-2.0687,-2.0687,-2.1024,-2.1211,-2.1211,-2.1211,-2.1211,-2.1211,-2.1211,-2.1211,0.0,-2.5074,-2.5303,-2.5303,-2.5503,-2.5693,-2.5693,-2.5835,-2.6055,-2.6328,-2.6504,-2.6738,-2.7168,-2.7506,-2.7741,-2.7888,-2.8142,-2.8291,-2.8291,-2.8291,-2.8291,-2.8291,-2.8291,0.0,0.0,0.0,0.0,-2.8291,-2.8291,-2.8291,-2.8291,-2.8291,-2.8291,-2.8291,-2.8291,-2.8291,-2.8291,-2.8291,-2.8291,-2.8291,-2.8291,-2.8291,-2.8291,-2.8291,-2.8291,-2.8291,-2.8291,-2.8291,-2.8291,-2.8291,-2.8291,-2.8291,-2.8291,-2.8291,-2.8211,-2.7439,-2.7133,-2.6853,-2.4829,-2.4136,-2.4136,-2.4136,-2.4136,-2.4136,-2.4136,-2.3615,-2.3015,-2.3015,-2.2479,-2.1864,-2.1864,-2.1864,-2.1864,-2.1864,-2.1864,-2.1864,-2.1864,-2.1864,-2.1864,-2.1864,-2.1864,-2.1864,-2.1864,-2.2027,-2.214,-2.214,-2.1722,-2.1074,-2.0097,-1.9902,-1.9844,-1.9844,-1.9678,-1.9735,-2.0248,-2.0104,-2.0097,-2.0414,-2.0565,-2.0558,-2.0443,-2.0723,-2.0874,-2.0874,-2.1089,-2.1211,-2.1211,-2.1211,-2.1211,-2.1211,-2.1211,-2.1211,-2.5601,-2.5693,-2.5693,-2.5693,-2.5693,-2.5718,-2.5713,-2.6094,-2.6396,-2.647,-2.6768,-2.7178,0.0,0.0,-2.7858,-2.8232,-2.8291,-2.8291,-2.8291,-2.8291,-2.8291,0.0,0.0,0.0,0.0,0.0,0.0,-2.8291,0.0,-2.8291,-2.8291,-2.8291,-2.8291,-2.8291,-2.8291,-2.8291,-2.8291,-2.8291,-2.8291,-2.8291,-2.8291,-2.8291,-2.8291,-2.8291,-2.8291,-2.8291,-2.8291,-2.8291,-2.8291,-2.8291,-2.8291,-2.8291,-2.8291,-2.8291,-2.8291,-2.8291,-2.8291,-2.7977,-2.5672,-2.4884,-2.4884,-2.4884,-2.4884,-2.4884,-2.4884,-2.4829,-2.4782,-2.4782,-2.4754,-2.4699,-2.4699,-2.4699,-2.4699,-2.4699,-2.4699,-2.4699,-2.4699,-2.4699,-2.4699,-2.4699,-2.4699,-2.4699,-2.4699,-2.4699,-2.4699,-2.4699,-2.4478,-2.3363,-2.0752,-2.0637,-2.0745,-2.0687,-2.0184,-2.0191,-2.1089,-2.0651,-2.0443,-2.0716,-2.1024,-2.106,-2.0745,-2.1024,-2.1211,-2.1211,-2.1211,-2.1211,-2.1211,-2.1211,-2.1211,-2.1211,-2.1211,-2.1211,-2.5679,-2.5693,-2.5693,-2.5693,-2.5693,-2.5796,-2.6143,-2.6309,-2.6572,-2.7233,-2.7448,-2.7653,0.0,0.0,0.0,-2.8271,-2.8291,0.0,-2.8291,-2.8291,0.0,0.0,0.0,-2.8291,-2.8291,-2.8291,0.0,0.0,-2.8291,-2.8291,-2.8291,-2.8291,-2.8291,-2.8291,-2.8291,-2.8291,-2.8291,-2.8291,-2.8291,-2.8291,-2.8291,-2.8291,-2.8291,-2.8291,-2.8291,-2.8291,-2.8291,-2.8291,-2.8291,-2.8291,-2.8291,-2.8291,-2.8291,-2.8291,-2.8291,-2.8291,-2.8291,-2.8211,-2.7592,-2.7367,-2.7367,-2.7367,-2.7367,-2.7367,-2.7367,-2.6762,-2.6045,-2.6045,-2.5397,-2.4699,-2.4699,-2.4699,-2.4699,-2.4699,-2.4699,-2.4699,-2.4699,-2.4699,-2.4699,-2.4699,-2.4699,-2.4699,-2.4699,-2.4699,-2.4699,-2.4699,-2.4644,-2.395,-2.2176,-2.1815,-2.1402,-2.05,-2.027,-2.0357,-2.078,-2.0694,-2.073,-2.1053,-2.1146,-2.1153,-2.1089,-2.1146,-2.1211,-2.1211,-2.1211,-2.1211,-2.1211,-2.1211,-2.1211,-2.1211,-2.1211,-2.1211,-2.5693,-2.5693,-2.5693,-2.5693,-2.5693,-2.5825,-2.6289,-2.6533,-2.6855,-2.7555,-2.7839,0.0,0.0,0.0,0.0,0.0,0.0,0.0,-2.8291,-2.8291,-2.8291,0.0,-2.8291,0.0,-2.8291,-2.8291,-2.8291,0.0,-2.8291,-2.8291,-2.8291,-2.8291,-2.8291,-2.8291,-2.8291,-2.8291,-2.8291,-2.8291,-2.8291,-2.8291,-2.8291,-2.8291,-2.8291,-2.8291,-2.8291,-2.8291,0.0,-2.8291,-2.8291,-2.8291,-2.8291,-2.8291,-2.8291,-2.8291,-2.8291,-2.8291,-2.8291,-2.8291,-2.8291,-2.8291,-2.8291,-2.8291,-2.8291,-2.8291,-2.8291,-2.7826,-2.7295,-2.7295,-2.6789,-2.6282,-2.6282,-2.6282,-2.6282,-2.6282,-2.6282,-2.6282,-2.6282,-2.6282,-2.6282,-2.6282,-2.6282,-2.6282,-2.6282,-2.6282,-2.6282,-2.6282,-2.6282,-2.579,-2.4439,-2.3659,-2.2978,-2.231,-2.1644,-2.1402,-2.168,-2.1081,-2.078,-2.0967,-2.1117,-2.1117,-2.0996,-2.1117,-2.1211,-2.1211,-2.1211,-2.1211,-2.1211,-2.1211,-2.1211,-2.1211,-2.1211,-2.1211,-2.5693,-2.5693,-2.5693,-2.5693,-2.5757,-2.5913,-2.6377,-2.6797,-2.7226,-2.7682,0.0,-2.8291,-2.8291,-2.8291,-2.8291,-2.8291,0.0,-2.8291,-2.8291,-2.8291,-2.8291,-2.8291,-2.8291,-2.8291,-2.8291,-2.8291,-2.8291,-2.8291,-2.8291,-2.8291,-2.8291,-2.8291,-2.8291,-2.8291,-2.8291,-2.8291,-2.8291,-2.8291,-2.8291,-2.8291,-2.8291,-2.8291,-2.8291,-2.8291,-2.8291,-2.8291,0.0,0.0,-2.8291,-2.8291,-2.8291,-2.8291,-2.8291,-2.8291,-2.8291,-2.8291,-2.8291,-2.8291,-2.8291,-2.8291,-2.8291,-2.8291,-2.8291,-2.8291,-2.8291,-2.8291,-2.8291,-2.8291,-2.8291,-2.8291,-2.8291,-2.8291,-2.8291,-2.8291,-2.8291,-2.8291,-2.8291,-2.8291,-2.8291,-2.8291,-2.8291,-2.8291,-2.8291,-2.8291,-2.8291,-2.8291,-2.8291,-2.7933,-2.688,-2.568,-2.4893,-2.4718,-2.3567,-2.291,-2.3199,-2.2006,-2.1216,-2.1216,-2.136,-2.131,-2.1031,-2.1139,-2.1211,-2.1211,-2.1211,-2.1211,-2.1211,-2.1211,-2.1211,-2.1211,-2.1211,-2.1211,-2.5693,-2.5693,-2.5693,-2.5693,-2.5981,-2.6387,-2.6807,-2.7246,0.0,0.0,0.0,-2.8291,-2.8291,-2.8291,0.0,-2.8291,0.0,0.0,0.0,0.0,-2.8291,0.0,0.0,0.0,0.0,0.0,0.0,0.0,0.0,-2.8291,-2.8291,-2.8291,-2.8291,-2.8291,-2.8291,-2.8291,-2.8291,-2.8291,-2.8291,-2.8291,-2.8291,-2.8291,-2.8291,-2.8291,-2.8291,-2.8291,-2.8291,0.0,-2.8291,-2.8291,-2.8291,-2.8291,-2.8291,-2.8291,-2.8291,-2.8291,-2.8291,-2.8291,-2.8291,-2.8291,-2.8291,-2.8291,-2.8291,-2.8291,-2.8291,-2.8291,-2.8291,-2.8291,-2.8291,-2.8291,-2.8291,-2.8291,-2.8291,-2.8291,-2.8291,-2.8291,-2.8291,-2.8291,-2.8291,-2.8291,-2.8291,-2.8291,-2.8291,-2.8291,-2.8291,-2.8291,-2.8291,-2.8211,-2.8014,-2.6934,-2.5826,-2.481,-2.4469,-2.4339,-2.4394,-2.4172,-2.3997,-2.3997,-2.3191,-2.2672,-2.2608,-2.1702,-2.1211,-2.1211,-2.1211,-2.1211,-2.1211,-2.1211,-2.1211,-2.1211,-2.1211,-2.1211,-2.5693,-2.5693,-2.5693,-2.5693,-2.604,-2.6494,-2.6914,0.0,0.0,0.0,0.0,-2.8291,-2.8291,0.0,0.0,0.0,0.0,0.0,0.0,0.0,0.0,0.0,0.0,0.0,0.0,0.0,0.0,0.0,0.0,-2.8291,-2.8291,-2.8291,-2.8291,-2.8291,-2.8291,-2.8291,-2.8291,-2.8291,-2.8291,-2.8291,-2.8291,-2.8291,-2.8291,-2.8291,-2.8291,-2.8291,-2.8291,0.0,-2.8291,-2.8291,-2.8291,-2.8291,-2.8291,-2.8291,-2.8291,-2.8291,-2.8291,-2.8291,-2.8291,-2.8291,-2.8291,-2.8291,-2.8291,-2.8291,-2.8291,-2.8291,-2.8291,-2.8291,-2.8291,-2.8291,-2.8291,-2.8291,-2.8291,-2.8291,-2.8291,-2.8291,-2.8291,-2.8291,-2.8291,-2.8291,-2.8291,-2.8291,-2.8291,-2.8291,-2.8291,-2.8291,-2.8291,-2.8291,-2.8291,-2.7789,-2.7205,-2.6644,-2.6009,-2.5653,-2.5653,-2.5058,-2.4699,-2.4699,-2.4181,-2.3874,-2.3874,-2.3331,-2.2749,-2.215,-2.215,-2.1816,-2.1211,-2.1211,-2.1211,-2.1211,-2.1386,-2.1459,-2.5693,-2.5693,-2.5693,-2.5693,-2.6108,-2.6611,-2.6943,-2.7422,0.0,0.0,-2.8291,-2.8291,-2.8291,0.0,0.0,0.0,0.0,0.0,0.0,0.0,0.0,0.0,0.0,0.0,0.0,0.0,0.0,0.0,0.0,0.0,-2.8291,-2.8291,-2.8291,-2.8291,-2.8291,-2.8291,-2.8291,-2.8291,-2.834,-2.8428,-2.8428,-2.8476,-2.8591,-2.8591,-2.8591,-2.8591,-2.8591,0.0,0.0,-2.8591,-2.8591,-2.8591,-2.8591,-2.8591,-2.8591,-2.8591,-2.8591,-2.8591,-2.8591,-2.8591,-2.8591,-2.8591,-2.8447,-2.8291,-2.8291,-2.8291,-2.8291,-2.8291,-2.8291,-2.8291,-2.8291,-2.8291,-2.8291,-2.8291,-2.8291,-2.8291,-2.8291,-2.8291,-2.8291,-2.8291,-2.8291,-2.8291,-2.8291,-2.8291,-2.8291,-2.8291,-2.8291,-2.8291,-2.8291,-2.8369,-2.8428,-2.8428,-2.7487,-2.6889,-2.6889,-2.6009,-2.548,-2.548,-2.5223,-2.5094,-2.5094,-2.4837,-2.4186,-2.3114,-2.3122,-2.2544,-2.1415,-2.1415,-2.1415,-2.1423,-2.1679,-2.1803,-2.5693,-2.5693,-2.5693,-2.5693,-2.6332,-2.6947,-2.6976,0.0,0.0,-2.8281,-2.8291,-2.8291,-2.8291,-2.8291,0.0,0.0,0.0,-2.8291,0.0,0.0,0.0,0.0,0.0,0.0,0.0,0.0,0.0,0.0,0.0,0.0,-2.8291,-2.8291,-2.8291,-2.8291,-2.8291,-2.8291,-2.8291,-2.8291,-2.8486,-2.883,-2.883,-2.9072,-2.9481,-2.9481,-2.9481,-2.9481,-2.9481,0.0,0.0,-2.9481,-2.9481,-2.9481,-2.9481,-2.9481,-2.9481,-2.9481,-2.9481,-2.9481,-2.9481,-2.9481,-2.9481,-2.9481,-2.8953,-2.8291,-2.8291,-2.8291,-2.8291,-2.8291,-2.8291,-2.8291,-2.8291,-2.8291,-2.8291,-2.8291,-2.8291,-2.8291,-2.8291,-2.8291,-2.8291,-2.8291,-2.8291,-2.8291,-2.8291,-2.8291,-2.8291,-2.8291,-2.8291,-2.8291,-2.8291,-2.8623,-2.883,-2.883,-2.8408,-2.8121,-2.8121,-2.804,-2.796,-2.796,-2.6934,-2.6327,-2.6327,-2.5287,-2.4312,-2.348,-2.3459,-2.3024,-2.2126,-2.2126,-2.2126,-2.2126,-2.2125,-2.214,-2.5693,-2.5693,-2.5693,-2.5693,-2.6167,-2.6699,-2.6928,0.0,0.0,-2.8242,-2.8291,-2.8291,-2.8291,-2.8291,-2.8291,0.0,0.0,0.0,0.0,0.0,0.0,0.0,0.0,0.0,0.0,0.0,0.0,0.0,0.0,0.0,-2.8291,-2.8291,-2.8291,-2.8291,-2.8291,-2.8418,-2.8672,-2.8672,-2.8887,-2.9307,-2.9307,-2.9432,-2.9598,-2.9598,-2.9598,-2.9598,-2.9598,0.0,0.0,-2.9598,-2.9598,-2.9598,-2.9598,-2.9598,-2.9598,-2.9598,-2.9598,-2.9598,-2.9598,-2.9598,-2.9598,-2.9598,-2.9364,-2.909,-2.909,-2.909,-2.909,-2.909,-2.909,-2.909,-2.909,-2.909,-2.909,-2.909,-2.909,-2.909,-2.909,-2.909,-2.909,-2.909,-2.909,-2.909,-2.909,-2.909,-2.909,-2.909,-2.909,-2.909,-2.909,-2.9209,-2.9307,-2.9307,-2.9188,-2.909,-2.909,-2.909,-2.909,-2.909,-2.863,-2.8012,-2.7195,-2.6701,-2.5603,-2.3787,-2.3729,-2.3228,-2.2214,-2.2214,-2.2214,-2.2184,-2.2367,-2.2447,-2.5679,-2.5693,-2.5693,-2.5693,-2.604,-2.6465,0.0,0.0,-2.778,-2.8073,-2.8203,-2.8291,-2.8291,-2.8291,-2.8291,-2.8291,0.0,-2.8291,0.0,0.0,0.0,0.0,0.0,0.0,0.0,0.0,0.0,0.0,0.0,0.0,0.0,-2.8291,-2.8291,-2.8291,-2.8418,-2.8613,-2.8889,-2.9053,-2.9326,-2.9784,-2.9784,-2.9852,-2.9989,-2.9989,-2.9989,-2.9989,0.0,0.0,0.0,-2.9989,-2.9989,-2.9989,-2.9989,-2.9989,-2.9989,-2.9989,-2.9989,-2.9989,-2.9989,-2.9989,-2.9989,-2.9989,-2.9989,-2.9989,-2.9989,-2.9803,-2.9598,-2.9598,-2.9598,-2.9598,-2.9598,-2.9598,-2.9598,-2.9598,-2.9598,-2.9598,-2.9598,-2.9598,-2.9598,-2.9598,-2.9598,-2.9598,-2.9598,-2.9598,-2.9598,-2.9598,-2.9598,-2.9598,-2.9598,-2.9706,-2.9784,-2.9784,-2.9911,-2.9712,-2.9076,-2.9019,-2.8841,-2.8465,-2.8437,-2.8031,-2.7082,-2.7025,-2.6099,-2.4085,-2.4055,-2.353,-2.2454,-2.2454,-2.2454,-2.2462,-2.2667,-2.2762,-2.5591,-2.5693,-2.5693,-2.5693,-2.604,-2.6387,0.0,0.0,-2.7692,-2.7702,-2.8024,-2.8291,-2.8291,-2.8291,-2.8291,-2.8291,-2.8291,0.0,0.0,0.0,0.0,0.0,0.0,0.0,0.0,0.0,0.0,0.0,0.0,0.0,0.0,-2.8291,-2.8291,-2.8291,-2.8701,-2.8889,-2.8889,-2.9373,-2.9803,-3.0185,-3.0185,-3.043,-3.0879,-3.0879,-3.0879,0.0,0.0,0.0,0.0,-3.0879,-3.0879,-3.0879,-3.0879,-3.0879,-3.0879,-3.0879,-3.0879,-3.0879,-3.0879,-3.0879,-3.0879,-3.0879,-3.0879,-3.0879,-3.0879,-3.0292,-2.9598,-2.9598,-2.9598,-2.9598,-2.9598,-2.9598,-2.9598,-2.9598,-2.9598,-2.9598,-2.9598,-2.9598,-2.9598,-2.9598,-2.9598,-2.9598,-2.9598,-2.9598,-2.9598,-2.9598,-2.9598,-2.9598,-2.9598,-2.996,-3.0185,-3.0185,-3.0605,-2.9988,-2.7821,-2.7605,-2.7082,-2.5828,-2.5741,-2.5741,-2.5712,-2.5712,-2.5315,-2.4411,-2.4389,-2.3955,-2.3098,-2.3098,-2.3098,-2.3098,-2.3098,-2.3106,-2.5591,-2.5693,-2.5693,-2.5693,-2.5815,-2.6001,-2.6328,0.0,-2.6988,-2.7575,-2.78,-2.7976,-2.8242,-2.8291,-2.8291,-2.8291,-2.8291,0.0,0.0,0.0,0.0,0.0,0.0,0.0,0.0,0.0,0.0,0.0,0.0,0.0,0.0,-2.8291,-2.8428,-2.8711,-2.882,-2.9199,-2.9785,-2.9932,-3.0225,-3.0674,-3.0674,-3.0752,-3.0889,-3.0889,0.0,0.0,0.0,0.0,0.0,-3.0889,-3.0889,-3.0889,-3.0889,-3.0889,-3.0889,-3.0889,-3.0889,-3.0889,-3.0889,-3.0889,-3.0889,-3.0889,-3.0889,-3.0889,-3.0889,-3.0693,-3.0497,-3.0497,-3.0497,-3.0497,-3.0497,-3.0497,-3.0497,-3.0497,-3.0497,-3.0497,-3.0497,-3.0497,-3.0497,-3.0497,-3.0497,-3.0497,-3.0497,-3.0497,-3.0497,-3.0497,-3.0497,-3.0497,-3.0497,-3.0596,-3.0674,-3.0674,-3.0003,-2.9242,-2.8563,-2.8476,-2.7948,-2.6683,-2.6594,-2.6205,-2.5334,-2.5304,-2.4725,-2.3532,-2.3509,-2.3375,-2.3106,-2.3106,-2.3106,-2.3106,-2.3106,-2.3106,0.0,-2.5693,-2.5693,-2.5693,-2.5693,0.0,0.0,0.0,-2.6607,-2.7275,-2.7585,-2.7819,-2.8239,-2.8291,-2.8291,-2.8291,0.0,0.0,0.0,0.0,0.0,0.0,0.0,0.0,0.0,0.0,0.0,0.0,0.0,0.0,0.0,-2.8291,-2.8564,-2.915,-2.917,-2.9502,-3.0185,-3.0371,-3.0605,-3.0889,-3.0889,-3.0889,-3.0889,-3.0889,0.0,0.0,0.0,0.0,0.0,-3.0889,-3.0889,-3.0889,-3.0889,-3.0889,-3.0889,-3.0889,-3.0889,-3.0889,-3.0889,-3.0889,-3.0889,-3.0889,-3.0889,-3.0889,-3.0889,-3.0889,-3.0889,-3.0889,-3.0889,-3.0889,-3.0889,-3.0889,-3.0889,-3.0889,-3.0889,-3.0889,-3.0889,-3.0889,-3.0889,-3.0889,-3.0889,-3.0889,-3.0889,-3.0889,-3.0889,-3.0889,-3.0889,-3.0889,-3.0889,-3.0889,-3.0889,-3.0889,-2.9687,-2.8712,-2.8206,-2.7748,-2.6905,-2.5615,-2.5523,-2.5156,-2.4363,-2.434,-2.3938,-2.3106,-2.3106,-2.3106,-2.3106,-2.3106,-2.3106,-2.3106,-2.3106,-2.3106,0.0,0.0,0.0,0.0,0.0,0.0,0.0,0.0,0.0,-2.6898,-2.736,-2.778,-2.8203,-2.8291,-2.8291,0.0,0.0,0.0,0.0,0.0,0.0,0.0,0.0,0.0,0.0,0.0,0.0,0.0,0.0,0.0,0.0,-2.8291,-2.8691,-2.9569,-2.9598,-2.9813,-3.0244,-3.0674,-3.0889,-3.0889,-3.0889,-3.0889,-3.0889,-3.0889,0.0,0.0,0.0,0.0,0.0,-3.0889,-3.0889,-3.0889,-3.0889,-3.0889,-3.0889,-3.0889,-3.0889,-3.0889,-3.0889,-3.0889,-3.0889,-3.0889,-3.0889,-3.0889,-3.0889,-3.0889,-3.0889,-3.0889,-3.0889,-3.0889,-3.0889,-3.0889,-3.0889,-3.0889,-3.0889,-3.0889,-3.0889,-3.0889,-3.0889,-3.0889,-3.0889,-3.0889,-3.0889,-3.0889,-3.0889,-3.0889,-3.0889,-3.0889,-3.0889,-3.0889,-3.0859,-3.0772,-2.9569,-2.8265,-2.6983,-2.5776,-2.4517,-2.3168,-2.3106,-2.3106,-2.3106,-2.3106,-2.3106,-2.3106,-2.3106,-2.3106,-2.3106,-2.3106,-2.3106,-2.3106,-2.3106,-2.3106,-2.5591,0.0,-2.5693,-2.5693,-2.5693,-2.5693,0.0,0.0,0.0,0.0,0.0,0.0,0.0,0.0,0.0,0.0,0.0,0.0,0.0,0.0,0.0,0.0,0.0,0.0,0.0,0.0,0.0,0.0,0.0,0.0,0.0,-2.8291,-2.8691,-2.9569,-2.9598,-2.997,-3.0723,-3.084,-3.0889,-3.0889,-3.0889,-3.0889,-3.0889,-3.0889,0.0,0.0,0.0,0.0,-3.0889,-3.0889,-3.0889,-3.0889,-3.0889,-3.0889,-3.0889,-3.0889,-3.0889,-3.0889,-3.0889,-3.0889,-3.0889,-3.0889,-3.0889,-3.0889,-3.0889,-3.0889,-3.0889,-3.0889,-3.0889,-3.0889,-3.0889,-3.0889,-3.0889,-3.0889,-3.0889,-3.0889,-3.0889,-3.0889,-3.0889,-3.0889,-3.0889,-3.0889,-3.0889,-3.0889,-3.0889,-3.0889,-3.0889,-3.0889,-3.0889,-3.0889,-3.0518,-2.9471,-2.8215,-2.6922,-2.5654,-2.5286,-2.4517,-2.3168,-2.3106,-2.3106,-2.3106,-2.3106,-2.3106,-2.3106,-2.3106,-2.3106,-2.3106,-2.3106,-2.3106,-2.3106,-2.3106,-2.3106,-2.565,-2.5693,-2.5693,-2.5693,-2.5693,-2.5693,0.0,0.0,0.0,0.0,0.0,0.0,0.0,0.0,0.0,0.0,0.0,0.0,0.0,0.0,0.0,0.0,0.0,0.0,0.0,0.0,0.0,0.0,0.0,0.0,0.0,-2.8291,-2.8691,-2.9569,-2.9598,-3.0028,-3.0879,-3.0889,-3.0889,-3.0889,-3.0889,-3.0889,-3.0889,-3.0889,-3.0889,0.0,0.0,0.0,-3.0889,-3.0889,-3.0889,-3.0889,-3.0889,-3.0889,-3.0889,-3.0889,-3.0889,-3.0889,-3.0889,-3.0889,-3.0889,-3.0889,-3.0889,-3.0889,-3.0889,-3.0889,-3.0889,-3.0889,-3.0889,-3.0889,-3.0889,-3.0889,-3.0889,-3.0889,-3.0889,-3.0889,-3.0889,-3.0889,-3.0889,-3.0889,-3.0889,-3.0889,-3.0889,-3.0889,-3.0889,-3.0889,-3.0889,-3.0889,-3.0889,-3.0889,-3.0401,-2.9048,-2.7748,-2.649,-2.5225,-2.4548,-2.3876,-2.3137,-2.3106,-2.3106,-2.3106,-2.3106,-2.3106,-2.3106,-2.3106,-2.3106,-2.3106,-2.3106,-2.3106,-2.3106,-2.3106,-2.3106,-2.5693,-2.5693,-2.5693,-2.5693,-2.5693,-2.5693,-2.5693,0.0,0.0,0.0,0.0,0.0,0.0,0.0,0.0,0.0,0.0,0.0,0.0,0.0,0.0,0.0,0.0,0.0,0.0,0.0,0.0,0.0,0.0,0.0,0.0,-2.8291,-2.8679,-2.9471,-2.9559,-2.9989,-3.0781,-3.0859,-3.0889,-3.0889,-3.0889,-3.0889,-3.0889,-3.0889,-3.0889,0.0,0.0,0.0,-3.0889,-3.0889,-3.0889,-3.0889,-3.0889,-3.0889,-3.0889,-3.0889,-3.0889,-3.0889,-3.0889,-3.0889,-3.0889,-3.0889,-3.0889,-3.0889,-3.0889,-3.0889,-3.0889,-3.0889,-3.0889,-3.0889,-3.0889,-3.0889,-3.0889,-3.0889,-3.0889,-3.0889,-3.0889,-3.0889,-3.0889,-3.0889,-3.0889,-3.0889,-3.0889,-3.0889,-3.0889,-3.0889,-3.0889,-3.0889,-3.0889,-3.0889,-3.0304,-2.8772,-2.7649,-2.6412,-2.4918,-2.3752,-2.3106,-2.3106,-2.3106,-2.3106,-2.3106,-2.3106,-2.3106,-2.3106,-2.3106,-2.3106,-2.3106,-2.3106,-2.3106,-2.3106,-2.3106,-2.3106,-2.5693,-2.5693,-2.5693,-2.5693,-2.5693,-2.5693,-2.5693,0.0,0.0,0.0,0.0,0.0,0.0,0.0,0.0,0.0,0.0,0.0,0.0,0.0,0.0,0.0,0.0,0.0,0.0,0.0,0.0,0.0,0.0,0.0,0.0,-2.8291,-2.8516,-2.9004,-2.9403,-2.9833,-3.0303,-3.0693,-3.0889,-3.0889,-3.0889,-3.0889,-3.0889,-3.0889,-3.0889,0.0,0.0,-3.0889,-3.0889,-3.0889,-3.0889,-3.0889,-3.0889,-3.0889,-3.0889,-3.0889,-3.0889,-3.0889,-3.0889,-3.0889,-3.0889,-3.0889,-3.0889,-3.0889,-3.0889,-3.0889,-3.0889,-3.0889,-3.0889,-3.0889,-3.0889,-3.0889,-3.0889,-3.0889,-3.0889,-3.0889,-3.0889,-3.0889,-3.0889,-3.0889,-3.0889,-3.0889,-3.0889,-3.0889,-3.0889,-3.0889,-3.0889,-3.0889,-3.0889,-3.0889,-2.9981,-2.7555,-2.7134,-2.6003,-2.3596,-2.323,-2.3106,-2.3106,-2.3106,-2.3106,-2.3106,-2.3106,-2.3106,-2.3106,-2.3106,-2.3106,-2.3106,-2.3106,-2.3106,-2.3106,-2.3106,-2.3106,-2.5693,-2.5693,-2.5693,-2.5693,-2.5693,-2.5776,0.0,0.0,0.0,0.0,0.0,0.0,0.0,0.0,0.0,0.0,0.0,0.0,0.0,0.0,0.0,0.0,0.0,0.0,0.0,0.0,0.0,0.0,0.0,0.0,0.0,0.0,-2.8486,-2.8879,-2.9373,-2.9794,-3.0195,-3.0664,-3.0889,-3.0889,-3.0889,-3.0889,-3.0889,-3.0889,-3.0889,-3.0889,0.0,-3.0889,-3.0889,-3.0889,-3.0889,-3.0889,-3.0889,-3.0889,-3.0889,-3.0889,-3.0889,-3.0889,-3.0889,-3.0889,-3.0889,-3.0889,-3.0889,-3.0889,-3.0889,-3.0889,-3.0889,-3.0889,-3.0889,-3.0889,-3.0889,-3.0889,-3.0889,-3.0889,-3.0889,-3.0889,-3.0889,-3.0889,-3.0889,-3.0889,-3.0889,-3.0889,-3.0889,-3.0889,-3.0889,-3.0889,-3.0889,-3.0889,-3.0889,-3.0274,-2.9087,-2.7194,-2.6377,-2.5186,-2.3261,-2.3106,-2.3106,-2.3106,-2.3106,-2.3106,-2.3106,-2.3106,-2.3106,-2.3106,-2.3106,-2.3106,-2.3106,-2.3106,-2.3106,-2.3106,-2.3106,-2.3106,-2.5693,-2.5693,-2.5693,-2.5693,0.0,0.0,0.0,0.0,0.0,0.0,0.0,0.0,0.0,0.0,0.0,0.0,0.0,0.0,0.0,0.0,0.0,0.0,0.0,0.0,0.0,0.0,0.0,0.0,0.0,0.0,0.0,0.0,-2.8437,-2.876,-2.9189,-2.9647,-3.0049,-3.0498,-3.0781,-3.0889,-3.0889,-3.0889,-3.0889,-3.0889,-3.0889,-3.0889,-3.0889,-3.0889,-3.0889,-3.0889,-3.0889,-3.0889,-3.0889,-3.0889,-3.0889,-3.0889,-3.0889,-3.0889,-3.0889,-3.0889,-3.0889,-3.0889,-3.0889,-3.0889,-3.0889,-3.0889,-3.0889,-3.0889,-3.0889,-3.0889,-3.0889,-3.0889,-3.0889,-3.0889,-3.0889,-3.0889,-3.0889,-3.0889,-3.0889,-3.0889,-3.0889,-3.0889,-3.0889,-3.0889,-3.0889,-3.0889,-3.0889,-3.0889,-3.0889,-2.9991,-2.8751,-2.7164,-2.6133,-2.4887,-2.323,-2.3106,-2.3106,-2.3106,-2.3106,-2.3106,-2.3106,-2.3106,-2.3106,-2.3106,-2.3106,-2.3106,-2.3106,-2.3106,-2.3106,-2.3106,-2.3106,-2.3106,-2.5693,-2.5693,-2.5693,-2.5693,-2.543,0.0,-2.6216,-2.6406,0.0,-2.7526,0.0,0.0,0.0,0.0,0.0,0.0,0.0,0.0,0.0,0.0,0.0,0.0,0.0,0.0,0.0,0.0,0.0,0.0,0.0,0.0,0.0,0.0,0.0,-2.834,-2.874,-2.917,-2.9637,-3.0039,-3.0459,-3.0889,-3.0889,-3.0889,-3.0889,-3.0889,-3.0889,-3.0889,-3.0889,-3.0889,-3.0889,-3.0889,-3.0889,-3.0889,-3.0889,-3.0889,-3.0889,-3.0889,-3.0889,-3.0889,-3.0889,-3.0889,-3.0889,-3.0889,-3.0889,-3.0889,-3.0889,-3.0889,-3.0889,-3.0889,-3.0889,-3.0889,-3.0889,-3.0889,-3.0889,-3.0889,-3.0889,-3.0889,-3.0889,-3.0889,-3.0889,-3.0889,-3.0889,-3.0889,-3.0889,-3.0889,-3.0889,-3.0889,-3.0889,-3.0889,-3.0889,-3.083,-2.9795,-2.7263,-2.6922,-2.5829,-2.3324,-2.3106,-2.3106,-2.3106,-2.3106,-2.3106,-2.3106,-2.3106,-2.3106,-2.3106,-2.3106,-2.3106,-2.3106,-2.3106,-2.3106,-2.3106,-2.3106,-2.3106,-2.5693,-2.5693,-2.565,-2.5391,-2.5219,0.0,0.0,-2.6777,-2.7021,-2.7881,-2.8184,0.0,0.0,0.0,0.0,0.0,0.0,0.0,0.0,0.0,0.0,0.0,0.0,0.0,0.0,0.0,0.0,0.0,0.0,0.0,0.0,0.0,0.0,-2.8291,-2.8701,-2.9131,-2.9598,-2.999,-3.043,-3.0889,-3.0889,-3.0889,-3.0889,-3.0889,-3.0889,-3.0889,-3.0889,-3.0889,-3.0889,-3.0889,-3.0889,-3.0889,-3.0889,-3.0889,-3.0889,-3.0889,-3.0889,-3.0889,-3.0889,-3.0889,-3.0889,-3.0889,-3.0889,-3.0889,-3.0889,-3.0889,-3.0889,-3.0889,-3.0889,-3.0889,-3.0889,-3.0889,-3.0889,-3.0889,-3.0889,-3.0889,-3.0889,-3.0889,-3.0889,-3.0889,-3.0889,-3.0889,-3.0889,-3.0889,-3.0889,-3.0889,-3.0889,-3.0889,-3.0889,-3.0177,-2.8968,-2.7194,-2.5554,-2.4178,-2.3168,-2.3106,-2.3106,-2.3106,-2.3106,-2.3106,-2.3106,-2.3106,-2.3106,-2.3106,-2.3106,-2.3106,-2.3106,-2.3106,-2.3106,-2.3106,-2.3106,-2.3106,-2.5693,-2.5693,-2.561,-2.52,0.0,0.0,-2.6582,-2.6816,-2.71,-2.8086,-2.8291,0.0,0.0,0.0,0.0,0.0,0.0,0.0,0.0,0.0,0.0,0.0,0.0,0.0,0.0,0.0,0.0,0.0,0.0,0.0,0.0,0.0,0.0,0.0,-2.8574,-2.8935,-2.9365,-2.9813,-3.0225,-3.0674,-3.082,-3.0889,-3.0889,-3.0889,-3.0889,-3.0889,-3.0889,-3.0889,-3.0889,-3.0889,-3.0889,-3.0889,-3.0889,-3.0889,-3.0889,-3.0889,-3.0889,-3.0889,-3.0889,-3.0889,-3.0889,-3.0889,-3.0889,-3.0889,-3.0889,-3.0889,-3.0889,-3.0889,-3.0889,-3.0889,-3.0889,-3.0889,-3.0889,-3.0889,-3.0889,-3.0889,-3.0889,-3.0889,-3.0889,-3.0889,-3.0889,-3.0889,-3.0889,-3.0889,-3.0889,-3.0889,-3.0889,-3.0889,-3.0889,-2.9717,-2.8265,-2.6589,-2.4425,-2.3106,-2.3106,-2.3106,-2.3106,-2.3106,-2.3106,-2.3106,-2.3106,-2.3106,-2.3106,-2.3106,-2.3106,-2.3106,-2.3106,-2.3215,-2.3267,-2.3267,-2.3369,-2.342,-2.5693,-2.5693,-2.561,0.0,0.0,0.0,-2.6289,-2.6396,-2.6758,-2.8037,0.0,0.0,0.0,0.0,0.0,0.0,0.0,0.0,0.0,0.0,0.0,0.0,0.0,0.0,0.0,0.0,0.0,0.0,0.0,0.0,0.0,0.0,0.0,0.0,-2.8291,-2.8496,-2.8889,-2.9383,-2.9813,-3.0205,-3.0674,-3.0889,-3.0889,-3.0889,-3.0889,-3.0889,-3.0889,-3.0889,-3.0889,-3.0889,-3.0889,-3.0889,-3.0889,-3.0889,-3.0889,-3.0889,-3.0889,-3.0889,-3.0889,-3.0889,-3.0889,-3.0889,-3.0889,-3.0889,-3.0889,-3.0889,-3.0889,-3.0889,-3.0889,-3.0889,-3.0889,-3.0889,-3.0889,-3.0889,-3.0889,-3.0889,-3.0889,-3.0889,-3.0889,-3.0889,-3.0889,-3.0889,-3.0889,-3.0889,-3.0889,-3.0889,-3.0889,-3.0889,-3.0859,-2.9687,-2.7898,-2.5378,-2.3907,-2.3106,-2.3106,-2.3106,-2.3106,-2.3113,-2.3113,-2.3113,-2.3106,-2.3106,-2.3106,-2.3113,-2.3113,-2.312,-2.312,-2.3442,-2.3596,-2.361,-2.3965,-2.4118,-2.5693,-2.5693,0.0,-2.52,0.0,0.0,0.0,-2.6621,0.0,0.0,0.0,0.0,0.0,0.0,0.0,0.0,0.0,0.0,0.0,0.0,0.0,0.0,0.0,0.0,0.0,0.0,0.0,0.0,0.0,0.0,0.0,0.0,0.0,0.0,-2.8291,-2.8496,-2.8889,-2.9383,-2.9813,-3.0205,-3.0674,-3.0889,-3.0889,-3.0889,-3.0889,-3.0889,-3.0889,-3.0889,-3.0889,-3.0889,-3.0889,-3.0889,-3.0889,-3.0889,-3.0889,-3.0889,-3.0889,-3.0889,-3.0889,-3.0889,-3.0889,-3.0889,-3.0889,-3.0889,-3.0889,-3.0889,-3.0889,-3.0889,-3.0889,-3.0889,-3.0889,-3.0889,-3.0889,-3.0889,-3.0889,-3.0889,-3.0889,-3.0889,-3.0889,-3.0889,-3.0889,-3.0889,-3.0889,-3.0889,-3.0889,-3.0889,-3.0089,-2.9176,-2.8253,-2.7034,-2.5942,-2.5194,-2.3907,-2.3106,-2.3106,-2.3106,-2.3208,-2.3435,-2.3449,-2.3347,-2.312,-2.3106,-2.3215,-2.3449,-2.3449,-2.3567,-2.3793,-2.3888,-2.394,-2.394,-2.4035,-2.4118,-2.5693,-2.5693,0.0,-2.52,-2.5757,-2.65,0.0,0.0,0.0,0.0,0.0,0.0,0.0,0.0,0.0,0.0,0.0,0.0,0.0,0.0,0.0,0.0,0.0,0.0,0.0,0.0,0.0,0.0,0.0,0.0,0.0,-2.8291,-2.8291,-2.8291,-2.8291,-2.8418,-2.8672,-2.9295,-2.9725,-2.9961,-3.0596,-3.0889,-3.0889,-3.0889,-3.0889,-3.0889,-3.0889,-3.0889,-3.0889,-3.0889,-3.0889,-3.0889,-3.0889,-3.0889,-3.0889,-3.0889,-3.0889,-3.0889,-3.0889,-3.0889,-3.0889,-3.0889,-3.0889,-3.0889,-3.0889,-3.0889,-3.0889,-3.0889,-3.0889,-3.0889,-3.0889,-3.0889,-3.0889,-3.0889,-3.0889,-3.0889,-3.0889,-3.0889,-3.0889,-3.0889,-3.0889,-3.0889,-3.0889,-3.0889,-3.0889,-3.0889,-2.9746,-2.8265,-2.6468,-2.5562,-2.4887,-2.4363,-2.3565,-2.3164,-2.3288,-2.3303,-2.3442,-2.3771,-2.3793,-2.3698,-2.3501,-2.3493,-2.3588,-2.3786,-2.3793,-2.3888,-2.4118,-2.4243,-2.4309,-2.4309,-2.4441,-2.4499,-2.5693,0.0,0.0,-2.5297,0.0,0.0,0.0,0.0,0.0,0.0,0.0,0.0,0.0,0.0,0.0,0.0,0.0,0.0,0.0,0.0,0.0,0.0,0.0,0.0,0.0,0.0,0.0,0.0,0.0,0.0,0.0,-2.8291,-2.8291,-2.8291,-2.8291,-2.8291,-2.8291,-2.9168,-2.9598,-2.9608,-3.0469,-3.0889,-3.0889,-3.0889,-3.0889,-3.0889,-3.0889,-3.0889,-3.0889,-3.0889,-3.0889,-3.0889,-3.0889,-3.0889,-3.0889,-3.0889,-3.0889,-3.0889,-3.0889,-3.0889,-3.0889,-3.0889,-3.0889,-3.0889,-3.0889,-3.0889,-3.0889,-3.0889,-3.0889,-3.0889,-3.0889,-3.0889,-3.0889,-3.0889,-3.0889,-3.0889,-3.0889,-3.0889,-3.0889,-3.0889,-3.0889,-3.0889,-3.0889,-3.0801,-3.0645,-3.0401,-2.9324,-2.7658,-2.5225,-2.4949,-2.4502,-2.3274,-2.3179,-2.3318,-2.3618,-2.364,-2.3779,-2.4108,-2.4162,-2.417,-2.4206,-2.4115,-2.4093,-2.413,-2.4162,-2.4177,-2.4206,-2.4499,-2.4646,-2.4653,-2.4954,-2.5093,-2.5693,-2.5478,0.0,0.0,0.0,0.0,0.0,0.0,0.0,0.0,0.0,0.0,0.0,0.0,0.0,0.0,0.0,0.0,0.0,0.0,0.0,0.0,0.0,0.0,0.0,0.0,0.0,0.0,0.0,0.0,-2.8291,-2.8291,-2.8291,-2.8291,-2.8291,-2.8291,-2.8291,-2.9168,-2.9598,0.0,-3.0469,-3.0889,-3.0889,-3.0889,-3.0889,-3.0889,-3.0889,-3.0889,-3.0889,-3.0889,-3.0889,-3.0889,-3.0889,-3.0889,-3.0889,-3.0889,-3.0889,-3.0889,-3.0889,-3.0889,-3.0889,-3.0889,-3.0889,-3.0889,-3.0889,-3.0889,-3.0889,-3.0889,-3.0889,-3.0889,-3.0889,-3.0889,-3.0889,-3.0889,-3.0889,-3.0889,-3.0889,-3.0889,-3.0889,-3.0889,-3.0889,-3.0889,-3.0889,-3.003,-2.8662,-2.665,-2.6103,-2.534,-2.3752,-2.3765,-2.3803,-2.3525,-2.372,-2.3903,-2.4009,-2.3976,-2.4155,-2.4477,-2.4499,-2.4617,-2.4873,-2.439,-2.4203,-2.4492,-2.4499,-2.4624,-2.488,-2.4954,-2.4983,-2.499,-2.5056,-2.5093,-2.5693,0.0,0.0,-2.6475,0.0,0.0,0.0,0.0,0.0,0.0,0.0,0.0,0.0,0.0,0.0,0.0,0.0,0.0,0.0,0.0,0.0,0.0,0.0,0.0,0.0,0.0,0.0,0.0,0.0,-2.8291,-2.8291,-2.8291,-2.8291,-2.8291,-2.8291,-2.8291,-2.8291,-2.9168,-2.9598,-2.9608,-3.0469,-3.0889,-3.0889,-3.0889,-3.0889,-3.0889,-3.0889,-3.0889,-3.0889,-3.0889,-3.0889,-3.0889,-3.0889,-3.0889,-3.0889,-3.0889,-3.0889,-3.0889,-3.0889,-3.0889,-3.0889,-3.0889,-3.0889,-3.0889,-3.0889,-3.0889,-3.0889,-3.0889,-3.0889,-3.0889,-3.0889,-3.0889,-3.0889,-3.0889,-3.0889,-3.0889,-3.0889,-3.0889,-3.0889,-3.0889,-3.0889,-3.0704,-3.0059,-2.8849,-2.7336,-2.5378,-2.5102,-2.4672,-2.3475,-2.3493,-2.3654,-2.3808,-2.4016,-2.4145,-2.4338,-2.4346,-2.4492,-2.4814,-2.4836,-2.491,-2.5086,-2.4763,-2.4661,-2.4836,-2.4836,-2.4917,-2.5093,-2.5093,-2.5093,-2.5093,-2.5093,-2.5093,-2.5693,0.0,-2.6098,-2.6811,0.0,0.0,0.0,0.0,0.0,0.0,0.0,0.0,0.0,0.0,0.0,0.0,0.0,0.0,0.0,0.0,0.0,0.0,0.0,0.0,0.0,0.0,0.0,0.0,0.0,-2.8291,-2.8291,-2.8291,-2.8291,-2.8291,-2.8291,-2.8291,-2.8291,-2.9168,-2.9598,-2.9608,-3.0469,-3.0889,-3.0889,-3.0889,-3.0889,-3.0889,-3.0889,-3.0889,-3.0889,-3.0889,-3.0889,-3.0889,-3.0889,-3.0889,-3.0889,-3.0889,-3.0889,-3.0889,-3.0889,-3.0889,-3.0889,-3.0889,-3.0889,-3.0889,-3.0889,-3.0889,-3.0889,-3.0889,-3.0889,-3.0889,-3.0889,-3.0889,-3.0889,-3.0889,-3.0889,-3.0889,-3.0889,-3.0889,-3.0889,-3.0889,-3.0704,-3.0118,-2.8811,-2.7516,-2.6225,-2.4949,-2.4811,-2.4525,-2.3718,-2.3691,-2.3866,-2.417,-2.425,-2.439,-2.4661,-2.469,-2.48,-2.5071,-2.5093,-2.5093,-2.5093,-2.5093,-2.5093,-2.5093,-2.5093,-2.5093,-2.5093,-2.5093,-2.5093,-2.5093,-2.5093,-2.5093,0.0,0.0,-2.684,0.0,0.0,0.0,0.0,0.0,0.0,0.0,0.0,0.0,0.0,0.0,0.0,0.0,0.0,0.0,0.0,0.0,0.0,0.0,0.0,0.0,0.0,0.0,0.0,0.0,-2.8291,-2.8291,-2.8291,-2.8291,-2.8291,-2.8291,-2.8291,-2.8291,-2.8291,-2.9168,-2.9598,-2.9608,-3.0469,-3.0889,-3.0889,-3.0889,-3.0889,-3.0889,-3.0889,-3.0889,-3.0889,-3.0889,-3.0889,-3.0889,-3.0889,-3.0889,-3.0889,-3.0889,-3.0889,-3.0889,-3.0889,-3.0889,-3.0889,-3.0889,-3.0889,-3.0889,-3.0889,-3.0889,-3.0889,-3.0889,-3.0889,-3.0889,-3.0889,-3.0889,-3.0889,-3.0889,-3.0889,-3.0889,-3.0889,-3.0889,-3.0889,-3.0889,-2.9962,-2.8751,-2.7465,-2.6194,-2.4918,-2.3573,-2.3599,-2.3735,-2.362,-2.4126,-2.4492,-2.4536,-2.4793,-2.4976,-2.502,-2.5027,-2.5042,-2.5086,-2.5093,-2.5093,-2.5093,-2.5093,-2.5093,-2.5093,-2.5093,-2.5093,-2.5093,-2.5093,-2.5093,-2.5093,-2.5093,-2.5093,-2.601,-2.6728,-2.7383,0.0,0.0,0.0,0.0,0.0,0.0,0.0,0.0,0.0,0.0,0.0,0.0,0.0,0.0,0.0,0.0,0.0,0.0,0.0,0.0,0.0,0.0,0.0,0.0,0.0,-2.8291,-2.8291,-2.8291,-2.8291,-2.8291,-2.8291,-2.8291,-2.8291,-2.8291,-2.9168,-2.9843,-3.0341,-3.0703,-3.0889,-3.0889,-3.0889,-3.0889,-3.0889,-3.0889,-3.0889,-3.0889,-3.0889,-3.0889,-3.0889,-3.0889,-3.0889,-3.0889,-3.0889,-3.0889,-3.0889,-3.0889,-3.0889,-3.0889,-3.0889,-3.0889,-3.0889,-3.0889,-3.0889,-3.0889,-3.0889,-3.0889,-3.0889,-3.0889,-3.0889,-3.0889,-3.0889,-3.0889,-3.0889,-3.0889,-3.0889,-3.0674,-2.9932,-2.8721,-2.7426,-2.6164,-2.4983,-2.4069,-2.3471,-2.3662,-2.394,-2.4155,-2.4426,-2.4675,-2.4858,-2.5005,-2.5093,-2.5093,-2.5093,-2.5093,-2.5093,-2.5093,-2.5093,-2.5093,-2.5093,-2.5093,-2.5093,-2.5093,-2.5093,-2.5093,-2.5093,-2.5093,-2.5093,-2.5093,-2.5093,0.0,0.0,-2.7712,0.0,0.0,0.0,0.0,0.0,0.0,0.0,0.0,0.0,0.0,0.0,0.0,0.0,0.0,0.0,0.0,0.0,0.0,0.0,0.0,0.0,0.0,0.0,0.0,0.0,-2.8291,-2.8291,-2.8291,-2.8291,-2.8291,-2.8291,-2.8291,-2.8291,-2.8291,-2.9168,-3.0038,-3.0889,-3.0889,-3.0889,-3.0889,-3.0889,-3.0889,-3.0889,-3.0889,-3.0889,-3.0889,-3.0889,-3.0889,-3.0889,-3.0889,-3.0889,-3.0889,-3.0889,-3.0889,-3.0889,-3.0889,-3.0889,-3.0889,-3.0889,-3.0889,-3.0889,-3.0889,-3.0889,-3.0889,-3.0889,-3.0889,-3.0889,-3.0889,-3.0889,-3.0889,-3.0889,-3.0889,-3.0889,-3.0889,-3.0889,-3.0489,-2.9166,-2.7877,-2.6614,-2.5398,-2.4303,-2.3625,-2.3706,-2.3998,-2.4324,-2.4573,-2.4675,-2.4814,-2.5064,-2.5093,-2.5093,-2.5093,-2.5093,-2.5093,-2.5093,-2.5093,-2.5093,-2.5093,-2.5093,-2.5093,-2.5093,-2.5093,-2.5093,-2.5093,-2.5093,-2.5093,-2.5093,-2.5093,-2.5093,0.0,-2.7663,0.0,0.0,0.0,0.0,0.0,0.0,0.0,0.0,0.0,0.0,0.0,0.0,0.0,0.0,0.0,0.0,0.0,0.0,0.0,0.0,0.0,0.0,0.0,0.0,0.0,0.0,-2.8291,-2.8291,-2.8291,-2.8291,-2.8291,-2.8291,-2.8291,-2.8291,-2.8291,-2.9168,-3.0038,-3.0889,-3.0889,-3.0889,-3.0889,-3.0889,-3.0889,-3.0889,-3.0889,-3.0889,-3.0889,-3.0889,-3.0889,-3.0889,-3.0889,-3.0889,-3.0889,-3.0889,-3.0889,-3.0889,-3.0889,-3.0889,-3.0889,-3.0889,-3.0889,-3.0889,-3.0889,-3.0889,-3.0889,-3.0889,-3.0889,-3.0889,-3.0889,-3.0889,-3.0889,-3.0889,-3.0889,-3.0889,-3.0889,-3.0889,-3.0489,-2.9166,-2.7859,-2.6673,-2.5649,-2.4423,-2.3698,-2.4045,-2.4368,-2.458,-2.4602,-2.4873,-2.5071,-2.5093,-2.5093,-2.5093,-2.5093,-2.5093,-2.5093,-2.5093,-2.5093,-2.5093,-2.5093,-2.5093,-2.5093,-2.5093,-2.5093,-2.5093,-2.5093,-2.5093,-2.5093,-2.5093,-2.5093,-2.5093,0.0,0.0,0.0,0.0,0.0,0.0,0.0,0.0,0.0,0.0,0.0,0.0,0.0,0.0,0.0,0.0,0.0,0.0,0.0,0.0,0.0,0.0,0.0,0.0,0.0,0.0,0.0,0.0,0.0,-2.8291,-2.8291,-2.8291,-2.8291,-2.8291,-2.8291,-2.8418,-2.8691,-2.9277,-2.9891,-3.0449,-3.0752,-3.0889,-3.0889,-3.0889,-3.0889,-3.0889,-3.0889,-3.0889,-3.0889,-3.0889,-3.0889,-3.0889,-3.0889,-3.0889,-3.0889,-3.0889,-3.0889,-3.0889,-3.0889,-3.0889,-3.0889,-3.0889,-3.0889,-3.0889,-3.0889,-3.0889,-3.0889,-3.0889,-3.0889,-3.0889,-3.0889,-3.0889,-3.0889,-3.0889,-3.0245,-2.9628,-2.9628,-2.9628,-2.8989,-2.6875,-2.6246,-2.567,-2.4471,-2.4255,-2.4294,-2.4412,-2.4705,-2.4917,-2.4917,-2.502,-2.5093,-2.5093,-2.5093,-2.5093,-2.5093,-2.5093,-2.5093,-2.5093,-2.5093,-2.5093,-2.5093,-2.5093,-2.5093,-2.5093,-2.5093,-2.5093,-2.5093,-2.5093,-2.5093,-2.5093,-2.5093,-2.5093,-2.7858,0.0,0.0,0.0,0.0,0.0,0.0,0.0,0.0,0.0,0.0,0.0,0.0,0.0,0.0,0.0,0.0,0.0,0.0,0.0,0.0,0.0,0.0,0.0,0.0,0.0,0.0,0.0,0.0,0.0,-2.8291,-2.8291,-2.8291,-2.8291,-2.8291,-2.8496,-2.8889,-2.9383,-2.9813,-3.0205,-3.0674,-3.0889,-3.0889,-3.0889,-3.0889,-3.0889,-3.0889,-3.0889,-3.0889,-3.0889,-3.0889,-3.0889,-3.0889,-3.0889,-3.0889,-3.0889,-3.0889,-3.0889,-3.0889,-3.0889,-3.0889,-3.0889,-3.0889,-3.0889,-3.0889,-3.0889,-3.0889,-3.0889,-3.0889,-3.0889,-3.0889,-3.0889,-3.0801,-3.0333,-2.954,-2.8683,-2.7808,-2.7966,-2.7672,-2.5615,-2.5398,-2.5163,-2.4107,-2.4316,-2.4639,-2.4749,-2.4954,-2.5093,-2.5093,-2.5093,-2.5093,-2.5093,-2.5093,-2.5093,-2.5093,-2.5093,-2.5093,-2.5093,-2.5093,-2.5093,-2.5093,-2.5093,-2.5093,-2.5093,-2.5093,-2.5093,-2.5093,-2.5093,-2.5093,-2.5093,-2.5093,-2.5093,0.0,0.0,0.0,0.0,0.0,0.0,0.0,0.0,0.0,0.0,0.0,0.0,0.0,0.0,0.0,0.0,0.0,0.0,0.0,0.0,0.0,0.0,0.0,0.0,0.0,0.0,0.0,0.0,-2.8291,-2.8291,-2.8291,-2.8291,-2.8291,-2.8291,-2.8291,-2.8486,-2.8869,-2.9373,-2.9803,-3.0185,-3.0664,-3.0889,-3.0889,-3.0889,-3.0889,-3.0889,-3.0889,-3.0889,-3.0889,-3.0889,-3.0889,-3.0889,-3.0889,-3.0889,-3.0889,-3.0889,-3.0889,-3.0889,-3.0889,-3.0889,-3.0889,-3.0889,-3.0889,-3.0889,-3.0889,-3.0889,-3.0889,-3.0889,-3.0859,-3.083,-3.0801,-3.0772,-3.046,-2.9137,-2.8831,-2.8107,-2.5646,-2.605,-2.6616,-2.5641,-2.5439,-2.5287,-2.4683,-2.4609,-2.4727,-2.5042,-2.5093,-2.5093,-2.5093,-2.5093,-2.5093,-2.5093,-2.5093,-2.5093,-2.5093,-2.5093,-2.5093,-2.5093,-2.5093,-2.5093,-2.5093,-2.5093,-2.5093,-2.5093,-2.5093,-2.5093,-2.5093,-2.5093,-2.5093,-2.5093,-2.5093,-2.5093,-2.8262,0.0,0.0,0.0,0.0,0.0,0.0,0.0,0.0,0.0,0.0,0.0,0.0,0.0,0.0,0.0,0.0,0.0,0.0,0.0,0.0,0.0,0.0,0.0,0.0,0.0,0.0,0.0,-2.8291,-2.8291,-2.8291,-2.8291,-2.8291,-2.8291,-2.8291,-2.835,-2.8467,-2.9227,-2.9657,-2.9784,-3.0556,-3.0889,-3.0889,-3.0889,-3.0889,-3.0889,-3.0889,-3.0889,-3.0889,-3.0889,-3.0889,-3.0889,-3.0889,-3.0889,-3.0889,-3.0889,-3.0889,-3.0889,-3.0889,-3.0889,-3.0889,-3.0889,-3.0889,-3.0889,-3.0889,-3.0889,-3.0889,-3.0889,-3.0206,-2.9235,-2.8313,-2.8074,-2.7984,-2.7615,-2.6823,-2.5973,-2.5248,-2.4805,-2.445,-2.417,-2.4316,-2.4526,-2.4595,-2.48,-2.4983,-2.5078,-2.5093,-2.5093,-2.5093,-2.5093,-2.5093,-2.5093,-2.5093,-2.5093,-2.5093,-2.5093,-2.5093,-2.5093,-2.5093,-2.5093,-2.5093,-2.5093,-2.5093,-2.5093,-2.5093,-2.5093,-2.5093,-2.5093,-2.5093,-2.5093,-2.5093,-2.5093,0.0,0.0,0.0,0.0,0.0,0.0,-2.8291,-2.8291,0.0,0.0,0.0,0.0,0.0,0.0,0.0,0.0,0.0,0.0,0.0,0.0,0.0,0.0,0.0,0.0,0.0,-2.8291,-2.8291,-2.8291,-2.8291,-2.8291,-2.8291,-2.8291,-2.8291,-2.8291,-2.8291,-2.8291,-2.8291,-2.9168,-2.9598,-2.9608,-3.0469,-3.0889,-3.0889,-3.0889,-3.0889,-3.0889,-3.0889,-3.0889,-3.0889,-3.0889,-3.0889,-3.0889,-3.0889,-3.0889,-3.0889,-3.0889,-3.0889,-3.0889,-3.0889,-3.0889,-3.0889,-3.0889,-3.0889,-3.0801,-3.0245,-3.0059,-2.9932,-2.9431,-2.8701,-2.7937,-2.7194,-2.6983,-2.6862,-2.6316,-2.5646,-2.4949,-2.4394,-2.3921,-2.364,-2.3771,-2.4097,-2.4426,-2.4749,-2.4961,-2.5093,-2.5093,-2.5093,-2.5093,-2.5093,-2.5093,-2.5093,-2.5093,-2.5093,-2.5093,-2.5093,-2.5093,-2.5093,-2.5093,-2.5093,-2.5093,-2.5093,-2.5093,-2.5093,-2.5093,-2.5093,-2.5093,-2.5093,-2.5093,-2.5093,-2.5093,-2.5093,-2.5093,0.0,0.0,0.0,0.0,0.0,0.0,-2.8291,-2.8291,-2.8291,0.0,0.0,0.0,0.0,0.0,0.0,0.0,0.0,0.0,0.0,0.0,0.0,0.0,0.0,0.0,-2.8291,-2.8291,-2.8291,-2.8291,-2.8291,-2.8291,-2.8291,-2.8291,-2.8291,-2.8291,-2.8291,-2.8291,-2.8291,-2.9168,-2.9598,-2.9608,-3.0469,-3.0889,-3.0889,-3.0889,-3.0889,-3.0889,-3.0889,-3.0889,-3.0889,-3.0889,-3.0889,-3.0889,-3.0889,-3.0889,-3.0889,-3.0889,-3.0889,-3.0889,-3.0889,-3.0889,-3.0889,-3.0889,-3.0801,-3.046,-2.9255,-2.8801,-2.8415,-2.7164,-2.6801,-2.6741,-2.6619,-2.6559,-2.6286,-2.5164,-2.4887,-2.4564,-2.3399,-2.342,-2.3742,-2.4071,-2.4404,-2.4712,-2.5034,-2.5093,-2.5093,-2.5093,-2.5093,-2.5093,-2.5093,-2.5093,-2.5093,-2.5093,-2.5093,-2.5093,-2.5093,-2.5093,-2.5093,-2.5093,-2.5093,-2.5093,-2.5093,-2.5093,-2.5093,-2.5093,-2.5093,-2.5093,-2.5093,-2.5093,-2.5093,-2.5093,-2.5093,-2.5093,0.0,0.0,0.0,0.0,0.0,0.0,-2.8291,-2.8291,-2.8291,0.0,0.0,0.0,0.0,0.0,0.0,0.0,0.0,0.0,0.0,0.0,0.0,0.0,0.0,0.0,-2.8291,-2.8291,-2.8291,-2.8291,-2.8291,-2.8291,-2.8291,-2.8291,-2.8291,-2.8291,-2.8291,-2.8291,-2.8291,-2.9168,-2.9598,-2.9608,-3.0469,-3.0889,-3.0889,-3.0889,-3.0889,-3.0889,-3.0889,-3.0889,-3.0889,-3.0889,-3.0889,-3.0889,-3.0889,-3.0889,-3.0889,-3.0889,-3.0889,-3.0889,-3.0889,-3.0889,-3.0889,-3.0889,-3.0177,-2.9226,-2.8979,-2.8176,-2.7103,-2.5829,-2.5462,-2.5225,-2.4147,-2.3876,-2.3814,-2.3542,-2.3472,-2.3484,-2.3505,-2.3757,-2.4118,-2.4448,-2.4558,-2.4712,-2.5034,-2.5093,-2.5093,-2.5093,-2.5093,-2.5093,-2.5093,-2.5093,-2.5093,-2.5093,-2.5093,-2.5093,-2.5093,-2.5093,-2.5093,-2.5093,-2.5093,-2.5093,-2.5093,-2.5093,-2.5093,-2.5093,-2.5093,-2.5093,-2.5093,-2.5093,-2.5093,-2.5093,-2.5093,-2.5093,0.0,0.0,0.0,-2.8291,0.0,0.0,0.0,-2.8291,-2.8291,0.0,0.0,0.0,0.0,0.0,0.0,0.0,0.0,0.0,0.0,0.0,0.0,0.0,0.0,0.0,-2.8291,-2.8291,-2.8291,-2.8291,-2.8291,-2.8291,-2.8291,-2.8291,-2.8291,-2.8291,-2.8291,-2.8291,-2.8291,-2.9168,-2.9598,-2.9608,-3.0469,-3.0889,-3.0889,-3.0889,-3.0889,-3.0889,-3.0889,-3.0889,-3.0889,-3.0889,-3.0889,-3.0889,-3.0889,-3.0889,-3.0889,-3.0889,-3.0489,-2.9903,-2.9903,-2.949,-2.8948,-2.8948,-2.8492,-2.7847,-2.7207,-2.6086,-2.491,-2.427,-2.4092,-2.3938,-2.3261,-2.3106,-2.3106,-2.3106,-2.3106,-2.3201,-2.353,-2.3852,-2.4214,-2.4536,-2.4734,-2.4902,-2.5064,-2.5093,-2.5093,-2.5093,-2.5093,-2.5093,-2.5093,-2.5093,-2.5093,-2.5093,-2.5093,-2.5093,-2.5093,-2.5093,-2.5093,-2.5093,-2.5093,-2.5093,-2.5093,-2.5093,-2.5093,-2.5093,-2.5093,-2.5093,-2.5093,-2.5093,-2.5093,-2.5093,-2.5093,-2.5093,0.0,0.0,0.0,0.0,0.0,-2.8291,0.0,0.0,0.0,0.0,0.0,0.0,0.0,0.0,0.0,0.0,0.0,0.0,0.0,0.0,0.0,0.0,0.0,0.0,0.0,-2.8291,-2.8291,-2.8291,-2.8291,-2.8291,-2.8291,-2.8291,-2.8291,-2.8291,-2.8291,-2.8291,-2.8291,-2.9168,-2.9598,-2.9608,-3.0469,-3.0889,-3.0889,-3.0889,-3.0889,-3.0889,-3.0889,-3.0889,-3.0889,-3.0889,-3.0889,-3.0889,-3.0889,-3.0889,-3.0859,-3.0616,-2.9844,-2.8861,-2.8623,-2.7847,-2.6983,-2.6983,-2.6831,-2.6377,-2.5102,-2.3969,-2.3106,-2.3106,-2.3106,-2.3106,-2.3106,-2.3106,-2.3106,-2.3106,-2.3157,-2.3288,-2.3618,-2.3947,-2.4309,-2.4631,-2.491,-2.5093,-2.5093,-2.5093,-2.5093,-2.5093,-2.5093,-2.5093,-2.5093,-2.5093,-2.5093,-2.5093,-2.5093,-2.5093,-2.5093,-2.5093,-2.5093,-2.5093,-2.5093,-2.5093,-2.5093,-2.5093,-2.5093,-2.5093,-2.5093,-2.5093,-2.5093,-2.5093,-2.5093,-2.5093,-2.5093,-2.5093,0.0,0.0,0.0,0.0,-2.8291,0.0,0.0,0.0,0.0,0.0,0.0,0.0,0.0,0.0,0.0,0.0,0.0,0.0,0.0,0.0,0.0,0.0,0.0,0.0,0.0,-2.8291,-2.8291,-2.8291,-2.8291,-2.8291,-2.8291,-2.8291,-2.8291,-2.8291,-2.8291,-2.8291,-2.8291,-2.9168,-2.9598,-2.9608,-3.0469,-3.0889,-3.0889,-3.0889,-3.0889,-3.0889,-3.0889,-3.0889,-3.0889,-3.0889,-3.0889,-3.0889,-3.0889,-3.0889,-3.0762,-2.9569,-2.9039,-2.8742,-2.7615,-2.7103,-2.6983,-2.6983,-2.6225,-2.5071,-2.372,-2.323,-2.3106,-2.3106,-2.3106,-2.3106,-2.3106,-2.3106,-2.3106,-2.3106,-2.3325,-2.3632,-2.3954,-2.4316,-2.4646,-2.4976,-2.5064,-2.5093,-2.5093,-2.5093,-2.5093,-2.5093,-2.5093,-2.5093,-2.5093,-2.5093,-2.5093,-2.5093,-2.5093,-2.5093,-2.5093,-2.5093,-2.5093,-2.5093,-2.5093,-2.5093,-2.5093,-2.5093,-2.5093,-2.5093,-2.5093,-2.5093,-2.5093,-2.5093,-2.5093,-2.5093,-2.5093,-2.5093,0.0,0.0,0.0,0.0,0.0,0.0,0.0,0.0,-2.8291,0.0,0.0,0.0,0.0,0.0,0.0,0.0,0.0,0.0,0.0,0.0,0.0,0.0,0.0,0.0,0.0,0.0,0.0,0.0,-2.8291,-2.8291,-2.8291,-2.8291,-2.8291,-2.8291,-2.8291,-2.8291,-2.8291,-2.9168,-2.9598,-2.9608,-3.0469,-3.0889,-3.0889,-3.0889,-3.0889,-3.0889,-3.0889,-3.046,-2.9815,-3.0577,-3.001,-2.871,-2.9451,-2.9746,-2.9658,-2.9107,-2.7958,-2.6603,-2.6073,-2.5401,-2.4725,-2.4725,-2.4363,-2.3845,-2.3261,-2.3106,-2.3106,-2.3106,-2.3106,-2.3106,-2.3106,-2.3106,-2.3157,-2.3347,-2.3493,-2.3735,-2.4287,-2.4507,-2.4697,-2.5027,-2.5093,-2.5093,-2.5093,-2.5093,-2.5093,-2.5093,-2.5093,-2.5093,-2.5093,-2.5093,-2.5093,-2.5093,-2.5093,-2.5093,-2.5093,-2.5093,-2.5093,-2.5093,-2.5093,-2.5093,-2.5093,-2.5093,-2.5093,-2.5093,-2.5093,-2.5093,-2.5093,-2.5093,-2.5093,-2.5093,-2.5093,-2.5093,-2.6581,0.0,0.0,0.0,0.0,0.0,0.0,0.0,0.0,0.0,0.0,0.0,0.0,0.0,0.0,0.0,0.0,0.0,0.0,0.0,0.0,0.0,0.0,0.0,0.0,0.0,0.0,-2.8291,-2.8291,-2.8291,-2.8291,-2.8291,-2.8291,-2.8291,-2.8291,-2.835,-2.8467,-2.9227,-2.9657,-2.9784,-3.0556,-3.0889,-3.0889,-3.0889,-3.0889,-3.0889,-3.0889,-3.0147,-2.8979,-2.9932,-2.9037,-2.7103,-2.8026,-2.8176,-2.7868,-2.7868,-2.6702,-2.5041,-2.4672,-2.3907,-2.3106,-2.3106,-2.3106,-2.3106,-2.3106,-2.3106,-2.3106,-2.3106,-2.3106,-2.3106,-2.3106,-2.3171,-2.3303,-2.3537,-2.3735,-2.4023,-2.4499,-2.4675,-2.4807,-2.5042,-2.5093,-2.5093,-2.5093,-2.5093,-2.5093,-2.5093,-2.5093,-2.5093,-2.5093,-2.5093,-2.5093,-2.5093,-2.5093,-2.5093,-2.5093,-2.5093,-2.5093,-2.5093,-2.5093,-2.5093,-2.5093,-2.5093,-2.5093,-2.5093,-2.5093,-2.5093,-2.5093,-2.5093,-2.5093,-2.5093,-2.5093,-2.5093,0.0,0.0,0.0,-2.6554,0.0,0.0,0.0,0.0,-2.8291,0.0,0.0,0.0,0.0,0.0,0.0,0.0,0.0,0.0,0.0,0.0,0.0,0.0,0.0,0.0,0.0,0.0,0.0,-2.8291,-2.8291,-2.8291,-2.8291,-2.8291,-2.8291,-2.8291,-2.8291,-2.8486,-2.8869,-2.9373,-2.9803,-3.0185,-3.0664,-3.0889,-3.0889,-3.0889,-3.0889,-3.0889,-3.0889,-3.0147,-2.889,-2.895,-2.8176,-2.6983,-2.7043,-2.6316,-2.5225,-2.5225,-2.5164,-2.4918,-2.3596,-2.3137,-2.3106,-2.3106,-2.3106,-2.3106,-2.3106,-2.3106,-2.3106,-2.3106,-2.3106,-2.3106,-2.3106,-2.3347,-2.3581,-2.3596,-2.4111,-2.458,-2.4602,-2.4851,-2.5078,-2.5086,-2.5093,-2.5093,-2.5093,-2.5093,-2.5093,-2.5093,-2.5093,-2.5093,-2.5093,-2.5093,-2.5093,-2.5093,-2.5093,-2.5093,-2.5093,-2.5093,-2.5093,-2.5093,-2.5093,-2.5093,-2.5093,-2.5093,-2.5093,-2.5093,-2.5093,-2.5093,-2.5093,-2.5093,-2.5093,-2.5093,-2.5093,-2.5093,0.0,0.0,-2.669,-2.7493,0.0,0.0,0.0,0.0,0.0,0.0,0.0,0.0,0.0,0.0,0.0,0.0,0.0,0.0,0.0,0.0,0.0,0.0,0.0,0.0,0.0,0.0,0.0,-2.8291,-2.8291,-2.8291,-2.8291,-2.8291,-2.8291,-2.8291,-2.8564,-2.8752,-2.8889,-2.9629,-3.0059,-3.0205,-3.0674,-3.0889,-3.0889,-3.0889,-3.0889,-3.0889,-3.0889,-2.9667,-2.77,-2.8554,-2.7138,-2.4517,-2.5401,-2.4949,-2.3876,-2.4764,-2.4548,-2.372,-2.3261,-2.3106,-2.3106,-2.3106,-2.3106,-2.3106,-2.3106,-2.3106,-2.3106,-2.3106,-2.3267,-2.3427,-2.3427,-2.3676,-2.4009,-2.4221,-2.4441,-2.4661,-2.488,-2.5012,-2.5093,-2.5093,-2.5093,-2.5093,-2.5093,-2.5093,-2.5093,-2.5093,-2.5093,-2.5093,-2.5093,-2.5093,-2.5093,-2.5093,-2.5093,-2.5093,-2.5093,-2.5093,-2.5093,-2.5093,-2.5093,-2.5093,-2.5093,-2.5093,-2.5093,-2.5093,-2.5093,-2.5093,-2.5093,-2.5093,-2.5093,-2.5093,-2.5093,-2.5093,-2.6609,-2.65,0.0,-2.7466,-2.7079,0.0,-2.7052,0.0,0.0,0.0,0.0,0.0,0.0,0.0,0.0,0.0,0.0,0.0,0.0,0.0,0.0,0.0,0.0,0.0,0.0,0.0,-2.8291,-2.8291,-2.8291,-2.8291,0.0,0.0,-2.8359,-2.8506,-2.8752,-2.9035,-2.9375,-2.9922,-3.0273,-3.0449,-3.0752,-3.0889,-3.0889,-3.0889,-3.0889,-3.0889,-3.0889,-2.9422,-2.7056,-2.7907,-2.6208,-2.3199,-2.4062,-2.3845,-2.3199,-2.4062,-2.3845,-2.3106,-2.3106,-2.3106,-2.3106,-2.3106,-2.3106,-2.3106,-2.3106,-2.3106,-2.3135,-2.3252,-2.3435,-2.3625,-2.3735,-2.4045,-2.4346,-2.4551,-2.469,-2.4836,-2.5042,-2.5093,-2.5093,-2.5093,-2.5093,-2.5093,-2.5093,-2.5093,-2.5093,-2.5093,-2.5093,-2.5093,-2.5093,-2.5093,-2.5093,-2.5093,-2.5093,-2.5093,-2.5093,-2.5093,-2.5093,-2.5093,-2.5093,-2.5093,-2.5093,-2.5093,-2.5195,-2.543,-2.521,-2.5203,-2.543,-2.5203,-2.5093,-2.5093,-2.5093,-2.5093]},{"header":{"parameterUnit":"m.s-1","parameterCategory":1,"la1":30.6,"la2":29.2853,"lo1":-89.7004,"lo2":-87.6739,"dy":0.0162,"dx":0.0183,"nx":112,"ny":82,"refTime":"2023-03-25T00:00:00:Z","depth":0,"parameterNumber":3,"parameterNumberName":"V-component_of_WINDS"},"data":[0.0,0.0,0.0,0.0,0.0,0.0,0.0,0.0,0.0,0.0,0.0,0.0,0.0,0.0,0.0,0.0,0.0,0.0,0.0,0.0,0.0,0.0,0.0,0.0,0.0,0.0,0.0,0.0,0.0,0.0,0.0,0.0,0.0,0.0,0.0,0.0,0.0,0.0,0.0,0.0,0.0,0.0,0.0,0.0,0.0,0.0,0.0,0.0,0.0,0.0,0.0,0.0,0.0,0.0,0.0,0.0,0.0,0.0,0.0,0.0,0.0,0.0,0.0,0.0,0.0,0.0,0.0,0.0,0.0,0.0,0.0,0.0,0.0,0.0,0.0,0.0,0.0,0.0,0.0,0.0,0.0,0.0,0.0,0.0,0.0,0.0,0.0,0.0,0.0,0.0,0.0,4.3792,4.38,4.4086,4.482,4.4831,4.5118,4.5841,0.0,0.0,0.0,0.0,0.0,0.0,0.0,0.0,0.0,0.0,0.0,0.0,0.0,0.0,0.0,0.0,0.0,0.0,0.0,0.0,0.0,0.0,0.0,0.0,0.0,0.0,0.0,0.0,0.0,0.0,0.0,0.0,0.0,0.0,0.0,0.0,0.0,0.0,0.0,0.0,0.0,0.0,0.0,0.0,0.0,0.0,0.0,0.0,0.0,0.0,0.0,0.0,0.0,0.0,0.0,0.0,0.0,0.0,0.0,0.0,0.0,0.0,0.0,0.0,0.0,0.0,0.0,0.0,0.0,0.0,0.0,0.0,0.0,0.0,0.0,0.0,0.0,0.0,0.0,0.0,0.0,0.0,0.0,0.0,0.0,0.0,0.0,0.0,0.0,0.0,0.0,0.0,0.0,0.0,0.0,0.0,0.0,0.0,0.0,0.0,0.0,0.0,0.0,0.0,4.5514,4.5514,4.5517,4.5579,4.5714,4.5711,4.5757,4.5887,0.0,0.0,0.0,0.0,0.0,0.0,0.0,0.0,0.0,0.0,0.0,0.0,0.0,0.0,0.0,0.0,0.0,0.0,0.0,0.0,0.0,0.0,0.0,0.0,0.0,0.0,0.0,0.0,0.0,0.0,0.0,0.0,0.0,0.0,0.0,0.0,0.0,0.0,0.0,0.0,0.0,0.0,0.0,0.0,0.0,0.0,0.0,0.0,0.0,0.0,0.0,0.0,0.0,0.0,0.0,0.0,0.0,0.0,0.0,0.0,0.0,0.0,0.0,0.0,0.0,0.0,0.0,0.0,0.0,0.0,0.0,0.0,0.0,0.0,0.0,0.0,0.0,0.0,0.0,0.0,0.0,0.0,0.0,0.0,0.0,0.0,0.0,0.0,0.0,0.0,0.0,0.0,0.0,0.0,0.0,0.0,0.0,0.0,0.0,0.0,0.0,0.0,0.0,4.5946,4.5941,4.5958,4.5942,4.5942,4.5942,4.5944,4.5958,4.5958,4.5896,0.0,0.0,0.0,0.0,0.0,0.0,0.0,0.0,0.0,0.0,0.0,0.0,0.0,0.0,0.0,0.0,0.0,0.0,0.0,0.0,0.0,0.0,0.0,0.0,0.0,0.0,0.0,0.0,0.0,0.0,0.0,0.0,0.0,0.0,0.0,0.0,0.0,0.0,0.0,0.0,0.0,0.0,0.0,0.0,0.0,0.0,0.0,0.0,0.0,0.0,0.0,0.0,0.0,0.0,0.0,0.0,0.0,0.0,0.0,0.0,0.0,0.0,0.0,0.0,0.0,0.0,0.0,0.0,0.0,0.0,0.0,0.0,0.0,0.0,0.0,0.0,0.0,0.0,0.0,0.0,0.0,0.0,0.0,0.0,0.0,0.0,0.0,0.0,0.0,0.0,0.0,0.0,0.0,0.0,0.0,0.0,0.0,0.0,0.0,0.0,0.0,0.0,4.6006,4.5994,4.5999,4.5999,4.5999,4.5999,4.6,4.5994,4.6008,4.5946,0.0,0.0,0.0,0.0,0.0,0.0,0.0,0.0,0.0,0.0,0.0,0.0,0.0,0.0,0.0,0.0,0.0,0.0,0.0,0.0,0.0,0.0,0.0,0.0,0.0,0.0,0.0,0.0,0.0,0.0,0.0,0.0,0.0,0.0,0.0,0.0,0.0,0.0,0.0,0.0,0.0,0.0,0.0,0.0,0.0,0.0,0.0,0.0,0.0,0.0,0.0,0.0,0.0,0.0,0.0,0.0,0.0,0.0,0.0,0.0,0.0,0.0,0.0,0.0,0.0,0.0,0.0,0.0,0.0,0.0,0.0,0.0,0.0,0.0,0.0,0.0,0.0,0.0,0.0,0.0,0.0,0.0,0.0,0.0,0.0,0.0,0.0,0.0,0.0,0.0,0.0,0.0,0.0,0.0,0.0,0.0,0.0,0.0,0.0,0.0,0.0,0.0,4.5997,4.5999,4.5999,4.5999,4.5999,4.5999,4.5999,4.6005,4.6,4.5994,0.0,0.0,0.0,0.0,0.0,0.0,0.0,0.0,0.0,0.0,0.0,0.0,0.0,0.0,0.0,0.0,0.0,0.0,0.0,0.0,0.0,0.0,0.0,0.0,0.0,0.0,0.0,0.0,0.0,0.0,0.0,0.0,0.0,0.0,0.0,0.0,0.0,0.0,0.0,0.0,0.0,0.0,0.0,0.0,0.0,0.0,0.0,0.0,0.0,0.0,0.0,0.0,0.0,0.0,0.0,0.0,0.0,0.0,0.0,0.0,0.0,0.0,0.0,0.0,0.0,0.0,0.0,0.0,0.0,0.0,0.0,0.0,0.0,0.0,0.0,0.0,0.0,0.0,0.0,0.0,0.0,0.0,0.0,0.0,0.0,0.0,0.0,0.0,0.0,0.0,0.0,0.0,0.0,0.0,0.0,0.0,0.0,0.0,0.0,0.0,0.0,0.0,4.5999,4.5999,0.0,4.5999,4.5999,4.5999,4.5999,4.5997,4.6005,0.0,0.0,0.0,0.0,0.0,0.0,0.0,0.0,0.0,0.0,0.0,0.0,0.0,0.0,0.0,0.0,0.0,0.0,0.0,0.0,0.0,0.0,0.0,0.0,0.0,0.0,0.0,0.0,0.0,0.0,0.0,0.0,0.0,0.0,0.0,0.0,0.0,0.0,0.0,0.0,0.0,0.0,0.0,0.0,0.0,0.0,0.0,0.0,0.0,0.0,0.0,0.0,0.0,0.0,0.0,0.0,0.0,0.0,0.0,0.0,0.0,0.0,0.0,0.0,0.0,0.0,0.0,0.0,0.0,0.0,0.0,0.0,0.0,0.0,0.0,0.0,0.0,0.0,0.0,0.0,0.0,0.0,0.0,0.0,0.0,0.0,0.0,0.0,0.0,0.0,0.0,0.0,0.0,0.0,0.0,0.0,0.0,0.0,0.0,0.0,0.0,0.0,4.5991,4.5975,4.5989,0.0,4.5999,4.5999,4.5999,4.5999,4.5999,4.5999,0.0,0.0,0.0,0.0,0.0,0.0,0.0,0.0,0.0,0.0,0.0,0.0,0.0,0.0,0.0,0.0,0.0,0.0,0.0,0.0,0.0,0.0,0.0,0.0,0.0,0.0,0.0,0.0,0.0,0.0,0.0,0.0,0.0,0.0,0.0,0.0,0.0,0.0,0.0,0.0,0.0,0.0,0.0,0.0,0.0,0.0,0.0,0.0,0.0,0.0,0.0,0.0,0.0,0.0,0.0,0.0,0.0,0.0,0.0,0.0,0.0,0.0,0.0,0.0,0.0,0.0,0.0,0.0,0.0,0.0,0.0,0.0,0.0,0.0,0.0,0.0,0.0,0.0,0.0,0.0,0.0,0.0,0.0,0.0,0.0,0.0,0.0,0.0,0.0,0.0,0.0,0.0,0.0,0.0,0.0,0.0,0.0,0.0,0.0,0.0,0.0,0.0,4.5969,4.594,4.5938,4.5989,4.5999,4.5999,4.5999,4.5999,4.5999,0.0,0.0,0.0,0.0,0.0,0.0,0.0,0.0,0.0,0.0,0.0,0.0,0.0,0.0,0.0,0.0,0.0,0.0,0.0,0.0,0.0,0.0,0.0,0.0,0.0,0.0,0.0,0.0,0.0,0.0,0.0,0.0,0.0,0.0,0.0,0.0,0.0,0.0,0.0,0.0,0.0,0.0,0.0,0.0,0.0,0.0,0.0,0.0,0.0,0.0,0.0,0.0,0.0,0.0,0.0,0.0,0.0,0.0,0.0,0.0,0.0,0.0,0.0,0.0,0.0,0.0,0.0,0.0,0.0,0.0,0.0,0.0,0.0,0.0,0.0,0.0,0.0,0.0,0.0,0.0,0.0,0.0,0.0,0.0,0.0,0.0,0.0,0.0,0.0,0.0,0.0,0.0,0.0,0.0,0.0,0.0,0.0,0.0,0.0,0.0,0.0,0.0,0.0,4.5906,4.5919,4.5909,4.5921,4.5964,4.5999,4.5999,4.5999,4.5999,4.5999,0.0,0.0,0.0,0.0,0.0,0.0,0.0,0.0,0.0,0.0,0.0,0.0,0.0,0.0,0.0,0.0,0.0,0.0,0.0,0.0,0.0,0.0,0.0,0.0,0.0,0.0,0.0,0.0,0.0,0.0,0.0,0.0,0.0,0.0,0.0,0.0,0.0,0.0,0.0,0.0,0.0,0.0,0.0,0.0,0.0,0.0,0.0,0.0,0.0,0.0,0.0,0.0,0.0,0.0,0.0,0.0,0.0,0.0,0.0,0.0,0.0,0.0,0.0,0.0,0.0,0.0,0.0,0.0,0.0,0.0,0.0,0.0,0.0,0.0,0.0,0.0,0.0,0.0,0.0,0.0,0.0,0.0,0.0,0.0,0.0,0.0,0.0,0.0,0.0,0.0,0.0,0.0,0.0,0.0,0.0,0.0,0.0,0.0,0.0,0.0,0.0,0.0,4.5798,4.5772,4.5761,4.5809,4.5909,4.5966,4.5966,4.598,4.5999,4.5999,0.0,0.0,0.0,0.0,0.0,0.0,0.0,0.0,0.0,0.0,0.0,0.0,0.0,0.0,0.0,0.0,0.0,0.0,0.0,0.0,0.0,0.0,0.0,0.0,0.0,0.0,0.0,0.0,0.0,0.0,0.0,0.0,0.0,0.0,0.0,0.0,0.0,0.0,0.0,0.0,0.0,0.0,0.0,0.0,0.0,0.0,0.0,0.0,0.0,0.0,0.0,0.0,0.0,0.0,0.0,0.0,0.0,0.0,0.0,0.0,0.0,0.0,0.0,0.0,0.0,0.0,0.0,0.0,0.0,0.0,0.0,0.0,0.0,0.0,0.0,0.0,0.0,0.0,0.0,0.0,0.0,0.0,0.0,0.0,0.0,0.0,0.0,0.0,0.0,0.0,0.0,0.0,0.0,0.0,0.0,0.0,0.0,0.0,0.0,0.0,0.0,0.0,4.5653,4.5637,4.5664,4.5772,4.5988,4.6119,4.6129,4.6193,4.6224,4.6232,0.0,0.0,0.0,0.0,0.0,0.0,0.0,0.0,0.0,0.0,0.0,0.0,0.0,0.0,0.0,0.0,0.0,0.0,0.0,0.0,0.0,0.0,0.0,0.0,0.0,0.0,0.0,0.0,0.0,0.0,0.0,0.0,0.0,0.0,0.0,0.0,0.0,0.0,0.0,0.0,0.0,0.0,0.0,0.0,0.0,0.0,0.0,0.0,0.0,0.0,0.0,0.0,0.0,0.0,0.0,0.0,0.0,0.0,0.0,0.0,4.4777,0.0,0.0,0.0,0.0,0.0,0.0,0.0,0.0,0.0,0.0,0.0,0.0,0.0,0.0,0.0,0.0,0.0,0.0,0.0,0.0,0.0,0.0,0.0,0.0,0.0,0.0,0.0,0.0,0.0,0.0,0.0,0.0,0.0,0.0,0.0,0.0,0.0,0.0,0.0,0.0,0.0,4.5527,4.607,4.644,4.6473,4.7212,4.7755,4.7858,4.7888,4.7934,4.8033,0.0,0.0,0.0,0.0,0.0,0.0,0.0,0.0,0.0,0.0,0.0,0.0,0.0,0.0,0.0,0.0,0.0,0.0,0.0,0.0,0.0,0.0,0.0,0.0,0.0,0.0,0.0,0.0,0.0,0.0,0.0,0.0,0.0,0.0,0.0,0.0,0.0,0.0,0.0,0.0,0.0,0.0,0.0,0.0,0.0,0.0,0.0,0.0,0.0,0.0,0.0,0.0,0.0,0.0,0.0,0.0,0.0,0.0,0.0,0.0,0.0,4.5302,0.0,0.0,0.0,0.0,0.0,0.0,0.0,0.0,0.0,0.0,0.0,0.0,0.0,0.0,0.0,0.0,0.0,0.0,0.0,0.0,0.0,0.0,0.0,0.0,0.0,0.0,0.0,0.0,0.0,0.0,0.0,0.0,0.0,0.0,0.0,0.0,0.0,0.0,0.0,0.0,4.6539,4.697,4.725,4.7314,4.7852,4.8253,4.8384,4.841,4.8431,4.8509,4.8493,0.0,0.0,0.0,0.0,0.0,0.0,0.0,0.0,0.0,0.0,0.0,0.0,0.0,0.0,0.0,0.0,0.0,0.0,0.0,0.0,0.0,0.0,0.0,0.0,0.0,0.0,0.0,0.0,0.0,0.0,0.0,0.0,0.0,0.0,0.0,0.0,0.0,0.0,0.0,0.0,0.0,0.0,0.0,0.0,0.0,0.0,0.0,0.0,0.0,0.0,0.0,0.0,0.0,4.5205,4.5246,4.5302,4.5302,4.5302,4.5302,4.5302,4.5302,4.5302,0.0,0.0,0.0,0.0,0.0,0.0,0.0,0.0,0.0,0.0,0.0,0.0,0.0,0.0,0.0,0.0,0.0,0.0,0.0,0.0,0.0,0.0,0.0,0.0,0.0,4.5302,4.534,0.0,0.0,0.0,0.0,0.0,0.0,0.0,0.0,0.0,0.0,0.0,0.0,4.7717,4.7927,4.8064,4.8177,4.8418,4.8619,4.8751,4.8793,4.8811,4.8852,4.8852,4.8852,0.0,0.0,0.0,0.0,0.0,0.0,0.0,0.0,0.0,0.0,0.0,0.0,0.0,0.0,0.0,0.0,0.0,0.0,0.0,0.0,0.0,0.0,0.0,0.0,0.0,0.0,0.0,0.0,0.0,0.0,0.0,0.0,4.4074,4.4097,0.0,0.0,0.0,0.0,0.0,0.0,0.0,0.0,0.0,0.0,0.0,0.0,0.0,4.4525,4.4525,4.4525,4.4643,4.4868,4.4868,4.5023,4.5302,4.5302,4.5302,4.5302,4.5302,0.0,4.5302,4.5302,0.0,0.0,0.0,0.0,0.0,0.0,0.0,0.0,0.0,0.0,0.0,0.0,0.0,0.0,0.0,0.0,0.0,0.0,0.0,0.0,0.0,0.0,4.5302,4.5302,4.5302,4.5493,0.0,4.5814,4.5328,4.5307,4.5304,0.0,0.0,0.0,0.0,0.0,0.0,0.0,4.7788,4.8468,4.8943,4.8947,4.9594,5.0079,5.0206,5.0324,5.0467,5.0653,5.0657,5.0657,5.0657,4.983,0.0,0.0,0.0,0.0,0.0,0.0,0.0,0.0,0.0,0.0,0.0,0.0,0.0,0.0,0.0,0.0,0.0,0.0,0.0,0.0,0.0,0.0,0.0,0.0,0.0,0.0,0.0,0.0,0.0,4.4017,4.4056,4.4056,4.4102,4.4173,0.0,0.0,0.0,0.0,0.0,0.0,0.0,0.0,0.0,4.4397,4.439,4.439,4.439,4.439,4.4452,4.4572,4.4572,4.4895,4.547,4.547,4.571,4.6152,4.6346,4.6418,4.6367,4.5606,4.5302,4.5302,0.0,0.0,0.0,0.0,4.5302,4.5302,4.5302,4.5302,0.0,0.0,0.0,0.0,0.0,0.0,0.0,0.0,0.0,0.0,0.0,0.0,0.0,4.6596,4.671,4.68,4.7144,4.6953,4.671,0.0,4.671,4.6825,4.7163,0.0,0.0,0.0,0.0,0.0,4.915,4.9538,4.9807,4.9887,5.0199,5.046,5.0606,5.0601,5.0639,5.0704,5.0727,5.0727,5.0727,5.0374,5.0201,0.0,0.0,0.0,0.0,0.0,0.0,0.0,0.0,0.0,0.0,0.0,0.0,0.0,0.0,0.0,0.0,0.0,0.0,0.0,0.0,0.0,0.0,0.0,0.0,0.0,0.0,0.0,0.0,4.3812,4.3923,4.3923,4.3983,4.4064,0.0,0.0,0.0,0.0,0.0,0.0,4.4296,4.4289,4.4253,4.418,4.418,4.418,4.418,4.4371,4.4527,4.4607,4.4806,4.5266,4.5905,4.5905,4.6236,4.6806,4.7068,4.7164,4.7115,4.6272,4.5946,4.5946,4.5946,4.5946,4.5946,4.5946,4.5946,4.5946,4.5946,4.5946,4.5946,4.5946,0.0,4.5946,4.5946,0.0,0.0,0.0,0.0,4.608,4.6686,4.6839,4.6991,4.766,4.7794,4.787,4.808,4.8138,4.8061,0.0,4.7794,4.787,4.8099,0.0,0.0,0.0,0.0,4.962,5.0225,5.0302,5.0335,5.0442,5.0458,5.0492,5.0596,5.0547,5.0502,5.0502,5.0502,5.0502,5.0502,5.0563,5.0605,5.0642,0.0,0.0,0.0,0.0,0.0,0.0,0.0,0.0,0.0,0.0,0.0,0.0,0.0,0.0,0.0,0.0,0.0,0.0,0.0,0.0,0.0,0.0,0.0,0.0,0.0,0.0,0.0,0.0,0.0,4.3447,4.3489,0.0,0.0,0.0,0.0,4.4028,4.4265,4.4282,4.4025,4.4028,4.3868,4.3556,4.3548,4.3548,4.3548,4.4302,4.4843,4.518,4.5937,4.6443,4.6742,4.6742,4.6753,4.6791,4.6813,4.6821,4.6872,4.7432,4.7679,4.7679,4.7679,4.7679,4.7679,4.7679,4.7679,4.7679,4.7679,4.7679,4.7679,4.7679,4.7679,4.7679,4.7679,4.7679,0.0,0.0,4.7679,4.7679,4.7717,4.7736,4.7755,4.7788,4.7794,4.8023,4.8856,4.9028,4.8798,0.0,4.7794,4.8061,4.8894,0.0,4.9314,5.013,5.0245,5.0245,5.0283,5.0302,5.0302,5.0314,5.0314,5.0319,5.0325,5.0432,5.0502,5.0502,5.0502,5.0502,5.0502,5.0372,5.0372,5.0512,5.0474,0.0,0.0,0.0,0.0,0.0,0.0,0.0,0.0,0.0,0.0,0.0,0.0,0.0,0.0,0.0,0.0,0.0,0.0,0.0,0.0,0.0,0.0,0.0,0.0,0.0,0.0,0.0,0.0,4.3269,4.341,0.0,4.3506,4.3607,4.3674,4.3674,4.3761,4.3777,4.3691,4.4163,4.4399,4.4287,4.4764,4.5039,4.5039,4.5333,4.5524,4.5656,4.5951,4.6391,4.6985,4.6985,4.7281,4.778,4.8002,4.8083,4.8116,4.8587,4.8127,4.7169,4.7169,4.7169,4.717,4.7397,4.7485,4.7509,4.7737,4.7794,4.7794,4.7794,4.7794,4.7794,4.7794,4.7794,4.7794,4.7794,4.7794,4.7927,4.8487,4.864,4.8774,4.9289,4.9398,4.95,4.9805,4.9862,4.9786,4.9475,4.9398,4.9513,4.9824,4.9862,4.9977,5.0264,5.0302,5.0302,5.0302,5.0302,5.0302,5.0302,5.0302,5.0302,5.0302,5.034,5.0374,5.0374,5.0374,5.0374,5.0374,5.0337,5.0312,5.0374,5.0374,5.0442,0.0,0.0,0.0,0.0,0.0,0.0,0.0,0.0,0.0,0.0,0.0,0.0,0.0,0.0,0.0,0.0,0.0,0.0,0.0,0.0,0.0,0.0,0.0,0.0,0.0,0.0,4.3376,4.3269,4.341,4.3506,4.3506,4.3745,4.3901,4.3901,4.4167,4.4314,4.4314,4.4819,4.5104,4.5104,4.5626,4.5902,4.5902,4.6177,4.6296,4.6296,4.6581,4.6994,4.7507,4.7507,4.7801,4.8316,4.8523,4.8632,4.8658,4.8874,4.8307,4.7329,4.7566,4.7639,4.7669,4.7898,4.7974,4.8002,4.8232,4.8314,4.8314,4.8314,4.8314,4.8333,4.8438,4.8468,4.8505,4.8611,4.8634,4.8787,4.9347,4.9505,4.9639,5.0168,5.0302,5.0302,5.0302,5.0302,5.0302,5.0302,5.0302,5.0302,5.0302,5.0302,5.0302,5.0302,5.0302,5.0302,5.0302,5.0302,5.0302,5.0302,5.0302,5.0302,5.0302,5.0302,5.0302,5.0302,5.0302,5.0302,5.0302,5.0302,5.0302,5.0302,5.0302,5.034,5.0437,0.0,0.0,0.0,0.0,0.0,0.0,0.0,0.0,0.0,0.0,0.0,0.0,0.0,0.0,0.0,0.0,0.0,0.0,0.0,0.0,0.0,0.0,0.0,4.3187,4.3314,4.3394,4.344,4.3482,4.3543,4.3561,4.4287,4.4737,4.4737,4.5461,4.5902,4.5902,4.592,4.5938,4.5938,4.5957,4.5975,4.5975,4.6755,4.7131,4.7149,4.7929,4.8296,4.8296,4.8296,4.8296,4.8296,4.8296,4.8296,4.8296,4.8296,4.8296,4.8364,4.9015,4.926,4.9268,4.9276,4.9283,4.9291,4.9291,4.9291,4.9291,4.9291,4.9291,4.9352,4.9688,4.9778,4.985,5.0188,5.0278,5.0278,5.0278,5.0278,5.0278,5.0298,5.0317,5.0317,5.033,5.0361,5.0367,5.0367,5.0372,5.0359,5.0302,5.0302,5.0302,5.0302,5.0302,0.0,5.0302,5.0321,5.034,5.034,5.0359,5.0378,5.034,5.034,5.034,5.0302,5.0302,5.0302,5.0302,5.0302,5.0302,5.0302,5.0302,5.0302,5.0302,0.0,0.0,0.0,0.0,0.0,0.0,0.0,0.0,0.0,0.0,0.0,0.0,0.0,0.0,0.0,0.0,0.0,0.0,0.0,0.0,0.0,0.0,4.3068,4.2994,4.3133,4.3479,4.4072,4.4236,4.4537,4.5186,4.5443,4.5571,4.5571,4.5773,4.5902,4.5902,4.6443,4.6773,4.6773,4.7342,4.7645,4.7645,4.7856,4.7966,4.7966,4.8186,4.8296,4.8296,4.8296,4.8296,4.8296,4.8296,4.8296,4.8296,4.8296,4.8296,4.8325,4.8495,4.8577,4.8595,4.8849,4.9089,4.9291,4.9291,4.9291,4.9291,4.9291,4.9291,4.9333,4.9416,4.9446,4.9461,4.9549,4.957,4.957,4.957,4.957,4.9714,5.0315,5.0447,5.059,5.1186,5.1547,5.1745,5.1745,5.1942,5.1735,5.0512,5.0302,5.0302,5.0302,5.0302,0.0,5.0302,5.085,5.1232,5.1232,5.1754,5.1888,5.1289,5.1232,5.0965,5.034,5.0302,5.0302,5.0302,5.0302,5.0302,5.0302,5.0302,5.0302,0.0,0.0,0.0,0.0,0.0,0.0,0.0,0.0,0.0,0.0,0.0,0.0,0.0,0.0,0.0,0.0,0.0,0.0,0.0,0.0,0.0,0.0,4.3529,4.3601,4.3879,4.3796,4.4026,4.4884,4.5068,4.5315,4.5856,4.6205,4.6406,4.6406,4.6709,4.6911,4.6911,4.77,4.8159,4.8159,4.893,4.9342,4.9342,4.9342,4.9342,4.9342,4.9342,4.9342,4.9342,4.9342,4.9342,0.0,4.9342,4.9342,4.9342,4.9342,4.9342,0.0,0.0,0.0,0.0,0.0,4.8711,4.8929,4.9301,4.9431,4.9487,4.9832,4.9935,4.9951,5.0104,5.0135,5.016,5.026,5.03,5.03,5.03,5.03,5.0432,5.0885,5.0989,5.1121,5.16,5.1881,5.2047,5.2047,5.2221,0.0,5.1045,5.1136,5.1353,5.1353,5.1353,5.1353,5.1353,5.1792,5.2098,5.2098,5.2518,5.2614,5.2136,5.2098,0.0,0.0,0.0,5.1353,5.1353,5.1353,0.0,0.0,0.0,5.1353,5.1353,0.0,0.0,0.0,5.0417,5.0245,0.0,0.0,0.0,0.0,0.0,0.0,0.0,0.0,0.0,0.0,0.0,0.0,0.0,0.0,0.0,0.0,4.4086,4.4345,4.5139,4.4784,4.4815,4.5808,4.5909,4.5983,4.6149,4.6819,4.7222,4.7256,4.7973,4.8423,4.8466,0.0,0.0,0.0,0.0,5.0802,5.0802,5.0802,5.0802,5.0802,5.0802,5.0802,5.0802,5.0802,5.0802,5.0802,5.0802,5.0802,5.0802,5.0802,5.0802,5.0655,4.9159,4.8572,4.8572,4.8572,4.8572,4.8682,4.9472,0.0,0.0,5.0563,5.0802,5.0854,5.1139,5.1232,5.1296,5.153,5.1605,5.1605,5.1605,5.1605,5.1615,5.1709,5.1728,5.1765,5.1859,5.1911,5.1936,5.1936,5.1951,5.1984,5.1984,5.2378,5.2679,5.2679,5.2679,5.2679,5.2679,5.2755,5.2813,5.2813,0.0,0.0,5.2832,5.2857,5.2857,5.2742,5.2773,5.2811,5.2811,5.2811,5.2811,5.2811,5.2811,5.2779,5.2786,5.2786,5.278,5.2729,5.1264,5.1009,0.0,0.0,0.0,0.0,0.0,0.0,0.0,0.0,0.0,0.0,0.0,0.0,0.0,0.0,0.0,4.4392,4.4057,4.4064,4.4852,4.4881,4.5252,4.6473,4.6607,4.6922,4.7755,4.7936,4.8058,4.8218,4.8808,4.9252,4.9416,5.0143,5.0563,5.0563,5.0729,5.0802,5.0802,5.0802,5.0802,5.0802,0.0,0.0,5.0802,5.0802,5.0802,5.0802,5.0802,5.0802,5.0802,5.0802,5.0802,5.0765,5.0435,5.0325,5.0325,5.0325,5.0325,5.0343,5.0508,5.0563,5.0582,5.0747,5.0802,5.0812,5.0884,5.0904,0.0,5.0955,5.0975,5.0975,5.0975,5.0975,5.1141,5.1796,5.1943,5.2118,5.2771,5.3112,5.3302,5.3302,5.3584,5.3791,5.3791,5.2744,5.1902,5.1902,5.1902,5.1902,5.1902,5.2531,5.2953,5.2953,5.3823,5.4026,5.3033,5.3262,5.3141,5.2439,5.2647,5.2811,5.2811,5.2811,5.2811,5.2811,5.2811,5.2749,5.2634,5.2634,5.2574,5.2465,5.2361,5.2409,0.0,0.0,0.0,0.0,0.0,0.0,0.0,0.0,0.0,0.0,0.0,4.3914,0.0,0.0,4.4232,4.4632,4.4478,4.4576,4.5389,4.5828,4.617,4.6505,4.6875,4.7319,4.789,4.8315,4.8601,4.8697,4.8969,4.9194,4.9299,4.9974,5.0346,5.0346,5.0736,5.0987,5.1044,5.1328,5.149,5.1591,5.1881,5.2003,5.2003,5.2003,5.2003,5.2003,5.2003,5.2003,5.2003,5.2003,5.2003,5.2003,5.2003,5.1508,5.0802,5.0802,5.0802,5.0857,5.1261,5.1389,5.1463,5.1875,5.2003,5.2003,5.2003,5.2003,5.2003,5.2003,5.2003,5.2003,5.2003,5.2003,5.2095,5.2509,5.2601,5.2711,5.3104,5.3336,5.3452,5.3452,5.3602,5.3747,5.3747,5.3041,5.2586,5.2955,5.2995,5.2995,5.2995,5.337,5.366,5.366,5.4183,5.431,5.3695,5.3825,5.3751,5.3337,5.3452,5.3541,5.3541,5.3541,5.3541,5.3541,5.3474,5.3448,5.346,5.3319,5.3256,5.3244,5.3312,5.3206,0.0,0.0,0.0,0.0,0.0,0.0,0.0,0.0,4.3368,4.3321,4.3655,4.4044,4.4384,4.4202,4.4228,4.4869,4.5027,4.5279,4.5932,4.6651,4.6934,4.6455,4.7124,4.7668,4.7803,4.8431,4.8838,4.8884,4.9002,4.9068,4.9096,4.9766,5.0127,5.0127,5.0754,5.1138,5.1258,5.1698,5.1988,5.2149,5.259,5.2787,5.2787,5.2787,5.2861,5.2966,5.3071,5.3143,5.3164,5.3164,5.3175,5.3196,5.3196,5.2407,5.1279,5.1279,5.1279,5.1361,5.2013,5.2234,5.2344,5.2994,5.3196,5.3196,5.3196,5.3196,5.3196,5.3196,5.3196,5.3196,5.3196,5.3196,5.3196,5.3196,5.3196,5.3196,5.3196,5.3196,5.3196,5.3196,5.3196,5.3196,5.3196,5.3196,5.3398,5.3999,5.4089,5.4089,5.4089,5.4089,5.4089,5.4089,5.4132,5.4176,5.4176,5.4176,5.4176,5.4176,5.4264,5.4306,5.4306,5.4271,5.4262,5.4262,5.4128,5.4093,5.4184,5.3978,5.3905,5.3969,5.3805,5.3559,4.2892,4.2892,4.2702,4.186,4.2466,4.3131,0.0,0.0,4.3541,4.3128,4.395,4.4661,4.4297,4.4712,4.5157,4.5243,4.547,4.5634,4.5719,4.6379,4.6835,4.6748,4.7702,4.8423,4.8556,4.8562,4.8609,4.8809,4.9319,4.9697,4.9879,5.0567,5.0962,5.0962,5.1046,5.1099,5.1112,5.1176,5.1215,5.1246,5.131,5.1317,5.1317,5.1317,5.1635,5.2155,5.2631,5.2912,5.302,5.302,5.3092,5.3196,5.3196,5.3086,5.2939,5.2939,5.2939,5.2939,5.3031,5.3067,5.3086,5.3177,5.3196,5.3196,5.3196,5.3196,5.3196,5.3196,5.3196,5.3196,5.3196,5.3196,5.3196,5.3196,5.3196,5.3196,5.3196,5.3196,5.3196,5.3196,5.3196,5.3196,5.3196,5.3196,5.3227,5.3314,5.3324,5.3324,5.3324,5.3324,5.3324,5.3324,5.3593,5.3777,5.3777,5.3777,5.3777,5.3777,5.4105,5.4306,5.4306,5.4182,5.4119,5.4119,5.3985,5.3859,5.3758,5.3739,5.3635,5.3468,5.3219,5.3353,4.2149,4.2405,0.0,0.0,4.2841,4.3422,4.2949,4.339,4.3895,4.3729,4.4247,4.4754,4.4828,4.5229,4.5527,0.0,4.5979,4.6346,4.6346,4.6989,4.743,4.743,4.8238,4.8635,4.8275,4.8634,4.8945,4.9025,4.9275,4.9456,4.9534,4.9737,4.9881,4.9881,4.9881,4.9925,4.9979,5.0297,5.0517,5.0643,5.096,5.1099,5.1099,5.1099,5.1233,5.1497,5.1721,5.1843,5.1886,5.1886,5.1928,5.1976,5.1976,5.1976,5.2089,5.2893,5.3196,5.3196,5.3196,5.3196,5.3196,5.3196,5.3196,5.3196,5.3196,5.3196,5.3196,5.3196,5.3196,5.3196,5.3196,5.3196,5.3196,5.3196,5.3196,5.3196,5.3196,5.3196,5.3196,5.3196,5.3196,5.3196,5.3196,5.3143,5.3103,5.3185,5.3196,5.3196,5.3196,5.3196,5.3196,5.3196,5.3326,5.341,5.341,5.341,5.341,5.341,5.3562,5.366,5.366,5.3535,5.3467,5.3467,5.324,5.3156,5.318,5.3054,5.2979,5.2936,5.2783,5.2842,4.1982,0.0,0.0,4.2589,4.317,4.3678,4.3219,4.3704,4.4253,4.4309,4.4467,4.4774,4.5309,4.5563,4.5771,4.5974,4.6616,4.7107,4.7107,4.775,4.8208,4.8208,4.8665,4.8783,4.8259,4.8772,4.9138,4.9138,4.9138,4.9138,4.9138,4.9063,4.9001,4.9001,4.9001,4.9048,4.9138,4.9536,4.9795,4.9956,5.0328,5.0517,5.0531,5.0693,5.0761,5.0774,5.0933,5.1012,5.1034,5.1034,5.1078,5.1099,5.1099,5.1099,5.1215,5.2231,5.2732,5.289,5.3039,5.3082,5.3082,5.3082,5.3082,5.3082,5.3082,5.3082,5.3082,5.3082,5.3082,5.3082,5.3082,5.3082,5.3082,5.3082,5.3082,5.3082,5.3082,5.3082,5.3082,5.3082,5.3082,5.3082,5.3082,5.2999,5.2977,5.3071,5.3082,5.3092,5.3153,5.3135,5.3135,5.3135,5.3175,5.3164,5.3111,5.3114,5.3143,5.3082,5.3082,5.3082,5.3082,5.2966,5.2893,5.2893,5.2683,5.2627,5.2724,5.2561,5.2526,5.2563,5.2526,5.2498,0.0,0.0,4.3451,4.2534,4.3197,4.395,4.3491,4.4005,4.4595,4.4592,4.4581,4.4821,4.5548,4.5686,4.594,4.665,4.7394,4.787,4.787,4.8496,4.8968,4.8968,4.8984,4.9001,0.0,4.8984,4.9001,4.9001,4.9001,4.9001,4.9001,4.9001,4.9001,4.9001,4.9001,4.9001,4.9001,4.9017,4.9032,4.9048,4.9063,4.9061,4.9077,4.9671,4.9948,4.9959,5.0497,5.0792,5.0911,5.0911,5.0986,5.1099,5.1099,5.1099,5.1099,5.1138,5.1535,5.2108,5.2631,5.2806,5.2806,5.2806,5.2806,5.2806,5.2806,5.2806,5.2806,5.2806,5.2806,5.2806,5.2806,5.2806,5.2806,5.2806,5.2806,5.2806,5.2806,5.2806,5.2806,5.2806,5.2806,5.2806,5.2806,5.2806,5.2806,5.2806,5.2806,5.2868,5.2988,5.3009,5.3009,5.3009,5.3114,5.3082,5.2828,5.2926,5.2955,5.2817,5.2806,5.2806,5.2806,5.2687,5.2613,5.2613,5.2542,5.251,5.251,5.251,5.251,5.251,5.2498,5.2498,0.0,0.0,4.3437,4.3112,4.3742,4.4381,4.4236,4.4415,4.4736,4.5229,4.5331,4.5551,4.6295,4.6836,4.7244,4.7481,4.814,4.8631,4.8631,4.8849,4.9001,4.9001,4.9001,0.0,0.0,0.0,0.0,4.9001,4.9001,4.9001,4.9001,4.9001,4.9001,4.9001,4.9001,4.9001,4.9001,4.9001,4.9001,4.9001,4.9001,4.9001,4.9001,4.9214,4.9303,4.9303,4.9494,4.9595,4.9639,4.9639,4.9669,4.971,4.971,4.971,4.9754,5.0153,5.0432,5.0706,5.1416,5.1666,5.1666,5.1666,5.1666,5.1666,5.1666,5.1946,5.228,5.228,5.2529,5.2794,5.2794,5.2794,5.2794,5.2794,5.2794,5.2794,5.2794,5.2794,5.2794,5.2794,5.2794,5.2794,5.2794,5.2739,5.2665,5.2665,5.2828,5.2955,5.298,5.3082,5.3124,5.3124,5.3175,5.3143,5.2955,5.2959,5.2937,5.2806,5.2794,5.2794,5.2794,5.2676,5.2602,5.2602,5.2531,5.2498,5.2498,5.2498,5.2498,5.2498,5.2498,5.2498,0.0,4.3484,4.3826,4.3826,4.4228,4.4615,4.4615,4.4804,4.5128,4.5602,4.5906,4.6312,4.7056,4.7582,4.7988,4.8242,4.8682,4.9001,4.9001,4.9001,4.9001,4.9001,4.9001,0.0,0.0,0.0,0.0,4.9001,4.9001,4.9001,4.9001,4.9001,4.9001,4.9001,4.9001,4.9001,4.9001,4.9001,4.9001,4.9001,4.9001,4.9001,4.9001,4.9001,4.9001,4.9001,4.9001,4.9001,4.9001,4.9001,4.9001,4.9001,4.9001,4.9001,4.9048,4.9439,4.9585,4.9715,5.0626,5.096,5.096,5.096,5.096,5.096,5.096,5.1225,5.154,5.154,5.1776,5.206,5.206,5.206,5.206,5.206,5.206,5.206,5.206,5.206,5.206,5.206,5.206,5.206,5.206,5.197,5.1922,5.1922,5.2119,5.2406,5.2872,5.2966,5.2988,5.2988,5.3071,5.3049,5.2835,5.289,5.2872,5.275,5.2712,5.2694,5.2739,5.2608,5.257,5.257,5.2526,5.2498,5.2498,5.2498,5.2498,5.2498,5.2498,5.2498,4.4398,4.4615,4.4615,4.4615,4.4615,4.4601,4.4649,4.5196,4.572,4.579,4.6363,4.7073,0.0,0.0,4.8191,4.89,4.9001,4.9001,4.9001,4.9001,4.9001,0.0,0.0,0.0,0.0,0.0,0.0,4.9001,0.0,4.9001,4.9001,4.9001,4.9001,4.9001,4.9001,4.9001,4.9001,4.9001,4.9001,4.9001,4.9001,4.9001,4.9001,4.9001,4.9001,4.9001,4.9001,4.9001,4.9001,4.9001,4.9001,4.9001,4.9001,4.9001,4.9001,4.9001,4.9001,4.9136,5.0248,5.0599,5.0599,5.0599,5.0599,5.0599,5.0599,5.0626,5.067,5.067,5.0684,5.0711,5.0711,5.0711,5.0711,5.0711,5.0711,5.0711,5.0711,5.0711,5.0711,5.0711,5.0711,5.0711,5.0711,5.0711,5.0711,5.0711,5.0818,5.134,5.2597,5.2642,5.2579,5.2602,5.2839,5.2857,5.2526,5.2679,5.2739,5.259,5.2531,5.2538,5.2579,5.2531,5.2498,5.2498,5.2498,5.2498,5.2498,5.2498,5.2498,5.2498,5.2498,5.2498,4.4533,4.4615,4.4615,4.4615,4.4615,4.4736,4.528,4.5568,4.6024,4.7109,4.7481,4.7836,0.0,0.0,0.0,4.8968,4.9001,0.0,4.9001,4.9001,0.0,0.0,0.0,4.9001,4.9001,4.9001,0.0,0.0,4.9001,4.9001,4.9001,4.9001,4.9001,4.9001,4.9001,4.9001,4.9001,4.9001,4.9001,4.9001,4.9001,4.9001,4.9001,4.9001,4.9001,4.9001,4.9001,4.9001,4.9001,4.9001,4.9001,4.9001,4.9001,4.9001,4.9001,4.9001,4.9001,4.9048,4.9331,4.9434,4.9434,4.9434,4.9434,4.9434,4.9434,4.9742,5.0099,5.0099,5.0387,5.0711,5.0711,5.0711,5.0711,5.0711,5.0711,5.0711,5.0711,5.0711,5.0711,5.0711,5.0711,5.0711,5.0711,5.0711,5.0711,5.0711,5.0738,5.1069,5.1928,5.2102,5.2315,5.2717,5.2806,5.2772,5.2586,5.262,5.2627,5.2519,5.2503,5.2521,5.2526,5.2503,5.2498,5.2498,5.2498,5.2498,5.2498,5.2498,5.2498,5.2498,5.2498,5.2498,4.4615,4.4615,4.4615,4.4615,4.4615,4.4787,4.5534,4.5957,4.6515,4.7667,4.8157,0.0,0.0,0.0,0.0,0.0,0.0,0.0,4.9001,4.9001,4.9001,0.0,4.9001,0.0,4.9001,4.9001,4.9001,0.0,4.9001,4.9001,4.9001,4.9001,4.9001,4.9001,4.9001,4.9001,4.9001,4.9001,4.9001,4.9001,4.9001,4.9001,4.9001,4.9001,4.9001,4.9001,0.0,4.9001,4.9001,4.9001,4.9001,4.9001,4.9001,4.9001,4.9001,4.9001,4.9001,4.9001,4.9001,4.9001,4.9001,4.9001,4.9001,4.9001,4.9001,4.9245,4.9496,4.9496,4.9727,4.9953,4.9953,4.9953,4.9953,4.9953,4.9953,4.9953,4.9953,4.9953,4.9953,4.9953,4.9953,4.9953,4.9953,4.9953,4.9953,4.9953,4.9953,5.0209,5.088,5.1247,5.1535,5.1849,5.2173,5.2315,5.2179,5.2424,5.2586,5.2554,5.2515,5.2515,5.2542,5.2515,5.2498,5.2498,5.2498,5.2498,5.2498,5.2498,5.2498,5.2498,5.2498,5.2498,4.4615,4.4615,4.4615,4.4615,4.4668,4.4939,4.5686,4.6413,4.7158,4.7887,0.0,4.9001,4.9001,4.9001,4.9001,4.9001,0.0,4.9001,4.9001,4.9001,4.9001,4.9001,4.9001,4.9001,4.9001,4.9001,4.9001,4.9001,4.9001,4.9001,4.9001,4.9001,4.9001,4.9001,4.9001,4.9001,4.9001,4.9001,4.9001,4.9001,4.9001,4.9001,4.9001,4.9001,4.9001,4.9001,0.0,0.0,4.9001,4.9001,4.9001,4.9001,4.9001,4.9001,4.9001,4.9001,4.9001,4.9001,4.9001,4.9001,4.9001,4.9001,4.9001,4.9001,4.9001,4.9001,4.9001,4.9001,4.9001,4.9001,4.9001,4.9001,4.9001,4.9001,4.9001,4.9001,4.9001,4.9001,4.9001,4.9001,4.9001,4.9001,4.9001,4.9001,4.9001,4.9001,4.9001,4.9184,4.9701,5.0265,5.0616,5.068,5.1268,5.1608,5.15,5.2,5.2348,5.2348,5.2374,5.2415,5.2465,5.2485,5.2498,5.2498,5.2498,5.2498,5.2498,5.2498,5.2498,5.2498,5.2498,5.2498,4.4615,4.4615,4.4615,4.4615,4.5058,4.5703,4.643,4.7192,0.0,0.0,0.0,4.9001,4.9001,4.9001,0.0,4.9001,0.0,0.0,0.0,0.0,4.9001,0.0,0.0,0.0,0.0,0.0,0.0,0.0,0.0,4.9001,4.9001,4.9001,4.9001,4.9001,4.9001,4.9001,4.9001,4.9001,4.9001,4.9001,4.9001,4.9001,4.9001,4.9001,4.9001,4.9001,4.9001,0.0,4.9001,4.9001,4.9001,4.9001,4.9001,4.9001,4.9001,4.9001,4.9001,4.9001,4.9001,4.9001,4.9001,4.9001,4.9001,4.9001,4.9001,4.9001,4.9001,4.9001,4.9001,4.9001,4.9001,4.9001,4.9001,4.9001,4.9001,4.9001,4.9001,4.9001,4.9001,4.9001,4.9001,4.9001,4.9001,4.9001,4.9001,4.9001,4.9001,4.9048,4.9138,4.9671,5.0212,5.0657,5.0801,5.0885,5.0858,5.0964,5.1025,5.1025,5.1482,5.1756,5.1763,5.2233,5.2498,5.2498,5.2498,5.2498,5.2498,5.2498,5.2498,5.2498,5.2498,5.2498,4.4615,4.4615,4.4615,4.4615,4.5159,4.5889,4.6616,0.0,0.0,0.0,0.0,4.9001,4.9001,0.0,0.0,0.0,0.0,0.0,0.0,0.0,0.0,0.0,0.0,0.0,0.0,0.0,0.0,0.0,0.0,4.9001,4.9001,4.9001,4.9001,4.9001,4.9001,4.9001,4.9001,4.9001,4.9001,4.9001,4.9001,4.9001,4.9001,4.9001,4.9001,4.9001,4.9001,0.0,4.9001,4.9001,4.9001,4.9001,4.9001,4.9001,4.9001,4.9001,4.9001,4.9001,4.9001,4.9001,4.9001,4.9001,4.9001,4.9001,4.9001,4.9001,4.9001,4.9001,4.9001,4.9001,4.9001,4.9001,4.9001,4.9001,4.9001,4.9001,4.9001,4.9001,4.9001,4.9001,4.9001,4.9001,4.9001,4.9001,4.9001,4.9001,4.9001,4.9001,4.9001,4.9243,4.9524,4.9783,5.0096,5.0279,5.0279,5.0535,5.0711,5.0711,5.0982,5.1126,5.1126,5.1419,5.1701,5.2024,5.2024,5.2186,5.2498,5.2498,5.2498,5.2498,5.2933,5.3114,4.4615,4.4615,4.4615,4.4615,4.5277,4.6092,4.6667,4.7496,0.0,0.0,4.9001,4.9001,4.9001,0.0,0.0,0.0,0.0,0.0,0.0,0.0,0.0,0.0,0.0,0.0,0.0,0.0,0.0,0.0,0.0,0.0,4.9001,4.9001,4.9001,4.9001,4.9001,4.9001,4.9001,4.9001,4.9086,4.9238,4.9238,4.9323,4.9459,4.9459,4.9459,4.9459,4.9459,0.0,0.0,4.9459,4.9459,4.9459,4.9459,4.9459,4.9459,4.9459,4.9459,4.9459,4.9459,4.9459,4.9459,4.9459,4.9272,4.9001,4.9001,4.9001,4.9001,4.9001,4.9001,4.9001,4.9001,4.9001,4.9001,4.9001,4.9001,4.9001,4.9001,4.9001,4.9001,4.9001,4.9001,4.9001,4.9001,4.9001,4.9001,4.9001,4.9001,4.9001,4.9001,4.9137,4.9238,4.9238,4.9524,4.9718,4.9718,5.0096,5.0345,5.0345,5.0452,5.0538,5.0538,5.0643,5.1066,5.1838,5.1856,5.2237,5.3005,5.3005,5.3005,5.3023,5.3657,5.3965,4.4615,4.4615,4.4615,4.4615,4.5667,4.6733,4.6783,0.0,0.0,4.8984,4.9001,4.9001,4.9001,4.9001,0.0,0.0,0.0,4.9001,0.0,0.0,0.0,0.0,0.0,0.0,0.0,0.0,0.0,0.0,0.0,0.0,4.9001,4.9001,4.9001,4.9001,4.9001,4.9001,4.9001,4.9001,4.934,4.9998,4.9998,5.0355,5.0998,5.0998,5.0998,5.0998,5.0998,0.0,0.0,5.0998,5.0998,5.0998,5.0998,5.0998,5.0998,5.0998,5.0998,5.0998,5.0998,5.0998,5.0998,5.0998,5.0085,4.9001,4.9001,4.9001,4.9001,4.9001,4.9001,4.9001,4.9001,4.9001,4.9001,4.9001,4.9001,4.9001,4.9001,4.9001,4.9001,4.9001,4.9001,4.9001,4.9001,4.9001,4.9001,4.9001,4.9001,4.9001,4.9001,4.9576,4.9998,4.9998,4.9452,4.9077,4.9077,4.9123,4.9168,4.9168,4.9671,4.9974,4.9974,5.0442,5.133,5.2659,5.2689,5.3349,5.4677,5.4677,5.4677,5.4677,5.4762,5.4798,4.4615,4.4615,4.4615,4.4615,4.5379,4.6244,4.6699,0.0,0.0,4.8917,4.9001,4.9001,4.9001,4.9001,4.9001,0.0,0.0,0.0,0.0,0.0,0.0,0.0,0.0,0.0,0.0,0.0,0.0,0.0,0.0,0.0,4.9001,4.9001,4.9001,4.9001,4.9001,4.9221,4.9661,4.9661,5.0033,5.076,5.076,5.0914,5.1201,5.1201,5.1201,5.1201,5.1201,0.0,0.0,5.1201,5.1201,5.1201,5.1201,5.1201,5.1201,5.1201,5.1201,5.1201,5.1201,5.1201,5.1201,5.1201,5.0795,5.0322,5.0322,5.0322,5.0322,5.0322,5.0322,5.0322,5.0322,5.0322,5.0322,5.0322,5.0322,5.0322,5.0322,5.0322,5.0322,5.0322,5.0322,5.0322,5.0322,5.0322,5.0322,5.0322,5.0322,5.0322,5.0322,5.0591,5.076,5.076,5.0491,5.0322,5.0322,5.0322,5.0322,5.0322,5.054,5.0862,5.1282,5.1497,5.2204,5.3505,5.3531,5.3984,5.4894,5.4894,5.4894,5.4907,5.5359,5.5558,4.4533,4.4615,4.4615,4.4615,4.5159,4.5838,0.0,0.0,4.8056,4.8563,4.8849,4.9001,4.9001,4.9001,4.9001,4.9001,0.0,4.9001,0.0,0.0,0.0,0.0,0.0,0.0,0.0,0.0,0.0,0.0,0.0,0.0,0.0,4.9001,4.9001,4.9001,4.9221,4.956,5.01,5.0321,5.0794,5.1522,5.1522,5.1641,5.1877,5.1877,5.1877,5.1877,0.0,0.0,0.0,5.1877,5.1877,5.1877,5.1877,5.1877,5.1877,5.1877,5.1877,5.1877,5.1877,5.1877,5.1877,5.1877,5.1877,5.1877,5.1877,5.1556,5.1201,5.1201,5.1201,5.1201,5.1201,5.1201,5.1201,5.1201,5.1201,5.1201,5.1201,5.1201,5.1201,5.1201,5.1201,5.1201,5.1201,5.1201,5.1201,5.1201,5.1201,5.1201,5.1201,5.1387,5.1522,5.1522,5.1742,5.1789,5.1522,5.1487,5.1564,5.1751,5.1766,5.1964,5.2443,5.2473,5.307,5.4335,5.4348,5.4768,5.5577,5.5577,5.5577,5.5595,5.6102,5.6337,4.4381,4.4615,4.4615,4.4615,4.5159,4.5703,0.0,0.0,4.7904,4.7921,4.8479,4.9001,4.9001,4.9001,4.9001,4.9001,4.9001,0.0,0.0,0.0,0.0,0.0,0.0,0.0,0.0,0.0,0.0,0.0,0.0,0.0,0.0,4.9001,4.9001,4.9001,4.9712,5.01,5.01,5.0812,5.1556,5.2283,5.2283,5.2706,5.3484,5.3484,5.3484,0.0,0.0,0.0,0.0,5.3484,5.3484,5.3484,5.3484,5.3484,5.3484,5.3484,5.3484,5.3484,5.3484,5.3484,5.3484,5.3484,5.3484,5.3484,5.3484,5.2402,5.1201,5.1201,5.1201,5.1201,5.1201,5.1201,5.1201,5.1201,5.1201,5.1201,5.1201,5.1201,5.1201,5.1201,5.1201,5.1201,5.1201,5.1201,5.1201,5.1201,5.1201,5.1201,5.1201,5.1827,5.2283,5.2283,5.301,5.3138,5.2255,5.2192,5.2443,5.3029,5.3071,5.3071,5.3085,5.3085,5.3751,5.5151,5.5183,5.584,5.717,5.717,5.717,5.717,5.717,5.7188,4.4381,4.4615,4.4615,4.4615,4.477,4.5091,4.5602,0.0,4.6686,4.7701,4.809,4.8394,4.8917,4.9001,4.9001,4.9001,4.9001,0.0,0.0,0.0,0.0,0.0,0.0,0.0,0.0,0.0,0.0,0.0,0.0,0.0,0.0,4.9001,4.9238,4.9729,4.9981,5.0574,5.1589,5.1843,5.235,5.3129,5.3129,5.3264,5.3501,5.3501,0.0,0.0,0.0,0.0,0.0,5.3501,5.3501,5.3501,5.3501,5.3501,5.3501,5.3501,5.3501,5.3501,5.3501,5.3501,5.3501,5.3501,5.3501,5.3501,5.3501,5.3162,5.2757,5.2757,5.2757,5.2757,5.2757,5.2757,5.2757,5.2757,5.2757,5.2757,5.2757,5.2757,5.2757,5.2757,5.2757,5.2757,5.2757,5.2757,5.2757,5.2757,5.2757,5.2757,5.2757,5.2993,5.3129,5.3129,5.3712,5.3997,5.3718,5.3698,5.3975,5.4633,5.4676,5.4863,5.5271,5.5285,5.5696,5.6549,5.658,5.6783,5.7188,5.7188,5.7188,5.7188,5.7188,5.7188,0.0,4.4615,4.4615,4.4615,4.4615,0.0,0.0,0.0,4.6027,4.7242,4.7718,4.8124,4.8851,4.9001,4.9001,4.9001,0.0,0.0,0.0,0.0,0.0,0.0,0.0,0.0,0.0,0.0,0.0,0.0,0.0,0.0,0.0,4.9001,4.9475,5.049,5.0524,5.1099,5.2283,5.2604,5.301,5.3501,5.3501,5.3501,5.3501,5.3501,0.0,0.0,0.0,0.0,0.0,5.3501,5.3501,5.3501,5.3501,5.3501,5.3501,5.3501,5.3501,5.3501,5.3501,5.3501,5.3501,5.3501,5.3501,5.3501,5.3501,5.3501,5.3501,5.3501,5.3501,5.3501,5.3501,5.3501,5.3501,5.3501,5.3501,5.3501,5.3501,5.3501,5.3501,5.3501,5.3501,5.3501,5.3501,5.3501,5.3501,5.3501,5.3501,5.3501,5.3501,5.3501,5.3501,5.3501,5.4043,5.4501,5.4765,5.4976,5.5394,5.6045,5.6087,5.6252,5.6621,5.6653,5.6824,5.7188,5.7188,5.7188,5.7188,5.7188,5.7188,5.7188,5.7188,5.7188,0.0,0.0,0.0,0.0,0.0,0.0,0.0,0.0,0.0,4.6648,4.7329,4.8056,4.8849,4.9001,4.9001,0.0,0.0,0.0,0.0,0.0,0.0,0.0,0.0,0.0,0.0,0.0,0.0,0.0,0.0,0.0,0.0,4.9001,4.9695,5.115,5.1201,5.1573,5.2384,5.3129,5.3501,5.3501,5.3501,5.3501,5.3501,5.3501,0.0,0.0,0.0,0.0,0.0,5.3501,5.3501,5.3501,5.3501,5.3501,5.3501,5.3501,5.3501,5.3501,5.3501,5.3501,5.3501,5.3501,5.3501,5.3501,5.3501,5.3501,5.3501,5.3501,5.3501,5.3501,5.3501,5.3501,5.3501,5.3501,5.3501,5.3501,5.3501,5.3501,5.3501,5.3501,5.3501,5.3501,5.3501,5.3501,5.3501,5.3501,5.3501,5.3501,5.3501,5.3501,5.3517,5.3568,5.4107,5.4734,5.5399,5.5992,5.6555,5.7163,5.7188,5.7188,5.7188,5.7188,5.7188,5.7188,5.7188,5.7188,5.7188,5.7188,5.7188,5.7188,5.7188,5.7188,4.4381,0.0,4.4615,4.4615,4.4615,4.4615,0.0,0.0,0.0,0.0,0.0,0.0,0.0,0.0,0.0,0.0,0.0,0.0,0.0,0.0,0.0,0.0,0.0,0.0,0.0,0.0,0.0,0.0,0.0,0.0,0.0,4.9001,4.9695,5.115,5.1201,5.1844,5.3213,5.3416,5.3501,5.3501,5.3501,5.3501,5.3501,5.3501,0.0,0.0,0.0,0.0,5.3501,5.3501,5.3501,5.3501,5.3501,5.3501,5.3501,5.3501,5.3501,5.3501,5.3501,5.3501,5.3501,5.3501,5.3501,5.3501,5.3501,5.3501,5.3501,5.3501,5.3501,5.3501,5.3501,5.3501,5.3501,5.3501,5.3501,5.3501,5.3501,5.3501,5.3501,5.3501,5.3501,5.3501,5.3501,5.3501,5.3501,5.3501,5.3501,5.3501,5.3501,5.3501,5.3668,5.4139,5.4782,5.5429,5.6049,5.6215,5.6555,5.7163,5.7188,5.7188,5.7188,5.7188,5.7188,5.7188,5.7188,5.7188,5.7188,5.7188,5.7188,5.7188,5.7188,5.7188,4.4482,4.4615,4.4615,4.4615,4.4615,4.4615,0.0,0.0,0.0,0.0,0.0,0.0,0.0,0.0,0.0,0.0,0.0,0.0,0.0,0.0,0.0,0.0,0.0,0.0,0.0,0.0,0.0,0.0,0.0,0.0,0.0,4.9001,4.9695,5.115,5.1201,5.1945,5.3484,5.3501,5.3501,5.3501,5.3501,5.3501,5.3501,5.3501,5.3501,0.0,0.0,0.0,5.3501,5.3501,5.3501,5.3501,5.3501,5.3501,5.3501,5.3501,5.3501,5.3501,5.3501,5.3501,5.3501,5.3501,5.3501,5.3501,5.3501,5.3501,5.3501,5.3501,5.3501,5.3501,5.3501,5.3501,5.3501,5.3501,5.3501,5.3501,5.3501,5.3501,5.3501,5.3501,5.3501,5.3501,5.3501,5.3501,5.3501,5.3501,5.3501,5.3501,5.3501,5.3501,5.3734,5.4345,5.4976,5.5615,5.6243,5.6541,5.685,5.7176,5.7188,5.7188,5.7188,5.7188,5.7188,5.7188,5.7188,5.7188,5.7188,5.7188,5.7188,5.7188,5.7188,5.7188,4.4615,4.4615,4.4615,4.4615,4.4615,4.4615,4.4615,0.0,0.0,0.0,0.0,0.0,0.0,0.0,0.0,0.0,0.0,0.0,0.0,0.0,0.0,0.0,0.0,0.0,0.0,0.0,0.0,0.0,0.0,0.0,0.0,4.9001,4.9612,5.0981,5.1133,5.1877,5.3315,5.345,5.3501,5.3501,5.3501,5.3501,5.3501,5.3501,5.3501,0.0,0.0,0.0,5.3501,5.3501,5.3501,5.3501,5.3501,5.3501,5.3501,5.3501,5.3501,5.3501,5.3501,5.3501,5.3501,5.3501,5.3501,5.3501,5.3501,5.3501,5.3501,5.3501,5.3501,5.3501,5.3501,5.3501,5.3501,5.3501,5.3501,5.3501,5.3501,5.3501,5.3501,5.3501,5.3501,5.3501,5.3501,5.3501,5.3501,5.3501,5.3501,5.3501,5.3501,5.3501,5.3767,5.4469,5.5004,5.5609,5.638,5.6902,5.7188,5.7188,5.7188,5.7188,5.7188,5.7188,5.7188,5.7188,5.7188,5.7188,5.7188,5.7188,5.7188,5.7188,5.7188,5.7188,4.4615,4.4615,4.4615,4.4615,4.4615,4.4615,4.4615,0.0,0.0,0.0,0.0,0.0,0.0,0.0,0.0,0.0,0.0,0.0,0.0,0.0,0.0,0.0,0.0,0.0,0.0,0.0,0.0,0.0,0.0,0.0,0.0,4.9001,4.939,5.0236,5.0863,5.1607,5.2486,5.3162,5.3501,5.3501,5.3501,5.3501,5.3501,5.3501,5.3501,0.0,0.0,5.3501,5.3501,5.3501,5.3501,5.3501,5.3501,5.3501,5.3501,5.3501,5.3501,5.3501,5.3501,5.3501,5.3501,5.3501,5.3501,5.3501,5.3501,5.3501,5.3501,5.3501,5.3501,5.3501,5.3501,5.3501,5.3501,5.3501,5.3501,5.3501,5.3501,5.3501,5.3501,5.3501,5.3501,5.3501,5.3501,5.3501,5.3501,5.3501,5.3501,5.3501,5.3501,5.3501,5.3948,5.5117,5.5325,5.5844,5.6966,5.7138,5.7188,5.7188,5.7188,5.7188,5.7188,5.7188,5.7188,5.7188,5.7188,5.7188,5.7188,5.7188,5.7188,5.7188,5.7188,5.7188,4.4615,4.4615,4.4615,4.4615,4.4615,4.4702,0.0,0.0,0.0,0.0,0.0,0.0,0.0,0.0,0.0,0.0,0.0,0.0,0.0,0.0,0.0,0.0,0.0,0.0,0.0,0.0,0.0,0.0,0.0,0.0,0.0,0.0,4.934,5.0083,5.0812,5.1539,5.23,5.3112,5.3501,5.3501,5.3501,5.3501,5.3501,5.3501,5.3501,5.3501,0.0,5.3501,5.3501,5.3501,5.3501,5.3501,5.3501,5.3501,5.3501,5.3501,5.3501,5.3501,5.3501,5.3501,5.3501,5.3501,5.3501,5.3501,5.3501,5.3501,5.3501,5.3501,5.3501,5.3501,5.3501,5.3501,5.3501,5.3501,5.3501,5.3501,5.3501,5.3501,5.3501,5.3501,5.3501,5.3501,5.3501,5.3501,5.3501,5.3501,5.3501,5.3501,5.3501,5.3783,5.4346,5.5296,5.569,5.6239,5.7125,5.7188,5.7188,5.7188,5.7188,5.7188,5.7188,5.7188,5.7188,5.7188,5.7188,5.7188,5.7188,5.7188,5.7188,5.7188,5.7188,5.7188,4.4615,4.4615,4.4615,4.4615,0.0,0.0,0.0,0.0,0.0,0.0,0.0,0.0,0.0,0.0,0.0,0.0,0.0,0.0,0.0,0.0,0.0,0.0,0.0,0.0,0.0,0.0,0.0,0.0,0.0,0.0,0.0,0.0,4.9255,4.9813,5.0557,5.1286,5.2046,5.2824,5.3315,5.3501,5.3501,5.3501,5.3501,5.3501,5.3501,5.3501,5.3501,5.3501,5.3501,5.3501,5.3501,5.3501,5.3501,5.3501,5.3501,5.3501,5.3501,5.3501,5.3501,5.3501,5.3501,5.3501,5.3501,5.3501,5.3501,5.3501,5.3501,5.3501,5.3501,5.3501,5.3501,5.3501,5.3501,5.3501,5.3501,5.3501,5.3501,5.3501,5.3501,5.3501,5.3501,5.3501,5.3501,5.3501,5.3501,5.3501,5.3501,5.3501,5.3501,5.3897,5.4502,5.5311,5.5805,5.6393,5.7138,5.7188,5.7188,5.7188,5.7188,5.7188,5.7188,5.7188,5.7188,5.7188,5.7188,5.7188,5.7188,5.7188,5.7188,5.7188,5.7188,5.7188,4.4615,4.4615,4.4615,4.4615,4.4045,0.0,4.535,4.5737,0.0,4.7616,0.0,0.0,0.0,0.0,0.0,0.0,0.0,0.0,0.0,0.0,0.0,0.0,0.0,0.0,0.0,0.0,0.0,0.0,0.0,0.0,0.0,0.0,0.0,4.9086,4.9779,5.0524,5.1269,5.2029,5.2756,5.3501,5.3501,5.3501,5.3501,5.3501,5.3501,5.3501,5.3501,5.3501,5.3501,5.3501,5.3501,5.3501,5.3501,5.3501,5.3501,5.3501,5.3501,5.3501,5.3501,5.3501,5.3501,5.3501,5.3501,5.3501,5.3501,5.3501,5.3501,5.3501,5.3501,5.3501,5.3501,5.3501,5.3501,5.3501,5.3501,5.3501,5.3501,5.3501,5.3501,5.3501,5.3501,5.3501,5.3501,5.3501,5.3501,5.3501,5.3501,5.3501,5.3501,5.3534,5.4028,5.5284,5.5429,5.5947,5.71,5.7188,5.7188,5.7188,5.7188,5.7188,5.7188,5.7188,5.7188,5.7188,5.7188,5.7188,5.7188,5.7188,5.7188,5.7188,5.7188,5.7188,4.4615,4.4615,4.4482,4.3978,4.3626,0.0,0.0,4.638,4.6802,4.8291,4.8815,0.0,0.0,0.0,0.0,0.0,0.0,0.0,0.0,0.0,0.0,0.0,0.0,0.0,0.0,0.0,0.0,0.0,0.0,0.0,0.0,0.0,0.0,4.9001,4.9712,5.0456,5.1201,5.1944,5.2706,5.3501,5.3501,5.3501,5.3501,5.3501,5.3501,5.3501,5.3501,5.3501,5.3501,5.3501,5.3501,5.3501,5.3501,5.3501,5.3501,5.3501,5.3501,5.3501,5.3501,5.3501,5.3501,5.3501,5.3501,5.3501,5.3501,5.3501,5.3501,5.3501,5.3501,5.3501,5.3501,5.3501,5.3501,5.3501,5.3501,5.3501,5.3501,5.3501,5.3501,5.3501,5.3501,5.3501,5.3501,5.3501,5.3501,5.3501,5.3501,5.3501,5.3501,5.3816,5.441,5.5296,5.6073,5.6701,5.7163,5.7188,5.7188,5.7188,5.7188,5.7188,5.7188,5.7188,5.7188,5.7188,5.7188,5.7188,5.7188,5.7188,5.7188,5.7188,5.7188,5.7188,4.4615,4.4615,4.4415,4.3592,0.0,0.0,4.6041,4.6447,4.6938,4.8646,4.9001,0.0,0.0,0.0,0.0,0.0,0.0,0.0,0.0,0.0,0.0,0.0,0.0,0.0,0.0,0.0,0.0,0.0,0.0,0.0,0.0,0.0,0.0,0.0,4.9492,5.0118,5.0862,5.1573,5.235,5.3129,5.3382,5.3501,5.3501,5.3501,5.3501,5.3501,5.3501,5.3501,5.3501,5.3501,5.3501,5.3501,5.3501,5.3501,5.3501,5.3501,5.3501,5.3501,5.3501,5.3501,5.3501,5.3501,5.3501,5.3501,5.3501,5.3501,5.3501,5.3501,5.3501,5.3501,5.3501,5.3501,5.3501,5.3501,5.3501,5.3501,5.3501,5.3501,5.3501,5.3501,5.3501,5.3501,5.3501,5.3501,5.3501,5.3501,5.3501,5.3501,5.3501,5.4027,5.4734,5.5589,5.6595,5.7188,5.7188,5.7188,5.7188,5.7188,5.7188,5.7188,5.7188,5.7188,5.7188,5.7188,5.7188,5.7188,5.7188,5.746,5.7587,5.7587,5.784,5.7967,4.4615,4.4615,4.4415,0.0,0.0,0.0,4.5534,4.572,4.6346,4.8562,0.0,0.0,0.0,0.0,0.0,0.0,0.0,0.0,0.0,0.0,0.0,0.0,0.0,0.0,0.0,0.0,0.0,0.0,0.0,0.0,0.0,0.0,0.0,0.0,4.9001,4.9357,5.01,5.0829,5.1573,5.2317,5.3129,5.3501,5.3501,5.3501,5.3501,5.3501,5.3501,5.3501,5.3501,5.3501,5.3501,5.3501,5.3501,5.3501,5.3501,5.3501,5.3501,5.3501,5.3501,5.3501,5.3501,5.3501,5.3501,5.3501,5.3501,5.3501,5.3501,5.3501,5.3501,5.3501,5.3501,5.3501,5.3501,5.3501,5.3501,5.3501,5.3501,5.3501,5.3501,5.3501,5.3501,5.3501,5.3501,5.3501,5.3501,5.3501,5.3501,5.3501,5.3517,5.4043,5.49,5.6174,5.6837,5.7188,5.7188,5.7188,5.7188,5.7206,5.7206,5.7206,5.7188,5.7188,5.7188,5.7206,5.7206,5.7224,5.7224,5.8021,5.8402,5.8438,5.9222,5.9602,4.4615,4.4615,0.0,4.3592,0.0,0.0,0.0,4.6109,0.0,0.0,0.0,0.0,0.0,0.0,0.0,0.0,0.0,0.0,0.0,0.0,0.0,0.0,0.0,0.0,0.0,0.0,0.0,0.0,0.0,0.0,0.0,0.0,0.0,0.0,4.9001,4.9357,5.01,5.0829,5.1573,5.2317,5.3129,5.3501,5.3501,5.3501,5.3501,5.3501,5.3501,5.3501,5.3501,5.3501,5.3501,5.3501,5.3501,5.3501,5.3501,5.3501,5.3501,5.3501,5.3501,5.3501,5.3501,5.3501,5.3501,5.3501,5.3501,5.3501,5.3501,5.3501,5.3501,5.3501,5.3501,5.3501,5.3501,5.3501,5.3501,5.3501,5.3501,5.3501,5.3501,5.3501,5.3501,5.3501,5.3501,5.3501,5.3501,5.3501,5.3865,5.4299,5.4784,5.5352,5.5872,5.6257,5.6837,5.7188,5.7188,5.7188,5.7442,5.8003,5.8039,5.7786,5.7224,5.7188,5.746,5.8039,5.8039,5.8329,5.8891,5.9126,5.9253,5.9253,5.9488,5.9602,4.4615,4.4615,0.0,4.3592,4.4556,4.5841,0.0,0.0,0.0,0.0,0.0,0.0,0.0,0.0,0.0,0.0,0.0,0.0,0.0,0.0,0.0,0.0,0.0,0.0,0.0,0.0,0.0,0.0,0.0,0.0,0.0,4.9001,4.9001,4.9001,4.9001,4.9221,4.9661,5.0677,5.1421,5.1894,5.2993,5.3501,5.3501,5.3501,5.3501,5.3501,5.3501,5.3501,5.3501,5.3501,5.3501,5.3501,5.3501,5.3501,5.3501,5.3501,5.3501,5.3501,5.3501,5.3501,5.3501,5.3501,5.3501,5.3501,5.3501,5.3501,5.3501,5.3501,5.3501,5.3501,5.3501,5.3501,5.3501,5.3501,5.3501,5.3501,5.3501,5.3501,5.3501,5.3501,5.3501,5.3501,5.3501,5.3501,5.3501,5.3501,5.401,5.4734,5.5647,5.609,5.6393,5.6621,5.6979,5.7333,5.7641,5.7677,5.8021,5.8836,5.8891,5.8655,5.8166,5.8148,5.8383,5.8872,5.8891,5.9126,5.9602,5.991,6.0072,6.0072,6.0398,6.0543,4.4615,0.0,0.0,4.3761,0.0,0.0,0.0,0.0,0.0,0.0,0.0,0.0,0.0,0.0,0.0,0.0,0.0,0.0,0.0,0.0,0.0,0.0,0.0,0.0,0.0,0.0,0.0,0.0,0.0,0.0,0.0,4.9001,4.9001,4.9001,4.9001,4.9001,4.9001,5.0457,5.1201,5.1218,5.2773,5.3501,5.3501,5.3501,5.3501,5.3501,5.3501,5.3501,5.3501,5.3501,5.3501,5.3501,5.3501,5.3501,5.3501,5.3501,5.3501,5.3501,5.3501,5.3501,5.3501,5.3501,5.3501,5.3501,5.3501,5.3501,5.3501,5.3501,5.3501,5.3501,5.3501,5.3501,5.3501,5.3501,5.3501,5.3501,5.3501,5.3501,5.3501,5.3501,5.3501,5.3501,5.3501,5.3551,5.3618,5.3734,5.4219,5.5022,5.6243,5.6451,5.6689,5.7246,5.7369,5.7713,5.8456,5.851,5.8854,5.9669,5.971,5.9728,5.9819,5.9687,5.9633,5.9724,5.971,5.9747,5.9819,6.0543,6.0905,6.0923,6.1666,6.201,4.4615,4.413,0.0,0.0,0.0,0.0,0.0,0.0,0.0,0.0,0.0,0.0,0.0,0.0,0.0,0.0,0.0,0.0,0.0,0.0,0.0,0.0,0.0,0.0,0.0,0.0,0.0,0.0,0.0,0.0,4.9001,4.9001,4.9001,4.9001,4.9001,4.9001,4.9001,5.0457,5.1201,0.0,5.2773,5.3501,5.3501,5.3501,5.3501,5.3501,5.3501,5.3501,5.3501,5.3501,5.3501,5.3501,5.3501,5.3501,5.3501,5.3501,5.3501,5.3501,5.3501,5.3501,5.3501,5.3501,5.3501,5.3501,5.3501,5.3501,5.3501,5.3501,5.3501,5.3501,5.3501,5.3501,5.3501,5.3501,5.3501,5.3501,5.3501,5.3501,5.3501,5.3501,5.3501,5.3501,5.3501,5.3898,5.4549,5.556,5.5819,5.617,5.6902,5.7552,5.8001,5.8135,5.8709,5.9162,5.933,5.9343,5.9692,6.0489,6.0543,6.0833,6.1467,6.0272,5.9905,6.0525,6.0543,6.0851,6.1485,6.1666,6.1738,6.1756,6.1919,6.201,4.4615,0.0,0.0,4.5855,0.0,0.0,0.0,0.0,0.0,0.0,0.0,0.0,0.0,0.0,0.0,0.0,0.0,0.0,0.0,0.0,0.0,0.0,0.0,0.0,0.0,0.0,0.0,0.0,0.0,4.9001,4.9001,4.9001,4.9001,4.9001,4.9001,4.9001,4.9001,5.0457,5.1201,5.1218,5.2773,5.3501,5.3501,5.3501,5.3501,5.3501,5.3501,5.3501,5.3501,5.3501,5.3501,5.3501,5.3501,5.3501,5.3501,5.3501,5.3501,5.3501,5.3501,5.3501,5.3501,5.3501,5.3501,5.3501,5.3501,5.3501,5.3501,5.3501,5.3501,5.3501,5.3501,5.3501,5.3501,5.3501,5.3501,5.3501,5.3501,5.3501,5.3501,5.3501,5.3501,5.3584,5.3881,5.4473,5.5204,5.6174,5.6298,5.6658,5.765,5.8148,5.8546,5.8927,5.9348,5.976,6.0145,6.0163,6.0525,6.1322,6.1376,6.1557,6.1992,6.1195,6.0942,6.1376,6.1376,6.1575,6.201,6.201,6.201,6.201,6.201,6.201,4.4615,0.0,4.5261,4.6496,0.0,0.0,0.0,0.0,0.0,0.0,0.0,0.0,0.0,0.0,0.0,0.0,0.0,0.0,0.0,0.0,0.0,0.0,0.0,0.0,0.0,0.0,0.0,0.0,0.0,4.9001,4.9001,4.9001,4.9001,4.9001,4.9001,4.9001,4.9001,5.0457,5.1201,5.1218,5.2773,5.3501,5.3501,5.3501,5.3501,5.3501,5.3501,5.3501,5.3501,5.3501,5.3501,5.3501,5.3501,5.3501,5.3501,5.3501,5.3501,5.3501,5.3501,5.3501,5.3501,5.3501,5.3501,5.3501,5.3501,5.3501,5.3501,5.3501,5.3501,5.3501,5.3501,5.3501,5.3501,5.3501,5.3501,5.3501,5.3501,5.3501,5.3501,5.3501,5.3584,5.3849,5.4471,5.5114,5.5762,5.6366,5.6555,5.7083,5.8247,5.8637,5.9072,5.9728,5.9928,6.0272,6.0942,6.1014,6.1286,6.1955,6.201,6.201,6.201,6.201,6.201,6.201,6.201,6.201,6.201,6.201,6.201,6.201,6.201,6.201,0.0,0.0,4.6546,0.0,0.0,0.0,0.0,0.0,0.0,0.0,0.0,0.0,0.0,0.0,0.0,0.0,0.0,0.0,0.0,0.0,0.0,0.0,0.0,0.0,0.0,0.0,0.0,0.0,4.9001,4.9001,4.9001,4.9001,4.9001,4.9001,4.9001,4.9001,4.9001,5.0457,5.1201,5.1218,5.2773,5.3501,5.3501,5.3501,5.3501,5.3501,5.3501,5.3501,5.3501,5.3501,5.3501,5.3501,5.3501,5.3501,5.3501,5.3501,5.3501,5.3501,5.3501,5.3501,5.3501,5.3501,5.3501,5.3501,5.3501,5.3501,5.3501,5.3501,5.3501,5.3501,5.3501,5.3501,5.3501,5.3501,5.3501,5.3501,5.3501,5.3501,5.3501,5.3501,5.3913,5.4502,5.5162,5.5776,5.638,5.6997,5.7683,5.8197,5.8371,5.962,6.0525,6.0634,6.1267,6.172,6.1829,6.1847,6.1883,6.1992,6.201,6.201,6.201,6.201,6.201,6.201,6.201,6.201,6.201,6.201,6.201,6.201,6.201,6.201,4.5108,4.6295,4.7428,0.0,0.0,0.0,0.0,0.0,0.0,0.0,0.0,0.0,0.0,0.0,0.0,0.0,0.0,0.0,0.0,0.0,0.0,0.0,0.0,0.0,0.0,0.0,0.0,0.0,4.9001,4.9001,4.9001,4.9001,4.9001,4.9001,4.9001,4.9001,4.9001,5.0457,5.1624,5.2486,5.3179,5.3501,5.3501,5.3501,5.3501,5.3501,5.3501,5.3501,5.3501,5.3501,5.3501,5.3501,5.3501,5.3501,5.3501,5.3501,5.3501,5.3501,5.3501,5.3501,5.3501,5.3501,5.3501,5.3501,5.3501,5.3501,5.3501,5.3501,5.3501,5.3501,5.3501,5.3501,5.3501,5.3501,5.3501,5.3501,5.3501,5.3501,5.3601,5.393,5.4518,5.5159,5.5791,5.6778,5.7574,5.782,5.8565,5.9253,5.9692,6.0362,6.0978,6.143,6.1792,6.201,6.201,6.201,6.201,6.201,6.201,6.201,6.201,6.201,6.201,6.201,6.201,6.201,6.201,6.201,6.201,6.201,6.201,6.201,0.0,0.0,4.7938,0.0,0.0,0.0,0.0,0.0,0.0,0.0,0.0,0.0,0.0,0.0,0.0,0.0,0.0,0.0,0.0,0.0,0.0,0.0,0.0,0.0,0.0,0.0,0.0,0.0,4.9001,4.9001,4.9001,4.9001,4.9001,4.9001,4.9001,4.9001,4.9001,5.0457,5.1962,5.3501,5.3501,5.3501,5.3501,5.3501,5.3501,5.3501,5.3501,5.3501,5.3501,5.3501,5.3501,5.3501,5.3501,5.3501,5.3501,5.3501,5.3501,5.3501,5.3501,5.3501,5.3501,5.3501,5.3501,5.3501,5.3501,5.3501,5.3501,5.3501,5.3501,5.3501,5.3501,5.3501,5.3501,5.3501,5.3501,5.3501,5.3501,5.3501,5.3684,5.4281,5.4933,5.5642,5.6465,5.7603,5.8474,5.8673,5.9398,6.0109,6.0724,6.0978,6.1322,6.1937,6.201,6.201,6.201,6.201,6.201,6.201,6.201,6.201,6.201,6.201,6.201,6.201,6.201,6.201,6.201,6.201,6.201,6.201,6.201,6.201,0.0,4.7853,0.0,0.0,0.0,0.0,0.0,0.0,0.0,0.0,0.0,0.0,0.0,0.0,0.0,0.0,0.0,0.0,0.0,0.0,0.0,0.0,0.0,0.0,0.0,0.0,0.0,0.0,4.9001,4.9001,4.9001,4.9001,4.9001,4.9001,4.9001,4.9001,4.9001,5.0457,5.1962,5.3501,5.3501,5.3501,5.3501,5.3501,5.3501,5.3501,5.3501,5.3501,5.3501,5.3501,5.3501,5.3501,5.3501,5.3501,5.3501,5.3501,5.3501,5.3501,5.3501,5.3501,5.3501,5.3501,5.3501,5.3501,5.3501,5.3501,5.3501,5.3501,5.3501,5.3501,5.3501,5.3501,5.3501,5.3501,5.3501,5.3501,5.3501,5.3501,5.3684,5.4281,5.4898,5.5765,5.7187,5.7976,5.8655,5.9421,6.0217,6.0742,6.0797,6.1467,6.1955,6.201,6.201,6.201,6.201,6.201,6.201,6.201,6.201,6.201,6.201,6.201,6.201,6.201,6.201,6.201,6.201,6.201,6.201,6.201,6.201,6.201,0.0,0.0,0.0,0.0,0.0,0.0,0.0,0.0,0.0,0.0,0.0,0.0,0.0,0.0,0.0,0.0,0.0,0.0,0.0,0.0,0.0,0.0,0.0,0.0,0.0,0.0,0.0,0.0,0.0,4.9001,4.9001,4.9001,4.9001,4.9001,4.9001,4.9221,4.9695,5.071,5.1708,5.2739,5.3264,5.3501,5.3501,5.3501,5.3501,5.3501,5.3501,5.3501,5.3501,5.3501,5.3501,5.3501,5.3501,5.3501,5.3501,5.3501,5.3501,5.3501,5.3501,5.3501,5.3501,5.3501,5.3501,5.3501,5.3501,5.3501,5.3501,5.3501,5.3501,5.3501,5.3501,5.3501,5.3501,5.3501,5.38,5.4075,5.4075,5.4075,5.4376,5.5408,5.6205,5.6985,5.7913,5.9103,6.0036,6.0326,6.105,6.1575,6.1575,6.1829,6.201,6.201,6.201,6.201,6.201,6.201,6.201,6.201,6.201,6.201,6.201,6.201,6.201,6.201,6.201,6.201,6.201,6.201,6.201,6.201,6.201,6.201,4.8191,0.0,0.0,0.0,0.0,0.0,0.0,0.0,0.0,0.0,0.0,0.0,0.0,0.0,0.0,0.0,0.0,0.0,0.0,0.0,0.0,0.0,0.0,0.0,0.0,0.0,0.0,0.0,0.0,0.0,4.9001,4.9001,4.9001,4.9001,4.9001,4.9357,5.01,5.0829,5.1573,5.2317,5.3129,5.3501,5.3501,5.3501,5.3501,5.3501,5.3501,5.3501,5.3501,5.3501,5.3501,5.3501,5.3501,5.3501,5.3501,5.3501,5.3501,5.3501,5.3501,5.3501,5.3501,5.3501,5.3501,5.3501,5.3501,5.3501,5.3501,5.3501,5.3501,5.3501,5.3501,5.3501,5.3551,5.375,5.4124,5.4516,5.4946,5.4887,5.5124,5.6452,5.7128,5.7871,5.9016,6.0091,6.0887,6.1159,6.1666,6.201,6.201,6.201,6.201,6.201,6.201,6.201,6.201,6.201,6.201,6.201,6.201,6.201,6.201,6.201,6.201,6.201,6.201,6.201,6.201,6.201,6.201,6.201,6.201,6.201,0.0,0.0,0.0,0.0,0.0,0.0,0.0,0.0,0.0,0.0,0.0,0.0,0.0,0.0,0.0,0.0,0.0,0.0,0.0,0.0,0.0,0.0,0.0,0.0,0.0,0.0,0.0,0.0,4.9001,4.9001,4.9001,4.9001,4.9001,4.9001,4.9001,4.934,5.0066,5.0812,5.1556,5.2283,5.3112,5.3501,5.3501,5.3501,5.3501,5.3501,5.3501,5.3501,5.3501,5.3501,5.3501,5.3501,5.3501,5.3501,5.3501,5.3501,5.3501,5.3501,5.3501,5.3501,5.3501,5.3501,5.3501,5.3501,5.3501,5.3501,5.3501,5.3501,5.3517,5.3534,5.3551,5.3568,5.3701,5.4297,5.4438,5.4793,5.6031,5.5865,5.5879,5.7255,5.7559,5.8243,6.0427,6.0815,6.1104,6.1883,6.201,6.201,6.201,6.201,6.201,6.201,6.201,6.201,6.201,6.201,6.201,6.201,6.201,6.201,6.201,6.201,6.201,6.201,6.201,6.201,6.201,6.201,6.201,6.201,6.201,6.201,4.8951,0.0,0.0,0.0,0.0,0.0,0.0,0.0,0.0,0.0,0.0,0.0,0.0,0.0,0.0,0.0,0.0,0.0,0.0,0.0,0.0,0.0,0.0,0.0,0.0,0.0,0.0,0.0,4.9001,4.9001,4.9001,4.9001,4.9001,4.9001,4.9001,4.9103,4.9306,5.0558,5.1302,5.1522,5.2858,5.3501,5.3501,5.3501,5.3501,5.3501,5.3501,5.3501,5.3501,5.3501,5.3501,5.3501,5.3501,5.3501,5.3501,5.3501,5.3501,5.3501,5.3501,5.3501,5.3501,5.3501,5.3501,5.3501,5.3501,5.3501,5.3501,5.3501,5.3799,5.4267,5.4753,5.4876,5.4922,5.5087,5.5455,5.5858,5.6211,5.6962,5.7689,5.8082,5.8613,5.9393,6.0589,6.1286,6.1738,6.1973,6.201,6.201,6.201,6.201,6.201,6.201,6.201,6.201,6.201,6.201,6.201,6.201,6.201,6.201,6.201,6.201,6.201,6.201,6.201,6.201,6.201,6.201,6.201,6.201,6.201,6.201,0.0,0.0,0.0,0.0,0.0,0.0,4.9001,4.9001,0.0,0.0,0.0,0.0,0.0,0.0,0.0,0.0,0.0,0.0,0.0,0.0,0.0,0.0,0.0,0.0,0.0,4.9001,4.9001,4.9001,4.9001,4.9001,4.9001,4.9001,4.9001,4.9001,4.9001,4.9001,4.9001,5.0457,5.1201,5.1218,5.2773,5.3501,5.3501,5.3501,5.3501,5.3501,5.3501,5.3501,5.3501,5.3501,5.3501,5.3501,5.3501,5.3501,5.3501,5.3501,5.3501,5.3501,5.3501,5.3501,5.3501,5.3501,5.3501,5.3551,5.38,5.3881,5.393,5.4205,5.4551,5.4903,5.5296,5.5399,5.5458,5.5719,5.6031,5.6366,5.6608,5.7572,5.851,5.8836,5.9547,6.0362,6.1159,6.1684,6.201,6.201,6.201,6.201,6.201,6.201,6.201,6.201,6.201,6.201,6.201,6.201,6.201,6.201,6.201,6.201,6.201,6.201,6.201,6.201,6.201,6.201,6.201,6.201,6.201,6.201,6.201,6.201,0.0,0.0,0.0,0.0,0.0,0.0,4.9001,4.9001,4.9001,0.0,0.0,0.0,0.0,0.0,0.0,0.0,0.0,0.0,0.0,0.0,0.0,0.0,0.0,0.0,4.9001,4.9001,4.9001,4.9001,4.9001,4.9001,4.9001,4.9001,4.9001,4.9001,4.9001,4.9001,4.9001,5.0457,5.1201,5.1218,5.2773,5.3501,5.3501,5.3501,5.3501,5.3501,5.3501,5.3501,5.3501,5.3501,5.3501,5.3501,5.3501,5.3501,5.3501,5.3501,5.3501,5.3501,5.3501,5.3501,5.3501,5.3501,5.3551,5.3701,5.4234,5.4454,5.4657,5.5311,5.5487,5.5516,5.5575,5.5604,5.5733,5.627,5.6393,5.6577,5.7195,5.7967,5.8764,5.9579,6.0308,6.1068,6.1865,6.201,6.201,6.201,6.201,6.201,6.201,6.201,6.201,6.201,6.201,6.201,6.201,6.201,6.201,6.201,6.201,6.201,6.201,6.201,6.201,6.201,6.201,6.201,6.201,6.201,6.201,6.201,6.201,6.201,0.0,0.0,0.0,0.0,0.0,0.0,4.9001,4.9001,4.9001,0.0,0.0,0.0,0.0,0.0,0.0,0.0,0.0,0.0,0.0,0.0,0.0,0.0,0.0,0.0,4.9001,4.9001,4.9001,4.9001,4.9001,4.9001,4.9001,4.9001,4.9001,4.9001,4.9001,4.9001,4.9001,5.0457,5.1201,5.1218,5.2773,5.3501,5.3501,5.3501,5.3501,5.3501,5.3501,5.3501,5.3501,5.3501,5.3501,5.3501,5.3501,5.3501,5.3501,5.3501,5.3501,5.3501,5.3501,5.3501,5.3501,5.3501,5.3816,5.4249,5.4359,5.478,5.534,5.5947,5.6114,5.6243,5.6714,5.685,5.6876,5.701,5.7018,5.7224,5.7996,5.88,5.9602,6.0416,6.0688,6.1068,6.1865,6.201,6.201,6.201,6.201,6.201,6.201,6.201,6.201,6.201,6.201,6.201,6.201,6.201,6.201,6.201,6.201,6.201,6.201,6.201,6.201,6.201,6.201,6.201,6.201,6.201,6.201,6.201,6.201,6.201,0.0,0.0,0.0,4.9001,0.0,0.0,0.0,4.9001,4.9001,0.0,0.0,0.0,0.0,0.0,0.0,0.0,0.0,0.0,0.0,0.0,0.0,0.0,0.0,0.0,4.9001,4.9001,4.9001,4.9001,4.9001,4.9001,4.9001,4.9001,4.9001,4.9001,4.9001,4.9001,4.9001,5.0457,5.1201,5.1218,5.2773,5.3501,5.3501,5.3501,5.3501,5.3501,5.3501,5.3501,5.3501,5.3501,5.3501,5.3501,5.3501,5.3501,5.3501,5.3501,5.3684,5.3946,5.3946,5.4173,5.4443,5.4443,5.466,5.4948,5.5246,5.5784,5.6362,5.6661,5.6758,5.6824,5.7125,5.7188,5.7188,5.7188,5.7188,5.7424,5.8239,5.9035,5.9837,6.0634,6.1123,6.1539,6.1937,6.201,6.201,6.201,6.201,6.201,6.201,6.201,6.201,6.201,6.201,6.201,6.201,6.201,6.201,6.201,6.201,6.201,6.201,6.201,6.201,6.201,6.201,6.201,6.201,6.201,6.201,6.201,6.201,6.201,0.0,0.0,0.0,0.0,0.0,4.9001,0.0,0.0,0.0,0.0,0.0,0.0,0.0,0.0,0.0,0.0,0.0,0.0,0.0,0.0,0.0,0.0,0.0,0.0,0.0,4.9001,4.9001,4.9001,4.9001,4.9001,4.9001,4.9001,4.9001,4.9001,4.9001,4.9001,4.9001,5.0457,5.1201,5.1218,5.2773,5.3501,5.3501,5.3501,5.3501,5.3501,5.3501,5.3501,5.3501,5.3501,5.3501,5.3501,5.3501,5.3501,5.3517,5.3635,5.3979,5.4422,5.4548,5.4948,5.5399,5.5399,5.5473,5.569,5.6298,5.6811,5.7188,5.7188,5.7188,5.7188,5.7188,5.7188,5.7188,5.7188,5.7315,5.7641,5.8456,5.9271,6.0072,6.0869,6.1557,6.201,6.201,6.201,6.201,6.201,6.201,6.201,6.201,6.201,6.201,6.201,6.201,6.201,6.201,6.201,6.201,6.201,6.201,6.201,6.201,6.201,6.201,6.201,6.201,6.201,6.201,6.201,6.201,6.201,6.201,6.201,0.0,0.0,0.0,0.0,4.9001,0.0,0.0,0.0,0.0,0.0,0.0,0.0,0.0,0.0,0.0,0.0,0.0,0.0,0.0,0.0,0.0,0.0,0.0,0.0,0.0,4.9001,4.9001,4.9001,4.9001,4.9001,4.9001,4.9001,4.9001,4.9001,4.9001,4.9001,4.9001,5.0457,5.1201,5.1218,5.2773,5.3501,5.3501,5.3501,5.3501,5.3501,5.3501,5.3501,5.3501,5.3501,5.3501,5.3501,5.3501,5.3501,5.3551,5.4107,5.4328,5.4485,5.5087,5.534,5.5399,5.5399,5.5762,5.6311,5.6915,5.7138,5.7188,5.7188,5.7188,5.7188,5.7188,5.7188,5.7188,5.7188,5.7732,5.8492,5.9289,6.0091,6.0905,6.172,6.1937,6.201,6.201,6.201,6.201,6.201,6.201,6.201,6.201,6.201,6.201,6.201,6.201,6.201,6.201,6.201,6.201,6.201,6.201,6.201,6.201,6.201,6.201,6.201,6.201,6.201,6.201,6.201,6.201,6.201,6.201,6.201,0.0,0.0,0.0,0.0,0.0,0.0,0.0,0.0,4.9001,0.0,0.0,0.0,0.0,0.0,0.0,0.0,0.0,0.0,0.0,0.0,0.0,0.0,0.0,0.0,0.0,0.0,0.0,0.0,4.9001,4.9001,4.9001,4.9001,4.9001,4.9001,4.9001,4.9001,4.9001,5.0457,5.1201,5.1218,5.2773,5.3501,5.3501,5.3501,5.3501,5.3501,5.3501,5.3701,5.3995,5.3634,5.3931,5.4568,5.4172,5.401,5.4059,5.4313,5.487,5.5539,5.5833,5.6142,5.6443,5.6443,5.6621,5.6863,5.7125,5.7188,5.7188,5.7188,5.7188,5.7188,5.7188,5.7188,5.7315,5.7786,5.8148,5.8746,6.0018,6.0561,6.1032,6.1847,6.201,6.201,6.201,6.201,6.201,6.201,6.201,6.201,6.201,6.201,6.201,6.201,6.201,6.201,6.201,6.201,6.201,6.201,6.201,6.201,6.201,6.201,6.201,6.201,6.201,6.201,6.201,6.201,6.201,6.201,6.201,6.201,4.9861,0.0,0.0,0.0,0.0,0.0,0.0,0.0,0.0,0.0,0.0,0.0,0.0,0.0,0.0,0.0,0.0,0.0,0.0,0.0,0.0,0.0,0.0,0.0,0.0,0.0,0.0,4.9001,4.9001,4.9001,4.9001,4.9001,4.9001,4.9001,4.9001,4.9103,4.9306,5.0558,5.1302,5.1522,5.2858,5.3501,5.3501,5.3501,5.3501,5.3501,5.3501,5.3832,5.4359,5.393,5.4395,5.534,5.4857,5.478,5.4916,5.4916,5.5513,5.6325,5.6488,5.6837,5.7188,5.7188,5.7188,5.7188,5.7188,5.7188,5.7188,5.7188,5.7188,5.7188,5.7188,5.7351,5.7677,5.8257,5.8746,5.9366,6.0543,6.0978,6.1304,6.1883,6.201,6.201,6.201,6.201,6.201,6.201,6.201,6.201,6.201,6.201,6.201,6.201,6.201,6.201,6.201,6.201,6.201,6.201,6.201,6.201,6.201,6.201,6.201,6.201,6.201,6.201,6.201,6.201,6.201,6.201,6.201,6.201,0.0,0.0,0.0,4.9875,0.0,0.0,0.0,0.0,4.9001,0.0,0.0,0.0,0.0,0.0,0.0,0.0,0.0,0.0,0.0,0.0,0.0,0.0,0.0,0.0,0.0,0.0,0.0,4.9001,4.9001,4.9001,4.9001,4.9001,4.9001,4.9001,4.9001,4.934,5.0066,5.0812,5.1556,5.2283,5.3112,5.3501,5.3501,5.3501,5.3501,5.3501,5.3501,5.3832,5.4407,5.4375,5.478,5.5399,5.537,5.5719,5.6243,5.6243,5.627,5.638,5.6966,5.7176,5.7188,5.7188,5.7188,5.7188,5.7188,5.7188,5.7188,5.7188,5.7188,5.7188,5.7188,5.7786,5.8365,5.8402,5.9584,6.0742,6.0797,6.1412,6.1973,6.1992,6.201,6.201,6.201,6.201,6.201,6.201,6.201,6.201,6.201,6.201,6.201,6.201,6.201,6.201,6.201,6.201,6.201,6.201,6.201,6.201,6.201,6.201,6.201,6.201,6.201,6.201,6.201,6.201,6.201,6.201,6.201,6.201,0.0,0.0,4.9803,4.9409,0.0,0.0,0.0,0.0,0.0,0.0,0.0,0.0,0.0,0.0,0.0,0.0,0.0,0.0,0.0,0.0,0.0,0.0,0.0,0.0,0.0,0.0,0.0,4.9001,4.9001,4.9001,4.9001,4.9001,4.9001,4.9001,4.9475,4.9863,5.01,5.1319,5.2063,5.2317,5.3129,5.3501,5.3501,5.3501,5.3501,5.3501,5.3501,5.4076,5.4956,5.4562,5.5258,5.6555,5.6142,5.6366,5.685,5.6447,5.6541,5.6915,5.7125,5.7188,5.7188,5.7188,5.7188,5.7188,5.7188,5.7188,5.7188,5.7188,5.7587,5.7985,5.7985,5.8601,5.933,5.9855,6.0398,6.0942,6.1485,6.1811,6.201,6.201,6.201,6.201,6.201,6.201,6.201,6.201,6.201,6.201,6.201,6.201,6.201,6.201,6.201,6.201,6.201,6.201,6.201,6.201,6.201,6.201,6.201,6.201,6.201,6.201,6.201,6.201,6.201,6.201,6.201,6.201,6.201,6.201,4.9846,4.9904,0.0,4.9424,4.9615,0.0,4.9629,0.0,0.0,0.0,0.0,0.0,0.0,0.0,0.0,0.0,0.0,0.0,0.0,0.0,0.0,0.0,0.0,0.0,0.0,0.0,4.9001,4.9001,4.9001,4.9001,0.0,0.0,4.912,4.9373,4.9863,5.0353,5.0879,5.1826,5.2435,5.2739,5.3264,5.3501,5.3501,5.3501,5.3501,5.3501,5.3501,5.4188,5.532,5.4918,5.5727,5.715,5.6771,5.6863,5.715,5.6771,5.6863,5.7188,5.7188,5.7188,5.7188,5.7188,5.7188,5.7188,5.7188,5.7188,5.7261,5.755,5.8003,5.8474,5.8746,5.9421,6.0163,6.067,6.1014,6.1376,6.1883,6.201,6.201,6.201,6.201,6.201,6.201,6.201,6.201,6.201,6.201,6.201,6.201,6.201,6.201,6.201,6.201,6.201,6.201,6.201,6.201,6.201,6.201,6.201,6.201,6.201,6.2263,6.2843,6.2299,6.2281,6.2843,6.2281,6.201,6.201,6.201,6.201]}]]